[[{"header":{"parameterUnit":"m.s-1","parameterCategory":1,"la1":30.6,"la2":29.2853,"lo1":-89.7004,"lo2":-87.6739,"dy":0.0162,"dx":0.0183,"nx":112,"ny":82,"refTime":"2024-04-25T06:00:00:Z","depth":0,"parameterNumber":2,"parameterNumberName":"U-component_of_WINDS"},"data":[0.0,0.0,0.0,0.0,0.0,0.0,0.0,0.0,0.0,0.0,0.0,0.0,0.0,0.0,0.0,0.0,0.0,0.0,0.0,0.0,0.0,0.0,0.0,0.0,0.0,0.0,0.0,0.0,0.0,0.0,0.0,0.0,0.0,0.0,0.0,0.0,0.0,0.0,0.0,0.0,0.0,0.0,0.0,0.0,0.0,0.0,0.0,0.0,0.0,0.0,0.0,0.0,0.0,0.0,0.0,0.0,0.0,0.0,0.0,0.0,0.0,0.0,0.0,0.0,0.0,0.0,0.0,0.0,0.0,0.0,0.0,0.0,0.0,0.0,0.0,0.0,0.0,0.0,0.0,0.0,0.0,0.0,0.0,0.0,0.0,0.0,0.0,0.0,0.0,0.0,-2.0814,-2.206,-2.3691,-2.4381,-2.3576,-2.3738,-2.358,-2.287,0.0,0.0,0.0,0.0,0.0,0.0,0.0,0.0,0.0,0.0,0.0,0.0,0.0,0.0,0.0,0.0,0.0,0.0,0.0,0.0,0.0,0.0,0.0,0.0,0.0,0.0,0.0,0.0,0.0,0.0,0.0,0.0,0.0,0.0,0.0,0.0,0.0,0.0,0.0,0.0,0.0,0.0,0.0,0.0,0.0,0.0,0.0,0.0,0.0,0.0,0.0,0.0,0.0,0.0,0.0,0.0,0.0,0.0,0.0,0.0,0.0,0.0,0.0,0.0,0.0,0.0,0.0,0.0,0.0,0.0,0.0,0.0,0.0,0.0,0.0,0.0,0.0,0.0,0.0,0.0,0.0,0.0,0.0,0.0,0.0,0.0,0.0,0.0,0.0,0.0,0.0,0.0,0.0,0.0,0.0,0.0,0.0,0.0,0.0,0.0,0.0,0.0,0.0,0.0,-2.0767,-2.2351,-2.3351,-2.3786,-2.3515,-2.3692,-2.3428,-2.2535,0.0,0.0,0.0,0.0,0.0,0.0,0.0,0.0,0.0,0.0,0.0,0.0,0.0,0.0,0.0,0.0,0.0,0.0,0.0,0.0,0.0,0.0,0.0,0.0,0.0,0.0,0.0,0.0,0.0,0.0,0.0,0.0,0.0,0.0,0.0,0.0,0.0,0.0,0.0,0.0,0.0,0.0,0.0,0.0,0.0,0.0,0.0,0.0,0.0,0.0,0.0,0.0,0.0,0.0,0.0,0.0,0.0,0.0,0.0,0.0,0.0,0.0,0.0,0.0,0.0,0.0,0.0,0.0,0.0,0.0,0.0,0.0,0.0,0.0,0.0,0.0,0.0,0.0,0.0,0.0,0.0,0.0,0.0,0.0,0.0,0.0,0.0,0.0,0.0,0.0,0.0,0.0,0.0,0.0,0.0,0.0,0.0,0.0,0.0,0.0,0.0,0.0,0.0,-1.9919,-2.0827,-2.1841,-2.3006,-2.344,-2.2808,-2.3234,-2.3066,-2.1983,-2.202,0.0,0.0,0.0,0.0,0.0,0.0,0.0,0.0,0.0,0.0,0.0,0.0,0.0,0.0,0.0,0.0,0.0,0.0,0.0,0.0,0.0,0.0,0.0,0.0,0.0,0.0,0.0,0.0,0.0,0.0,0.0,0.0,0.0,0.0,0.0,0.0,0.0,0.0,0.0,0.0,0.0,0.0,0.0,0.0,0.0,0.0,0.0,0.0,0.0,0.0,0.0,0.0,0.0,0.0,0.0,0.0,0.0,0.0,0.0,0.0,0.0,0.0,0.0,0.0,0.0,0.0,0.0,0.0,0.0,0.0,0.0,0.0,0.0,0.0,0.0,0.0,0.0,0.0,0.0,0.0,0.0,0.0,0.0,0.0,0.0,0.0,0.0,0.0,0.0,0.0,0.0,0.0,0.0,0.0,0.0,0.0,0.0,0.0,0.0,0.0,0.0,0.0,-2.0178,-2.0666,-2.1311,-2.2417,-2.2838,-2.2146,-2.2615,-2.2502,-2.1477,-2.1256,0.0,0.0,0.0,0.0,0.0,0.0,0.0,0.0,0.0,0.0,0.0,0.0,0.0,0.0,0.0,0.0,0.0,0.0,0.0,0.0,0.0,0.0,0.0,0.0,0.0,0.0,0.0,0.0,0.0,0.0,0.0,0.0,0.0,0.0,0.0,0.0,0.0,0.0,0.0,0.0,0.0,0.0,0.0,0.0,0.0,0.0,0.0,0.0,0.0,0.0,0.0,0.0,0.0,0.0,0.0,0.0,0.0,0.0,0.0,0.0,0.0,0.0,0.0,0.0,0.0,0.0,0.0,0.0,0.0,0.0,0.0,0.0,0.0,0.0,0.0,0.0,0.0,0.0,0.0,0.0,0.0,0.0,0.0,0.0,0.0,0.0,0.0,0.0,0.0,0.0,0.0,0.0,0.0,0.0,0.0,0.0,0.0,0.0,0.0,0.0,0.0,0.0,-1.9594,-2.0026,-2.1186,-2.1354,-2.1552,-2.1976,-2.1943,-2.1677,-2.1159,-2.0766,0.0,0.0,0.0,0.0,0.0,0.0,0.0,0.0,0.0,0.0,0.0,0.0,0.0,0.0,0.0,0.0,0.0,0.0,0.0,0.0,0.0,0.0,0.0,0.0,0.0,0.0,0.0,0.0,0.0,0.0,0.0,0.0,0.0,0.0,0.0,0.0,0.0,0.0,0.0,0.0,0.0,0.0,0.0,0.0,0.0,0.0,0.0,0.0,0.0,0.0,0.0,0.0,0.0,0.0,0.0,0.0,0.0,0.0,0.0,0.0,0.0,0.0,0.0,0.0,0.0,0.0,0.0,0.0,0.0,0.0,0.0,0.0,0.0,0.0,0.0,0.0,0.0,0.0,0.0,0.0,0.0,0.0,0.0,0.0,0.0,0.0,0.0,0.0,0.0,0.0,0.0,0.0,0.0,0.0,0.0,0.0,0.0,0.0,0.0,0.0,0.0,0.0,-1.9531,-1.9963,-2.1177,-2.1239,-2.1234,-2.131,-2.1563,-2.1252,-2.0116,0.0,0.0,0.0,0.0,0.0,0.0,0.0,0.0,0.0,0.0,0.0,0.0,0.0,0.0,0.0,0.0,0.0,0.0,0.0,0.0,0.0,0.0,0.0,0.0,0.0,0.0,0.0,0.0,0.0,0.0,0.0,0.0,0.0,0.0,0.0,0.0,0.0,0.0,0.0,0.0,0.0,0.0,0.0,0.0,0.0,0.0,0.0,0.0,0.0,0.0,0.0,0.0,0.0,0.0,0.0,0.0,0.0,0.0,0.0,0.0,0.0,0.0,0.0,0.0,0.0,0.0,0.0,0.0,0.0,0.0,0.0,0.0,0.0,0.0,0.0,0.0,0.0,0.0,0.0,0.0,0.0,0.0,0.0,0.0,0.0,0.0,0.0,0.0,0.0,0.0,0.0,0.0,0.0,0.0,0.0,0.0,0.0,0.0,0.0,0.0,0.0,0.0,-1.9295,-1.9488,-1.995,-2.1116,-2.0979,-2.0812,-2.088,-2.0949,-2.0552,-1.9561,0.0,0.0,0.0,0.0,0.0,0.0,0.0,0.0,0.0,0.0,0.0,0.0,0.0,0.0,0.0,0.0,0.0,0.0,0.0,0.0,0.0,0.0,0.0,0.0,0.0,0.0,0.0,0.0,0.0,0.0,0.0,0.0,0.0,0.0,0.0,0.0,0.0,0.0,0.0,0.0,0.0,0.0,0.0,0.0,0.0,0.0,0.0,0.0,0.0,0.0,0.0,0.0,0.0,0.0,0.0,0.0,0.0,0.0,0.0,0.0,0.0,0.0,0.0,0.0,0.0,0.0,0.0,0.0,0.0,0.0,0.0,0.0,0.0,0.0,0.0,0.0,0.0,0.0,0.0,0.0,0.0,0.0,0.0,0.0,0.0,0.0,0.0,0.0,0.0,0.0,0.0,0.0,0.0,0.0,0.0,0.0,0.0,0.0,0.0,0.0,0.0,0.0,-1.9093,-1.9415,-1.9911,-2.0959,-2.0364,-2.0167,-2.0832,-1.9982,-1.9496,0.0,0.0,0.0,0.0,0.0,0.0,0.0,0.0,0.0,0.0,0.0,0.0,0.0,0.0,0.0,0.0,0.0,0.0,0.0,0.0,0.0,0.0,0.0,0.0,0.0,0.0,0.0,0.0,0.0,0.0,0.0,0.0,0.0,0.0,0.0,0.0,0.0,0.0,0.0,0.0,0.0,0.0,0.0,0.0,0.0,0.0,0.0,0.0,0.0,0.0,0.0,0.0,0.0,0.0,0.0,0.0,0.0,0.0,0.0,0.0,0.0,0.0,0.0,0.0,0.0,0.0,0.0,0.0,0.0,0.0,0.0,0.0,0.0,0.0,0.0,0.0,0.0,0.0,0.0,0.0,0.0,0.0,0.0,0.0,0.0,0.0,0.0,0.0,0.0,0.0,0.0,0.0,0.0,0.0,0.0,0.0,0.0,0.0,0.0,0.0,0.0,0.0,0.0,-1.8467,-1.8993,-1.9547,-2.0246,-2.0023,-1.9918,-2.0115,-1.9851,-1.9534,-1.9149,0.0,0.0,0.0,0.0,0.0,0.0,0.0,0.0,0.0,0.0,0.0,0.0,0.0,0.0,0.0,0.0,0.0,0.0,0.0,0.0,0.0,0.0,0.0,0.0,0.0,0.0,0.0,0.0,0.0,0.0,0.0,0.0,0.0,0.0,0.0,0.0,0.0,0.0,0.0,0.0,0.0,0.0,0.0,0.0,0.0,0.0,0.0,0.0,0.0,0.0,0.0,0.0,0.0,0.0,0.0,0.0,0.0,0.0,0.0,0.0,0.0,0.0,0.0,0.0,0.0,0.0,0.0,0.0,0.0,0.0,0.0,0.0,0.0,0.0,0.0,0.0,0.0,0.0,0.0,0.0,0.0,0.0,0.0,0.0,0.0,0.0,0.0,0.0,0.0,0.0,0.0,0.0,0.0,0.0,0.0,0.0,0.0,0.0,0.0,0.0,0.0,0.0,-1.818,-1.8511,-1.8857,-1.9308,-1.9002,-1.8932,-1.9329,-1.9173,-1.8984,-1.883,0.0,0.0,0.0,0.0,0.0,0.0,0.0,0.0,0.0,0.0,0.0,0.0,0.0,0.0,0.0,0.0,0.0,0.0,0.0,0.0,0.0,0.0,0.0,0.0,0.0,0.0,0.0,0.0,0.0,0.0,0.0,0.0,0.0,0.0,0.0,0.0,0.0,0.0,0.0,0.0,0.0,0.0,0.0,0.0,0.0,0.0,0.0,0.0,0.0,0.0,0.0,0.0,0.0,0.0,0.0,0.0,0.0,0.0,0.0,0.0,0.0,0.0,0.0,0.0,0.0,0.0,0.0,0.0,0.0,0.0,0.0,0.0,0.0,0.0,0.0,0.0,0.0,0.0,0.0,0.0,0.0,0.0,0.0,0.0,0.0,0.0,0.0,0.0,0.0,0.0,0.0,0.0,0.0,0.0,0.0,0.0,0.0,0.0,0.0,0.0,0.0,0.0,-1.8083,-1.7973,-1.7991,-1.8256,-1.7619,-1.7593,-1.8606,-1.8236,-1.8166,-1.8713,0.0,0.0,0.0,0.0,0.0,0.0,0.0,0.0,0.0,0.0,0.0,0.0,0.0,0.0,0.0,0.0,0.0,0.0,0.0,0.0,0.0,0.0,0.0,0.0,0.0,0.0,0.0,0.0,0.0,0.0,0.0,0.0,0.0,0.0,0.0,0.0,0.0,0.0,0.0,0.0,0.0,0.0,0.0,0.0,0.0,0.0,0.0,0.0,0.0,0.0,0.0,0.0,0.0,0.0,0.0,0.0,0.0,0.0,0.0,0.0,-3.6137,-3.5957,0.0,0.0,0.0,0.0,0.0,0.0,0.0,0.0,0.0,0.0,0.0,0.0,0.0,0.0,0.0,0.0,0.0,0.0,0.0,0.0,0.0,0.0,0.0,0.0,0.0,0.0,0.0,0.0,0.0,0.0,0.0,0.0,0.0,0.0,0.0,0.0,0.0,0.0,0.0,0.0,-1.7597,-1.7666,-1.7667,-1.7487,-1.725,-1.754,-1.8612,-1.836,-1.8402,-1.9045,-1.8348,0.0,0.0,0.0,0.0,0.0,0.0,0.0,0.0,0.0,0.0,0.0,0.0,0.0,0.0,0.0,0.0,0.0,0.0,0.0,0.0,0.0,0.0,0.0,0.0,0.0,0.0,0.0,0.0,0.0,0.0,0.0,0.0,0.0,0.0,0.0,0.0,0.0,0.0,0.0,0.0,0.0,0.0,0.0,0.0,0.0,0.0,0.0,0.0,0.0,0.0,0.0,0.0,0.0,0.0,0.0,0.0,0.0,0.0,0.0,-3.7058,-3.69,0.0,0.0,0.0,0.0,0.0,0.0,0.0,0.0,0.0,0.0,0.0,0.0,0.0,0.0,0.0,0.0,0.0,0.0,0.0,0.0,0.0,0.0,0.0,0.0,0.0,0.0,0.0,0.0,0.0,0.0,0.0,0.0,0.0,0.0,0.0,0.0,0.0,0.0,0.0,0.0,-1.7585,-1.7282,-1.6955,-1.6524,-1.6091,-1.6301,-1.7402,-1.7255,-1.7458,-1.8279,-1.785,0.0,0.0,0.0,0.0,0.0,0.0,0.0,0.0,0.0,0.0,0.0,0.0,0.0,0.0,0.0,0.0,0.0,0.0,0.0,0.0,0.0,0.0,0.0,0.0,0.0,0.0,0.0,0.0,0.0,0.0,0.0,0.0,0.0,0.0,0.0,0.0,0.0,0.0,0.0,0.0,0.0,0.0,0.0,0.0,0.0,0.0,0.0,0.0,0.0,0.0,0.0,0.0,0.0,-3.6264,-3.6545,-3.6687,-3.6772,-3.7271,-3.8034,-3.773,-3.7578,-3.7463,-3.6642,0.0,0.0,0.0,0.0,0.0,0.0,0.0,0.0,0.0,0.0,0.0,0.0,0.0,0.0,0.0,0.0,0.0,0.0,0.0,0.0,0.0,0.0,-2.7463,-2.7592,-2.6653,-2.5967,-2.6859,0.0,0.0,0.0,0.0,0.0,0.0,0.0,0.0,0.0,0.0,0.0,-1.7766,-1.6869,-1.6153,-1.5723,-1.4964,-1.4951,-1.6103,-1.6046,-1.6314,-1.7202,-1.7226,-1.7358,0.0,0.0,0.0,0.0,0.0,0.0,0.0,0.0,0.0,0.0,0.0,0.0,0.0,0.0,0.0,0.0,0.0,0.0,0.0,0.0,0.0,0.0,0.0,0.0,0.0,0.0,0.0,0.0,0.0,0.0,0.0,0.0,-3.5665,-3.5634,0.0,0.0,0.0,0.0,0.0,0.0,0.0,0.0,0.0,0.0,0.0,0.0,0.0,-3.4286,-3.4392,-3.5301,-3.5879,-3.615,-3.7058,-3.759,-3.7812,-3.7978,-3.8132,-3.8271,-3.8325,0.0,-3.7935,-3.7086,0.0,0.0,0.0,0.0,0.0,0.0,0.0,0.0,0.0,0.0,0.0,0.0,0.0,0.0,0.0,0.0,0.0,0.0,0.0,0.0,0.0,0.0,-2.6421,-2.6486,-2.6355,-2.6271,-2.6463,-2.5489,-2.467,-2.4988,-2.4073,-2.2947,0.0,0.0,0.0,0.0,0.0,0.0,-1.7919,-1.6512,-1.5566,-1.5617,-1.4884,-1.4905,-1.6103,-1.6127,-1.6242,-1.6679,-1.6809,-1.6741,-1.645,-1.7685,0.0,0.0,0.0,0.0,0.0,0.0,0.0,0.0,0.0,0.0,0.0,0.0,0.0,0.0,0.0,0.0,0.0,0.0,0.0,0.0,0.0,0.0,0.0,0.0,0.0,0.0,0.0,0.0,0.0,-3.4576,-3.6341,-3.5959,-3.6093,-3.5655,0.0,0.0,0.0,0.0,0.0,0.0,0.0,0.0,0.0,-3.4147,-3.4248,-3.462,-3.5256,-3.5731,-3.5926,-3.5873,-3.6393,-3.6559,-3.6445,-3.6512,-3.6614,-3.6731,-3.6794,-3.675,-3.6626,-3.6477,-3.5972,-3.521,0.0,0.0,0.0,0.0,-3.3855,-3.3818,-3.3469,-3.3309,-3.3025,-3.1757,0.0,0.0,0.0,0.0,0.0,0.0,0.0,-2.6694,-2.6512,-2.6254,-2.6051,-2.6146,-2.5779,-2.5534,-2.6014,-2.475,-2.3795,-2.4714,-2.4284,-2.3379,-2.2167,-2.1473,0.0,0.0,0.0,-1.853,-1.7968,-1.6435,-1.5427,-1.5485,-1.4734,-1.455,-1.5358,-1.5426,-1.5614,-1.6068,-1.5869,-1.594,-1.6403,-1.7203,-1.8165,0.0,0.0,0.0,0.0,0.0,0.0,0.0,0.0,0.0,0.0,0.0,0.0,0.0,0.0,0.0,0.0,0.0,0.0,0.0,0.0,0.0,0.0,0.0,0.0,0.0,0.0,0.0,0.0,-3.523,-3.6605,-3.64,-3.6383,-3.5912,0.0,0.0,0.0,0.0,0.0,0.0,-3.3393,-3.3381,-3.3583,-3.4069,-3.4108,-3.4454,-3.5162,-3.5253,-3.52,-3.5018,-3.5116,-3.5033,-3.4783,-3.4801,-3.4889,-3.5046,-3.5046,-3.4832,-3.4543,-3.5328,-3.533,-3.4745,-3.3836,-3.3417,-3.3305,-3.3221,-3.3079,-3.2897,-3.2916,-3.2805,-3.2498,-3.1265,-3.0485,-2.9704,-2.8094,0.0,0.0,0.0,0.0,-2.5726,-2.5402,-2.5154,-2.502,-2.5132,-2.4626,-2.4274,-2.4845,-2.3841,-2.317,-2.4349,-2.4123,-2.3357,-2.2087,-2.1475,0.0,-1.9976,-1.9155,-1.8329,-1.7499,-1.6039,-1.5078,-1.5054,-1.4433,-1.423,-1.4718,-1.4851,-1.5086,-1.5457,-1.5195,-1.5353,-1.6112,-1.6787,-1.7586,-1.853,0.0,0.0,0.0,0.0,0.0,0.0,0.0,0.0,0.0,0.0,0.0,0.0,0.0,0.0,0.0,0.0,0.0,0.0,0.0,0.0,0.0,0.0,0.0,0.0,0.0,0.0,0.0,0.0,0.0,-3.7095,-3.6657,0.0,0.0,0.0,0.0,-3.3566,-3.4423,-3.4965,-3.4991,-3.4635,-3.4119,-3.3477,-3.3587,-3.3389,-3.2874,-3.3006,-3.3184,-3.3423,-3.3494,-3.3564,-3.369,-3.3742,-3.3785,-3.3805,-3.3805,-3.2997,-3.1852,-3.3657,-3.4398,-3.4349,-3.3542,-3.2842,-3.2258,-3.2137,-3.1635,-3.102,-3.083,-3.068,-3.049,-3.0092,-2.9136,-2.793,-2.6894,-2.6117,0.0,0.0,-2.4681,-2.3676,-2.3721,-2.3141,-2.2582,-2.2579,-2.2561,-2.2517,-2.2501,-2.2392,-2.2644,-2.374,-2.3065,-2.2144,-2.1613,0.0,-2.0379,-1.9298,-1.8312,-1.7279,-1.6141,-1.4984,-1.4213,-1.4068,-1.3921,-1.4022,-1.4561,-1.4845,-1.4947,-1.484,-1.5184,-1.5235,-1.4898,-1.6075,-1.7167,-1.8113,-1.9194,0.0,0.0,0.0,0.0,0.0,0.0,0.0,0.0,0.0,0.0,0.0,0.0,0.0,0.0,0.0,0.0,0.0,0.0,0.0,0.0,0.0,0.0,0.0,0.0,0.0,0.0,0.0,0.0,-3.6463,-3.6809,0.0,-3.5118,-3.4802,-3.4545,-3.4272,-3.4168,-3.4152,-3.4277,-3.3715,-3.3173,-3.2631,-3.2665,-3.2547,-3.224,-3.2308,-3.2237,-3.2076,-3.2102,-3.1942,-3.1677,-3.1685,-3.1746,-3.181,-3.1343,-3.0818,-3.0366,-3.0607,-3.0889,-3.1158,-3.0878,-3.068,-3.058,-3.0531,-3.0339,-3.0127,-3.005,-2.9573,-2.8769,-2.7427,-2.6349,-2.5462,-2.5029,-2.4729,-2.4444,-2.3992,-2.3505,-2.3016,-2.2618,-2.2298,-2.2096,-2.2139,-2.211,-2.2068,-2.2053,-2.1866,-2.1799,-2.2043,-2.194,-2.1657,-2.1182,-2.0383,-1.9552,-1.8821,-1.7272,-1.6022,-1.5566,-1.4255,-1.344,-1.3652,-1.3633,-1.3821,-1.4367,-1.4683,-1.4882,-1.4939,-1.4929,-1.5031,-1.5181,-1.5999,-1.6842,-1.7697,-1.8717,-2.0132,0.0,0.0,0.0,0.0,0.0,0.0,0.0,0.0,0.0,0.0,0.0,0.0,0.0,0.0,0.0,0.0,0.0,0.0,0.0,0.0,0.0,0.0,0.0,0.0,0.0,-3.4949,-3.5707,-3.6058,-3.6465,-3.6321,-3.531,-3.5105,-3.4881,-3.4431,-3.4029,-3.3746,-3.3599,-3.2986,-3.2329,-3.1632,-3.1642,-3.1397,-3.0814,-3.0861,-3.0737,-3.0496,-3.0253,-2.9968,-2.9608,-2.9417,-2.9344,-2.9395,-2.889,-2.8566,-2.8303,-2.7619,-2.7437,-2.765,-2.8748,-2.8973,-2.8663,-2.8696,-2.8385,-2.7938,-2.7823,-2.7282,-2.6421,-2.508,-2.4215,-2.3686,-2.3552,-2.3289,-2.298,-2.2541,-2.2232,-2.1939,-2.1499,-2.14,-2.14,-2.1368,-2.1322,-2.121,-2.0982,-2.0748,-2.048,-2.0099,-2.0478,-2.0764,-2.0334,-1.9365,-1.8434,-1.776,-1.6245,-1.5035,-1.4558,-1.3467,-1.2803,-1.2973,-1.3178,-1.3532,-1.4124,-1.4514,-1.48,-1.5,-1.4871,-1.5042,-1.5616,-1.6224,-1.6929,-1.7778,-1.9091,-2.0638,-2.2364,0.0,0.0,0.0,0.0,0.0,0.0,0.0,0.0,0.0,0.0,0.0,0.0,0.0,0.0,0.0,0.0,0.0,0.0,0.0,0.0,0.0,0.0,0.0,-3.3472,-3.4318,-3.5077,-3.595,-3.5661,-3.5339,-3.5202,-3.5187,-3.4851,-3.4061,-3.4074,-3.3858,-3.3201,-3.2655,-3.1755,-3.0428,-3.05,-2.9886,-2.8479,-2.8591,-2.8662,-2.8631,-2.7983,-2.7679,-2.7632,-2.7051,-2.6754,-2.6686,-2.667,-2.6258,-2.5602,-2.4925,-2.432,-2.415,-2.7358,-2.7736,-2.6506,-2.664,-2.5742,-2.4394,-2.4046,-2.3737,-2.3468,-2.3104,-2.2855,-2.2674,-2.2471,-2.1861,-2.1265,-2.1339,-2.0874,-2.0376,-2.0376,-2.0361,-2.0294,-2.0104,-2.0037,-1.9821,-1.9118,-1.8949,-1.8734,-1.8016,-1.87,-1.9292,-1.8979,-1.8054,-1.7009,-1.6079,-1.5243,0.0,-1.3011,-1.2557,-1.2253,-1.1996,-1.2518,-1.316,-1.3821,-1.4321,-1.4698,-1.4978,-1.5025,-1.5359,-1.609,-1.673,-1.7492,-1.8439,-2.0353,-2.1853,-2.2908,0.0,0.0,0.0,0.0,0.0,0.0,0.0,0.0,0.0,0.0,0.0,0.0,0.0,0.0,0.0,0.0,0.0,0.0,0.0,0.0,0.0,-2.979,-3.1151,-3.3328,-3.3802,-3.4253,-3.5133,-3.5106,-3.5016,-3.4981,-3.4597,-3.4254,-3.3997,-3.3137,-3.2512,-3.2333,-3.1781,-3.0883,-2.9633,-2.963,-2.9049,-2.7805,-2.7815,-2.7671,-2.732,-2.7137,-2.6895,-2.6603,-2.644,-2.6363,-2.6294,-2.5832,-2.5161,-2.4344,-2.3626,-2.2919,-2.2436,-2.3943,-2.4427,-2.4258,-2.4208,-2.3828,-2.3217,-2.2339,-2.1971,-2.1733,-2.0952,-2.0635,-2.0542,-2.0488,-2.0313,-2.0143,-2.0161,-2.0025,-1.9889,-1.9889,-1.9494,-1.9082,-1.903,-1.8633,-1.8227,-1.803,-1.7872,-1.7663,-1.7322,-1.6897,-1.682,-1.75,-1.6716,-1.5691,-1.4752,-1.3485,-1.2354,-1.1627,-1.1275,-1.1154,-1.1333,-1.1974,-1.268,-1.3401,-1.3974,-1.4485,-1.489,-1.5605,-1.6108,-1.6303,-1.755,-1.8648,-1.9532,-2.1362,-2.2479,0.0,0.0,0.0,0.0,0.0,0.0,0.0,0.0,0.0,0.0,0.0,0.0,0.0,0.0,0.0,0.0,0.0,0.0,0.0,0.0,0.0,0.0,-2.8891,-2.9966,-3.1461,-3.2264,-3.293,-3.3539,-3.3871,-3.4023,-3.3874,-3.3678,-3.3357,-3.2896,-3.2088,-3.1503,-3.1302,-3.0891,-3.0105,-2.8864,-2.882,-2.8247,-2.7019,-2.674,-2.6493,-2.6199,-2.574,-2.5375,-2.5151,-2.4912,-2.4822,-2.4792,-2.4081,-2.35,-2.2946,-2.1954,-2.1306,-2.104,0.0,0.0,0.0,0.0,-2.1586,-2.1376,-2.0703,-2.0419,-2.0249,-1.9582,-1.9281,-1.9132,-1.902,-1.8926,-1.8869,-1.8893,-1.8893,-1.8893,-1.8893,-1.8436,-1.7878,-1.7715,-1.7224,-1.6678,-1.6324,-1.6165,-1.5961,-1.5527,-1.4962,0.0,-1.5172,-1.4901,-1.4329,-1.348,-1.2324,-1.1368,-1.0855,-1.0535,-1.0494,-1.0891,-1.152,-1.2221,-1.2983,-1.3636,0.0,0.0,0.0,-1.6689,-1.7422,-1.8651,0.0,0.0,0.0,-2.2346,-2.2713,-2.4003,0.0,0.0,-2.4891,-2.4659,0.0,0.0,0.0,0.0,0.0,0.0,0.0,0.0,0.0,0.0,0.0,0.0,0.0,0.0,0.0,0.0,-2.7915,-2.8533,-2.8687,-3.0012,-3.1119,-3.1563,-3.2182,-3.2519,-3.2261,-3.2427,-3.2188,-3.1223,-3.094,-3.0591,-3.0189,-2.9997,0.0,0.0,0.0,-2.7399,-2.6163,-2.5564,-2.5223,-2.5137,-2.4055,-2.3526,-2.3511,-2.3051,-2.2822,-2.2793,-2.2068,-2.1672,-2.1463,-2.0212,-1.9649,-1.9735,-2.1039,-2.1098,-2.0348,-1.9667,-1.9368,-1.927,-1.9126,0.0,0.0,-1.8693,-1.8428,-1.8165,-1.7914,-1.7707,-1.7571,-1.7626,-1.7632,-1.7632,-1.7632,-1.7187,-1.6644,-1.629,-1.5747,-1.5108,-1.4397,-1.421,-1.3999,-1.3352,-1.3131,-1.2946,-1.263,-1.2973,-1.3015,-1.2263,-1.1546,-1.0907,-1.0432,-1.0098,-1.0072,-1.0543,-1.107,0.0,-1.2539,-1.324,-1.3865,-1.4415,-1.5671,-1.7131,-1.8798,-1.9689,-2.0124,-2.0061,-2.0891,-2.1678,-2.2383,-2.3133,-2.384,-2.4497,-2.4674,-2.4575,0.0,0.0,0.0,0.0,0.0,0.0,0.0,0.0,0.0,0.0,0.0,0.0,0.0,0.0,0.0,-2.6852,-2.6987,-2.7002,-2.7,-2.7412,-2.839,-3.0126,-3.0632,-3.0895,-3.1153,-3.0806,-3.0459,-3.0271,-2.9752,-2.9432,-2.9352,-2.885,-2.8193,-2.7412,-2.6969,-2.6257,-2.5244,-2.4709,-2.4146,-2.3612,-2.2924,0.0,-2.2494,-2.2366,-2.2347,-2.2305,-2.1682,-2.091,-2.0042,-1.9299,-1.8515,-1.7916,-1.9041,-1.9185,-1.8729,-1.8486,-1.821,-1.7933,-1.7753,-1.7612,-1.7497,-1.7381,-1.7167,-1.6933,-1.6883,-1.6765,0.0,-1.6668,-1.6655,-1.6655,-1.6655,-1.5909,-1.5126,-1.5048,-1.4212,-1.3376,-1.3224,-1.3053,-1.29,-1.2685,-1.2378,-1.2079,-1.185,-1.2205,-1.2236,-1.1388,-1.0719,-1.0111,-0.9589,-0.934,-0.9371,-0.9842,-1.0478,-1.1176,-1.1989,-1.276,-1.3472,-1.4065,-1.5945,-1.7526,-1.8601,-1.9397,-1.9786,-1.9787,-2.0528,-2.0966,-2.1077,-2.1863,-2.259,-2.3276,-2.4046,-2.4256,0.0,0.0,0.0,0.0,0.0,0.0,0.0,0.0,0.0,0.0,0.0,-2.4562,-2.4927,0.0,-2.5459,-2.5802,-2.5938,-2.598,-2.5872,-2.5935,-2.6689,-2.8533,-2.9084,-2.9352,-2.9282,-2.921,-2.9039,-2.8771,-2.8383,-2.8235,-2.8444,-2.7799,-2.7162,-2.6526,-2.5991,-2.5311,-2.4565,-2.3725,-2.3138,-2.2791,-2.1948,-2.1533,-2.1492,-2.1565,-2.1612,-2.1534,-2.0552,-1.9791,-1.9208,-1.8173,-1.7323,-1.6744,-1.728,-1.7518,-1.7524,-1.7374,-1.7146,-1.6946,-1.6833,-1.6714,-1.6574,-1.645,-1.6265,-1.6071,-1.5808,-1.5654,-1.5542,-1.5463,-1.5441,-1.5404,-1.5199,-1.4529,-1.3811,-1.3482,-1.2733,-1.2085,-1.2067,-1.197,-1.1854,-1.1726,-1.1542,-1.1319,-1.1057,-1.1196,-1.1183,-1.0711,-1.0163,-0.9643,-0.921,-0.8941,-0.8978,-0.9449,-1.0033,-1.0693,-1.1432,-1.244,-1.3466,-1.4446,-1.5569,-1.6787,-1.8105,-1.8532,-1.8918,-1.9298,-1.9682,-2.006,-2.0403,-2.0739,-2.1234,-2.1853,-2.2223,-2.2852,0.0,0.0,0.0,0.0,0.0,0.0,0.0,-2.4826,-2.4592,-2.3985,-2.3849,-2.3881,-2.4038,-2.4484,-2.4848,-2.4884,-2.5217,-2.5411,-2.5232,-2.5158,-2.56,-2.6864,-2.7545,-2.777,-2.7396,-2.7668,-2.7677,-2.7159,-2.7015,-2.7043,-2.7274,-2.6596,-2.5942,-2.5386,-2.4805,-2.4223,-2.3628,-2.262,-2.2092,-2.1962,-2.1029,-2.0622,-2.0646,-2.0771,-2.082,-2.068,-1.924,-1.8493,-1.8199,-1.6926,-1.6204,-1.5896,-1.5808,-1.5996,-1.6333,-1.6281,-1.6151,-1.5996,-1.5996,-1.5874,-1.5742,-1.5589,-1.5399,-1.5186,-1.4812,-1.4594,-1.4456,-1.4352,-1.4329,-1.4243,-1.3839,-1.3334,-1.2789,-1.2158,-1.1662,-1.1305,-1.1145,-1.1149,-1.1115,-1.0841,-1.0755,-1.063,-1.0322,-1.0273,-1.0252,-1.0256,-0.9756,-0.9293,-0.9036,-0.8704,-0.8673,-0.9112,-0.9646,-1.0272,-1.1044,-1.2158,-1.332,-1.4435,-1.4821,-1.5625,-1.6983,-1.7389,-1.7882,-1.8485,-1.8673,-1.9048,-1.9654,-1.9511,-1.9779,-2.039,-2.0177,-2.1051,-2.5987,-2.5361,-2.4728,-2.447,-2.3824,-2.3179,0.0,-2.2107,-2.1738,-2.1881,-2.1901,-2.2244,-2.3298,-2.3743,-2.4221,-2.5009,-2.521,-2.5242,-2.52,-2.5031,-2.4988,-2.5189,-2.5768,-2.6154,-2.6123,-2.6285,-2.627,-2.584,-2.5953,-2.5859,-2.5443,-2.4806,-2.4261,-2.3772,-2.317,-2.2552,-2.1903,-2.1399,-2.0937,-2.0442,-2.0073,-1.9978,-2.0093,-2.0245,-2.0169,-1.9864,-1.8253,-1.7022,-1.609,-1.5526,-1.5255,-1.5164,-1.4754,-1.4617,-1.4731,-1.5243,-1.5209,-1.488,-1.488,-1.4755,-1.4605,-1.4558,-1.4292,-1.3988,-1.3928,-1.3834,-1.3729,-1.3705,-1.3705,-1.3601,-1.3221,-1.276,-1.2267,-1.1776,-1.155,-1.1345,-1.0865,-1.0992,-1.1025,-1.0469,-1.0225,-1.0059,-0.9892,-0.9823,-0.9853,-1.0099,-0.9459,-0.8977,-0.9003,-0.8496,-0.8294,-0.8631,-0.9155,-0.9919,-1.1002,-1.1782,-1.237,-1.2769,-1.3734,-1.4413,-1.4664,-1.6054,-1.6893,-1.7026,-1.7634,-1.7963,-1.8065,-1.7928,-1.8223,-1.8932,-1.8672,-1.9298,-2.3905,-2.3219,-2.2632,-2.2119,-2.1749,-2.121,-2.0342,-2.0044,-2.0018,-2.0175,-2.0544,-2.1183,-2.2221,-2.2928,-2.3705,-2.4648,-2.5105,-2.5411,-2.5591,-2.5411,-2.5242,-2.5242,-2.5158,-2.5133,-2.519,-2.5155,-2.5146,-2.5128,-2.4992,-2.4778,-2.4474,-2.39,-2.3406,-2.2923,-2.2339,-2.1738,-2.1206,-2.0722,-2.0269,-1.9839,-1.9427,-1.9303,-1.9422,-1.9408,-1.8871,-1.79,-1.7236,-1.6195,-1.4971,-1.4777,-1.4558,-1.4326,-1.4116,-1.3952,-1.3871,-1.4363,-1.4398,-1.4176,-1.4176,-1.4059,-1.3928,-1.3847,-1.3705,-1.3549,-1.3426,-1.3354,-1.3282,-1.32,-1.3176,-1.304,-1.235,-1.2051,-1.1778,-1.1306,-1.1114,-1.102,-1.0995,-1.0831,-1.0529,-1.0054,-0.967,-0.9357,-0.9188,-0.9128,-0.9148,-0.9259,-0.8903,-0.8644,-0.8765,-0.8211,-0.8013,-0.854,-0.9048,-0.9662,-1.0449,-1.1025,-1.1498,-1.1835,-1.2416,-1.2997,-1.3587,-1.4365,-1.519,-1.6082,-1.6456,-1.6795,-1.7093,-1.697,-1.7007,-1.7177,-1.6995,-1.7124,-2.1709,-2.0914,-2.0217,-1.9703,-1.9359,-1.8929,-1.798,-1.7941,-1.8134,-1.8395,-1.9093,-2.0014,-2.1195,-2.2227,-2.3256,-2.4327,-2.5137,-2.5706,-2.601,-2.5957,-2.5832,-2.5695,-2.5158,-2.4766,-2.4783,-2.4379,-2.4213,-2.4332,-2.3951,-2.3544,-2.3189,-2.2811,-2.2318,-2.1709,-2.1287,-2.0751,-2.0152,-1.9844,-1.9443,-1.895,-1.8709,-1.8614,-1.8629,-1.8339,-1.7531,-1.6378,-1.6142,-1.5359,-1.4233,-1.4163,-1.3952,-1.3692,-1.3631,-1.3488,-1.3358,-1.361,-1.3658,-1.3634,-1.3634,-1.3549,-1.3464,-1.3358,-1.3286,-1.3238,-1.3099,-1.3036,-1.3027,-1.2929,-1.2905,-1.2729,-1.1966,-1.177,-1.1631,-1.1159,-1.1012,-1.1006,-1.1028,-1.0658,-1.0163,-0.9624,-0.9139,-0.8773,-0.8533,-0.8513,-0.8513,-0.8513,-0.8299,-0.8211,-0.8367,-0.7872,-0.7729,-0.8291,-0.8767,-0.9242,-0.9703,-1.017,-1.0584,-1.0915,-1.1164,-1.1629,-1.2331,-1.2773,-1.3532,-1.463,-1.5121,-1.5546,-1.5938,-1.5948,-1.5876,-1.5721,-1.552,-1.5316,-1.9725,-1.8683,-1.7548,-1.7338,-1.6584,-1.5799,-1.5563,-1.5528,-1.5731,-1.6445,-1.7382,-1.858,-2.0322,-2.1632,-2.2877,-2.4274,-2.5263,-2.603,-2.6445,-2.6715,-2.6674,-2.6227,-2.5779,-2.5316,-2.4925,-2.4073,-2.3427,-2.3186,-2.2706,-2.2061,-2.1122,-2.1069,-2.0631,-1.9724,-1.9681,-1.9222,-1.8283,-1.8514,-1.8185,-1.7267,-1.7859,-1.7995,-1.7738,-1.6975,-1.6356,-1.5786,-1.5014,-1.4348,-1.3797,-1.3539,-1.342,-1.3396,-1.3186,-1.3133,-1.3085,-1.2978,-1.3045,-1.3218,-1.3218,-1.3166,-1.3109,-1.3109,-1.3027,-1.2905,-1.2905,-1.2905,-1.2905,-1.2905,-1.2905,-1.2798,-1.2301,-1.2184,-1.2054,-1.1503,-1.1569,-1.1556,-1.0786,-1.049,-1.0116,-0.9194,-0.8688,-0.8324,-0.8062,-0.8021,-0.8021,-0.8021,-0.7738,-0.76,-0.7804,-0.7521,-0.7413,-0.77,-0.8145,-0.854,-0.8816,-0.9269,-0.9598,-0.9741,-1.012,-1.0381,-1.048,-1.1496,-1.2119,-1.2305,-1.3584,-1.4252,-1.4266,-1.4658,-1.4806,-1.4727,-1.4399,-1.4208,-1.7513,-1.6426,-1.5283,-1.4656,-1.3951,-1.3332,-1.2947,-1.3247,-1.3878,-1.4835,-1.621,-1.7716,-1.9147,-2.0908,-2.2473,-2.3607,-2.4946,-2.6019,-2.6445,-2.6715,-2.685,-2.6674,-2.6135,-2.5633,-2.5327,-2.396,-2.3122,-2.3156,-2.232,-2.1441,-2.0651,-2.0598,-2.0181,-1.9295,-1.9274,-1.8825,-1.7883,-1.7965,-1.7592,-1.6797,-1.7106,-1.7151,-1.6944,-1.6379,-1.5775,-1.5112,-1.4561,-1.3957,-1.334,-1.3234,-1.3162,-1.3055,-1.3002,-1.2964,-1.2954,-1.2929,-1.2944,-1.3007,-1.3007,-1.292,-1.2832,-1.2832,-1.2676,-1.2505,-1.2505,-1.2431,-1.2382,-1.2382,-1.2382,-1.2254,-1.1794,-1.1659,-1.1621,-1.1435,-1.1323,-1.1238,-1.1099,-1.0403,-0.9626,-0.9043,-0.8323,-0.7759,-0.7614,-0.76,-0.7528,-0.7311,-0.7208,-0.7137,-0.7083,-0.6849,-0.6813,-0.7145,-0.7467,-0.7806,-0.8111,-0.8487,-0.8819,-0.9093,-0.931,-0.9533,-0.9728,-1.0174,-1.0664,-1.119,-1.175,-1.2195,-1.253,-1.2981,-1.3145,-1.3044,-1.3144,-1.3102,-1.5378,-1.4228,-1.3063,-1.2464,-1.1804,-1.1272,-1.1082,-1.1619,-1.2441,-1.3499,-1.5127,-1.6788,-1.8141,-2.0096,-2.18,-2.2736,-2.4382,-2.5642,-2.5988,-2.6539,-2.685,-2.6757,-2.6302,-2.5874,-2.5538,-2.3908,-2.2941,-2.2981,-2.1713,-2.0669,-2.0042,-1.9849,-1.9424,-1.8728,-1.8555,-1.8119,-1.7336,-1.7257,-1.6928,-1.6428,-1.6467,-1.6467,-1.6407,-1.5684,-1.5106,-1.4615,-1.3993,-1.3481,-1.3036,-1.3036,-1.2978,-1.2905,-1.2905,-1.2905,-1.2881,-1.2856,-1.2832,-1.2832,-1.2832,-1.2735,-1.2603,-1.2529,-1.2348,-1.215,-1.2101,-1.2026,-1.1952,-1.1952,-1.1952,-1.1888,-1.1586,-1.1514,-1.149,-1.1393,-1.12,-1.1025,-1.0939,-1.0044,-0.9175,-0.8772,-0.7982,-0.7363,-0.7265,-0.7265,-0.7176,-0.6976,-0.6815,-0.6665,-0.6511,-0.6323,-0.6321,-0.658,-0.6829,-0.7118,-0.7443,-0.7744,-0.8027,-0.8315,-0.8487,-0.8657,-0.8851,-0.9002,-0.929,-0.9797,-1.0129,-1.0468,-1.0799,-1.1363,-1.1602,-1.1526,-1.1773,-1.1786,-1.3387,-1.208,-1.0948,-1.0733,-1.01,-0.9616,-0.992,-1.0596,-1.1468,-1.2484,-1.4118,-1.5839,-1.7358,-1.9276,-2.0863,-2.181,-2.3521,-2.484,-2.5105,-2.6093,-2.6715,-2.6445,-2.6268,-2.5935,-2.5453,-2.3877,-2.2788,-2.2554,-2.0888,-1.9727,-1.9307,-1.8867,-1.8437,-1.8018,-1.7631,-1.721,-1.6738,-1.6423,-1.6217,-1.6085,-1.5961,-1.5961,-1.6026,-1.4907,-1.4384,-1.4334,-1.3327,-1.2905,-1.2905,-1.2905,-1.2905,-1.2905,-1.2905,-1.2905,-1.2881,-1.2759,-1.27,-1.2686,-1.2652,-1.2578,-1.2431,-1.215,-1.1952,-1.1794,-1.1678,-1.1619,-1.1619,-1.1619,-1.1619,-1.1619,-1.1619,-1.1619,-1.1544,-1.1293,-1.1124,-1.0863,-1.03,-0.9477,-0.8741,-0.8365,-0.7686,-0.7146,-0.7006,-0.6979,-0.6979,-0.6979,-0.6526,-0.6168,-0.6113,-0.5969,-0.5929,-0.6068,-0.626,-0.6504,-0.6839,-0.7041,-0.724,-0.746,-0.7642,-0.7792,-0.7859,-0.7982,-0.8086,-0.8122,-0.8765,-0.9085,-0.9107,-0.9833,-1.0178,-1.021,-1.0283,-1.034,-1.1496,-1.0459,-0.9614,-0.9236,-0.8993,-0.8931,-0.9304,-1.0197,-1.1231,-1.2453,-1.4158,-1.5731,-1.6893,-1.8918,-2.0565,-2.1159,-2.2702,-2.3973,-2.4423,-2.502,-2.5454,-2.5527,-2.5359,-2.4978,-2.4378,-2.3268,-2.2392,-2.188,-2.0623,-1.9727,-1.9307,-1.901,-1.8646,-1.8255,-1.7929,-1.7556,-1.7075,-1.6347,-1.5927,-1.5817,-1.5769,-1.5691,-1.5555,-1.4614,-1.4167,-1.4118,-1.3267,-1.2905,-1.2905,-1.2905,-1.2905,-1.2905,-1.2905,-1.2905,-1.2881,-1.2759,-1.2627,-1.2505,-1.2101,-1.2002,-1.2002,-1.1753,-1.1352,-1.0972,-1.0786,-1.0592,-1.0431,-1.0431,-1.0431,-1.0431,-1.0431,-1.0431,-1.0431,-1.0354,-1.0226,-1.0053,-0.9795,-0.9067,-0.8381,-0.82,-0.7515,-0.6893,-0.6668,-0.6717,-0.6745,-0.6647,-0.6298,-0.6102,-0.6229,-0.5822,-0.5599,-0.5787,-0.5889,-0.6052,-0.6283,-0.6452,-0.6688,-0.7035,-0.711,-0.7181,-0.7296,-0.733,-0.7306,-0.7233,-0.7448,-0.7608,-0.7714,-0.8298,-0.872,-0.8967,-0.9292,-0.9451,-1.0255,-0.9363,-0.8644,-0.8503,-0.8482,-0.8648,-0.9272,-1.0294,-1.1458,-1.2581,-1.4127,-1.5584,-1.6401,-1.8102,-1.9619,-2.0113,-2.1739,-2.3028,-2.3343,-2.409,-2.4615,-2.4743,-2.4658,-2.4343,-2.3784,-2.2878,-2.2149,-2.164,-2.0387,-1.9541,-1.9297,-1.8868,-1.8428,-1.7992,-1.7793,-1.7386,-1.6799,-1.6262,-1.5933,-1.5778,-1.573,-1.5575,-1.5381,-1.4494,-1.4104,-1.4065,-1.3242,-1.2905,-1.2905,-1.2905,-1.2905,-1.2905,-1.2905,-1.2905,-1.2856,-1.2627,-1.2431,-1.2224,-1.1578,-1.1293,-1.1217,-1.0989,-1.0693,-1.036,-1.0113,-0.995,-0.9814,-0.9814,-0.9814,-0.9814,-0.9814,-0.9814,-0.9814,-0.9762,-0.9692,-0.9562,-0.9387,-0.8753,-0.807,-0.7575,-0.705,-0.6617,-0.6398,-0.6383,-0.6346,-0.6219,-0.5961,-0.5793,-0.5853,-0.5571,-0.5417,-0.555,-0.5606,-0.5686,-0.5828,-0.5936,-0.6145,-0.6482,-0.6562,-0.665,-0.6787,-0.6674,-0.6538,-0.6371,-0.6411,-0.6449,-0.6502,-0.7039,-0.7434,-0.7683,-0.8079,-0.8313,-0.941,-0.8544,-0.7959,-0.816,-0.8303,-0.8679,-0.968,-1.0845,-1.2059,-1.3115,-1.4404,-1.55,-1.6091,-1.7326,-1.8478,-1.9104,-2.0774,-2.2092,-2.2344,-2.3363,-2.4067,-2.4067,-2.4067,-2.3864,-2.3326,-2.262,-2.1926,-2.1392,-2.0102,-1.9287,-1.9287,-1.8676,-1.8141,-1.7708,-1.7592,-1.7173,-1.641,-1.6257,-1.6104,-1.5931,-1.5778,-1.5604,-1.5381,-1.4494,-1.4104,-1.4065,-1.3242,-1.2905,-1.2905,-1.2905,-1.2905,-1.2905,-1.2905,-1.2905,-1.2856,-1.248,-1.2224,-1.1952,-1.1175,-1.0667,-1.0326,-1.0172,-1.0017,-0.9836,-0.9595,-0.9517,-0.9484,-0.9484,-0.9484,-0.9484,-0.9484,-0.9484,-0.9465,-0.9335,-0.9309,-0.9263,-0.9035,-0.8486,-0.7765,-0.6841,-0.6489,-0.6282,-0.6099,-0.597,-0.5843,-0.5676,-0.5516,-0.5364,-0.5219,-0.5238,-0.5284,-0.5331,-0.5338,-0.5363,-0.5412,-0.5503,-0.5658,-0.5886,-0.6054,-0.6177,-0.6286,-0.6044,-0.5824,-0.5618,-0.5583,-0.5557,-0.555,-0.5996,-0.6316,-0.6527,-0.6901,-0.7147,-0.84,-0.7777,-0.7337,-0.7689,-0.8405,-0.9353,-1.0596,-1.1979,-1.3364,-1.4781,-1.5572,-1.6197,-1.6757,-1.7567,-1.8381,-1.9229,-2.0483,-2.1609,-2.2296,-2.2916,-2.3276,-2.3276,-2.3276,-2.3004,-2.2269,-2.2048,-2.1437,-2.0263,-1.9646,-1.9287,-1.9287,-1.879,-1.8342,-1.8092,-1.8193,-1.7803,-1.6881,-1.6751,-1.6467,-1.6056,-1.5933,-1.5701,-1.5381,-1.4494,-1.4104,-1.4065,-1.3242,-1.2905,-1.2905,-1.2905,-1.2905,-1.2905,-1.2905,-1.2905,-1.2856,-1.2578,-1.2249,-1.1852,-1.115,-1.0539,-1.0025,-0.9777,-0.9543,-0.9316,-0.9166,-0.9035,-0.8936,-0.8936,-0.8936,-0.8936,-0.8936,-0.8936,-0.8929,-0.891,-0.891,-0.8883,-0.8831,-0.8287,-0.7503,-0.6616,-0.6239,-0.5911,-0.5383,-0.5356,-0.5301,-0.4938,-0.4953,-0.4941,-0.4742,-0.4908,-0.5039,-0.4985,-0.4985,-0.4985,-0.5001,-0.5161,-0.5318,-0.5407,-0.5658,-0.5756,-0.5658,-0.5511,-0.5352,-0.5211,-0.4989,-0.5012,-0.5272,-0.526,-0.5543,-0.6096,-0.6283,-0.6477,-0.8007,-0.7598,-0.7413,-0.7985,-0.8902,-1.0088,-1.165,-1.3243,-1.4689,-1.5882,-1.6568,-1.6996,-1.7087,-1.7672,-1.8308,-1.8794,-2.0148,-2.1321,-2.1864,-2.2606,-2.3091,-2.3091,-2.2906,-2.2568,-2.1953,-2.168,-2.1134,-2.0123,-1.9688,-1.9308,-1.8965,-1.8452,-1.8133,-1.8048,-1.7977,-1.7616,-1.7011,-1.6797,-1.6495,-1.6114,-1.5904,-1.5662,-1.5381,-1.4494,-1.4104,-1.4065,-1.3242,-1.2905,-1.2905,-1.2905,-1.2905,-1.2905,-1.2905,-1.2905,-1.2856,-1.2529,-1.2175,-1.1794,-1.1049,-1.0462,-0.9947,-0.9517,-0.9263,-0.9087,-0.8929,-0.8857,-0.8804,-0.8804,-0.8804,-0.8804,-0.8804,-0.8804,-0.8804,-0.8804,-0.8804,-0.8698,-0.8303,-0.7866,-0.7247,-0.6284,-0.5798,-0.5388,-0.4923,-0.4814,-0.467,-0.4331,-0.4394,-0.44,-0.4157,-0.442,-0.4643,-0.4688,-0.4692,-0.4697,-0.4688,-0.4779,-0.4907,-0.5074,-0.522,-0.5263,-0.5248,-0.5037,-0.4832,-0.4582,-0.4459,-0.4455,-0.4577,-0.4642,-0.4914,-0.5378,-0.5507,-0.5744,-0.8044,-0.7805,-0.7825,-0.8597,-0.9665,-1.0968,-1.2796,-1.4501,-1.5928,-1.6935,-1.7561,-1.7906,-1.7647,-1.8004,-1.8463,-1.8659,-2.0064,-2.1274,-2.1583,-2.2471,-2.3091,-2.3091,-2.2721,-2.2344,-2.1924,-2.1494,-2.0879,-2.0145,-1.9627,-1.9136,-1.863,-1.8308,-1.8075,-1.7904,-1.776,-1.7469,-1.7011,-1.674,-1.6428,-1.6114,-1.5836,-1.5575,-1.5381,-1.4494,-1.4104,-1.4065,-1.3242,-1.2905,-1.2905,-1.2905,-1.2905,-1.2905,-1.2905,-1.2905,-1.2856,-1.2505,-1.22,-1.1852,-1.1124,-1.0539,-0.9999,-0.9498,-0.9185,-0.8982,-0.8831,-0.8804,-0.8804,-0.8804,-0.8804,-0.8804,-0.8804,-0.8804,-0.8804,-0.8804,-0.8804,-0.8592,-0.7867,-0.7529,-0.7036,-0.5974,-0.5383,-0.4927,-0.4556,-0.4338,-0.4124,-0.3854,-0.3933,-0.3943,-0.3694,-0.395,-0.4211,-0.4325,-0.4393,-0.4417,-0.4378,-0.442,-0.454,-0.4712,-0.4779,-0.4817,-0.4848,-0.4625,-0.4377,-0.4102,-0.404,-0.4002,-0.3989,-0.4204,-0.4444,-0.4688,-0.4857,-0.512,-0.8598,-0.8532,-0.8597,-0.9534,-1.081,-1.2239,-1.3828,-1.5557,-1.7163,-1.8287,-1.8705,-1.8851,-1.8838,-1.8887,-1.9093,-1.9675,-2.0583,-2.1423,-2.2035,-2.2708,-2.3091,-2.3091,-2.2721,-2.2344,-2.1924,-2.1494,-2.0762,-1.973,-1.8989,-1.8582,-1.8508,-1.8821,-1.8642,-1.7915,-1.8158,-1.7879,-1.7011,-1.674,-1.6428,-1.6114,-1.5836,-1.5575,-1.5381,-1.4494,-1.4104,-1.4065,-1.3242,-1.2905,-1.2905,-1.2905,-1.2905,-1.2905,-1.2905,-1.2905,-1.2881,-1.2725,-1.2431,-1.2026,-1.1578,-1.0964,-1.0293,-0.9873,-0.9413,-0.8982,-0.8831,-0.8804,-0.8804,-0.8804,-0.8804,-0.8804,-0.8804,-0.8804,-0.8804,-0.8804,-0.8804,-0.8592,-0.7867,-0.7433,-0.6925,-0.5903,-0.5241,-0.4692,-0.4218,-0.4038,-0.3843,-0.3586,-0.3701,-0.3754,-0.3555,-0.365,-0.3765,-0.3767,-0.405,-0.4149,-0.3969,-0.4178,-0.4277,-0.4184,-0.435,-0.4413,-0.436,-0.422,-0.4128,-0.4107,-0.3854,-0.3789,-0.3902,-0.4001,-0.4148,-0.4357,-0.4602,-0.4812,-0.8828,-0.9054,-0.953,-1.0513,-1.1877,-1.3455,-1.5255,-1.6892,-1.8278,-1.9222,-1.9627,-1.9715,-1.9399,-1.9478,-1.9687,-2.0096,0.0,-2.1575,-2.2121,-2.2708,-2.3091,-2.3091,-2.2549,-2.207,-2.1904,-2.125,-2.0516,-1.9776,-1.918,-1.8741,-1.8516,-1.865,-1.8367,-1.7502,-1.7698,-1.7384,-1.6457,-1.6275,-1.6085,-1.5865,-1.5633,-1.5478,-1.5381,-1.4494,-1.4104,-1.4065,-1.3242,-1.2856,-1.2783,-1.2783,-1.2725,-1.2652,-1.2652,-1.271,-1.2759,-1.2627,-1.2431,-1.215,-1.1753,-1.1217,-1.0608,-1.0095,-0.9673,-0.9309,-0.9113,-0.8982,-0.891,-0.891,-0.8857,-0.8804,-0.8804,-0.8804,-0.8804,-0.8804,-0.8804,-0.8592,-0.7808,-0.7368,-0.6801,-0.5689,-0.4971,-0.4429,-0.4038,-0.384,-0.3655,-0.3458,-0.3541,-0.3561,-0.34,-0.3561,-0.3662,-0.3585,-0.3766,-0.3878,-0.3846,-0.3943,-0.399,-0.3991,-0.4061,-0.4056,-0.3943,-0.388,-0.384,-0.3799,-0.3773,-0.3795,-0.3841,-0.3952,-0.4077,-0.425,-0.4362,-0.4518,-1.0042,-1.0431,-1.0994,-1.2059,-1.3317,-1.4761,-1.6538,-1.7924,-1.9094,-1.9863,-2.0216,-2.0303,-1.9951,-2.0029,-2.0154,0.0,0.0,-2.1713,-2.2084,-2.2673,-2.3091,-2.3091,-2.2402,-2.1885,-2.1885,-2.0938,-2.008,-1.9573,-1.9134,-1.8774,-1.8448,-1.8448,-1.8038,-1.7168,-1.7274,-1.6901,-1.6048,-1.5912,-1.5778,-1.5701,-1.5507,-1.541,-1.5381,-1.4494,-1.4104,-1.4065,-1.3242,-1.2832,-1.27,-1.2652,-1.2529,-1.2382,-1.2382,-1.2431,-1.2455,-1.2406,-1.2298,-1.215,-1.1794,-1.1368,-1.0871,-1.036,-0.9991,-0.9673,-0.9446,-0.9192,-0.9008,-0.9008,-0.891,-0.8804,-0.8804,-0.8804,-0.8804,-0.8804,-0.8804,-0.8593,-0.7869,-0.74,-0.6772,-0.568,-0.4921,-0.4364,-0.4016,-0.3774,-0.3585,-0.3478,-0.3503,-0.3486,-0.3398,-0.3558,-0.3626,-0.3549,-0.3611,-0.3687,-0.3745,-0.3732,-0.3762,-0.381,-0.3818,-0.3774,-0.3682,-0.3682,-0.3658,-0.3665,-0.3764,-0.3816,-0.386,-0.3987,-0.4112,-0.4195,-0.4262,-0.4365,-1.2764,-1.2967,-1.3236,-1.4382,-1.5326,-1.6296,-1.7416,-1.8519,-1.946,-2.0147,-2.0459,-2.0605,-2.0605,-2.0605,-2.0605,-2.0615,-2.1309,0.0,-2.1894,-2.2574,-2.3091,-2.3091,-2.2402,-2.1885,-2.1885,-2.0524,-1.9429,-1.8943,-1.8654,-1.8448,-1.8303,-1.8303,-1.7906,-1.7032,-1.7138,-1.6779,-1.5924,-1.5769,-1.5701,-1.5701,-1.5507,-1.541,-1.5381,-1.4494,-1.4104,-1.4065,-1.3242,-1.2832,-1.2686,-1.2554,-1.2348,-1.2101,-1.2101,-1.2026,-1.1927,-1.2051,-1.2026,-1.1877,-1.1753,-1.1452,-1.1049,-1.0769,-1.0385,-0.9973,-0.9851,-0.9427,-0.9008,-0.9008,-0.891,-0.8804,-0.8804,-0.8804,-0.8804,-0.8804,-0.8804,-0.8646,-0.812,-0.753,-0.6872,-0.6056,-0.5192,-0.4487,-0.4152,-0.388,-0.3678,-0.36,-0.36,-0.36,-0.3597,-0.36,-0.36,-0.36,-0.36,-0.36,-0.36,-0.36,-0.36,-0.3604,-0.3604,-0.3604,-0.3604,-0.3604,-0.3668,-0.3785,-0.3792,-0.3866,-0.3994,-0.4146,-0.4194,-0.4197,-0.4392,-0.4405,-1.3825,-1.4276,-1.4789,-1.5435,-1.6386,-1.7425,-1.8376,-1.9323,-2.0108,-2.0625,-2.0974,-2.1324,-2.1645,-2.1677,-2.1888,-2.2514,-2.2577,-2.2676,-2.2972,-2.3065,-2.2984,-2.2701,-2.1921,-2.1201,-2.0596,-1.9991,-1.9419,-1.8943,-1.8654,-1.8448,-1.8303,-1.8303,-1.784,-1.6821,-1.6823,-1.6432,-1.5575,-1.5507,-1.5478,-1.5478,-1.5439,-1.541,-1.5381,-1.4494,-1.4104,-1.4065,-1.3242,-1.2725,-1.2431,-1.2274,-1.1952,-1.1553,-1.1444,-1.1452,-1.1502,-1.1553,-1.1528,-1.1469,-1.1352,-1.1023,-1.065,-1.0308,-0.9991,-0.9699,-0.9577,-0.9342,-0.9113,-0.891,-0.8831,-0.8804,-0.8804,-0.8804,-0.8804,-0.8804,-0.8804,-0.8593,-0.7882,-0.743,-0.6872,-0.583,-0.5145,-0.4605,-0.4174,-0.388,-0.3678,-0.36,-0.3604,-0.3604,-0.3604,-0.3604,-0.3604,-0.3604,-0.3604,-0.3604,-0.3604,-0.3604,-0.3604,-0.3604,-0.3696,-0.3747,-0.3747,-0.3826,-0.39,-0.3944,-0.4024,-0.4102,-0.4123,-0.4324,-0.4395,-0.4395,-0.4336,-0.4218,-1.6185,-1.648,-1.6944,-1.7358,-1.8043,-1.878,-1.9362,-2.005,-2.0615,-2.0867,-2.1375,-2.1867,-2.2133,-2.2417,-2.2725,-2.3186,-2.3108,-2.3086,-2.3269,-2.3177,-2.2877,-2.2344,-2.1619,-2.0781,-1.9775,-1.9563,-1.9232,-1.8611,-1.8394,-1.8279,-1.8202,-1.8178,-1.775,-1.6726,-1.6697,-1.6278,-1.542,-1.541,-1.541,-1.541,-1.541,-1.541,-1.5381,-1.4494,-1.4104,-1.4065,-1.3242,-1.2676,0.0,-1.2101,-1.1653,-1.1074,-1.0922,-1.0812,-1.0753,-1.0804,-1.0804,-1.0795,-1.0761,-1.0565,-1.029,-1.0154,-0.9888,-0.9562,-0.9309,-0.9185,-0.9087,-0.8857,-0.8804,-0.8804,-0.8804,-0.8804,-0.8804,-0.8804,-0.8804,-0.8599,-0.7901,-0.7473,-0.6907,-0.5918,-0.5274,-0.4718,-0.4258,-0.3946,-0.3726,-0.3622,-0.3604,-0.3604,-0.3604,-0.3604,-0.3604,-0.3604,-0.3604,-0.3624,-0.3679,-0.3682,-0.3682,-0.3682,-0.3795,-0.3877,-0.3877,-0.3944,-0.4021,-0.4078,-0.4147,-0.4247,-0.4301,-0.4447,-0.4491,-0.4491,-0.4245,-0.4024,0.0,-1.9356,-1.9404,-1.9855,-2.0168,-2.0323,-2.0372,-2.0683,0.0,-2.0945,-2.1664,-2.2273,-2.2304,-2.2844,-2.3286,-2.3124,-2.3205,-2.3247,-2.3036,-2.3024,-2.2744,-2.1934,-2.1455,-2.0693,-1.9453,-1.9307,-1.8945,-1.8115,-1.8027,-1.8008,-1.8008,-1.8008,-1.7617,-1.6726,-1.6697,-1.6278,-1.542,-1.541,-1.541,-1.541,-1.541,-1.541,-1.5381,-1.4494,-1.4104,-1.4065,-1.3242,-1.2676,-1.2274,-1.2002,-1.1418,-1.0693,-1.0547,-1.0198,-0.9814,-0.9943,-0.9961,-0.9994,-1.0087,-1.0051,-0.9973,-1.0162,-0.9914,-0.9491,-0.9113,-0.8982,-0.8982,-0.8831,-0.8804,-0.8804,-0.8804,-0.8804,-0.8804,-0.8804,-0.8791,-0.8613,-0.8062,-0.7536,-0.6955,-0.6184,-0.547,-0.4854,-0.4364,-0.4078,-0.384,-0.3622,-0.3604,-0.3604,-0.3604,-0.3604,-0.3607,-0.3617,-0.3617,-0.3675,-0.3795,-0.3799,-0.3795,-0.3809,-0.3951,-0.4011,-0.4011,-0.4021,-0.4092,-0.4207,-0.421,-0.4301,-0.4491,-0.4491,-0.4491,-0.4491,-0.4159,-0.3852,-2.151,0.0,-2.0479,-2.075,-2.1135,-2.1375,0.0,-2.1405,0.0,0.0,0.0,0.0,-2.3353,-2.3958,-2.4527,-2.4911,-2.4524,-2.4171,-2.4129,-2.3155,-2.2138,-2.1445,-2.0996,-2.0469,-1.9824,-1.9473,-1.9062,-1.849,-1.8159,-1.8008,-1.8008,-1.8008,-1.7617,-1.6726,-1.6697,-1.6278,-1.542,-1.541,-1.541,-1.541,-1.541,-1.541,-1.5381,-1.4494,-1.4104,-1.4065,-1.3242,-1.2676,-1.2274,-1.2002,-1.1502,-1.082,-1.047,-1.0187,-0.994,-0.9769,-0.9684,-0.9692,-0.9621,-0.9491,-0.9368,-0.9323,-0.9244,-0.9113,-0.891,-0.891,-0.8982,-0.8831,-0.8804,-0.8804,-0.8804,-0.8804,-0.8804,-0.8804,-0.8637,-0.8315,-0.7688,-0.7203,-0.6612,-0.5671,-0.5227,-0.4818,-0.4236,-0.4016,-0.384,-0.3622,-0.3604,-0.3604,-0.3604,-0.3604,-0.3645,-0.3754,-0.3741,-0.3802,-0.3955,-0.386,-0.3839,-0.3958,-0.4085,-0.414,-0.414,-0.43,-0.4402,-0.4436,-0.444,-0.4457,-0.4491,-0.4491,-0.4491,-0.4491,-0.4159,-0.3858,-2.1911,-2.1901,-2.1728,-2.2031,-2.2492,-2.2713,-2.2159,0.0,0.0,0.0,0.0,0.0,-2.3594,-2.4308,-2.4986,-2.5337,-2.4999,-2.45,-2.3963,-2.2743,-2.1697,-2.126,-2.084,-2.0429,-1.9961,-1.9531,-1.9102,-1.8637,-1.8217,-1.8008,-1.8008,-1.8008,-1.7617,-1.6726,-1.6697,-1.6278,-1.542,-1.541,-1.541,-1.541,-1.541,-1.541,-1.5391,-1.4727,-1.4299,-1.4075,-1.3447,-1.2834,-1.2274,-1.2076,-1.1553,-1.0871,-1.059,-1.0257,-0.988,-0.9666,-0.951,-0.9413,-0.9335,-0.9263,-0.9185,-0.9035,-0.9008,-0.8982,-0.8831,-0.8857,-0.8883,-0.8831,-0.8804,-0.8804,-0.8804,-0.8804,-0.8804,-0.8804,-0.8584,-0.824,-0.7623,-0.708,-0.6451,-0.5565,-0.5079,-0.4661,-0.4174,-0.395,-0.377,-0.3622,-0.3604,-0.3604,-0.3604,-0.3658,-0.373,-0.3782,-0.3856,-0.3958,-0.4085,-0.4021,-0.4011,-0.4095,-0.4237,-0.4345,-0.4345,-0.445,-0.4463,-0.4356,-0.4356,-0.4298,-0.4184,-0.4184,-0.4159,-0.4079,-0.383,-0.3524,-2.1617,-2.2138,-2.2665,-2.3187,-2.3645,-2.3807,-2.3025,0.0,0.0,0.0,0.0,0.0,-2.3467,-2.4283,-2.4988,-2.5158,-2.501,-2.4419,-2.3314,-2.2219,-2.1441,-2.1133,-2.0801,-2.0429,-1.9961,-1.9531,-1.9102,-1.8637,-1.8217,-1.8008,-1.8008,-1.8008,-1.7617,-1.6726,-1.6697,-1.6278,-1.542,-1.541,-1.541,-1.541,-1.541,-1.541,-1.54,-1.498,-1.4551,-1.4085,-1.3665,-1.3061,-1.2357,-1.22,-1.1703,-1.1049,-1.0871,-1.0446,-0.995,-0.9769,-0.9517,-0.929,-0.9211,-0.9159,-0.9106,-0.9008,-0.8962,-0.8962,-0.8831,-0.8804,-0.8804,-0.8804,-0.8804,-0.8804,-0.8804,-0.8804,-0.8804,-0.8804,-0.8584,-0.824,-0.7677,-0.7034,-0.6355,-0.5581,-0.4966,-0.4469,-0.413,-0.3858,-0.3678,-0.36,-0.3621,-0.3634,-0.3634,-0.3737,-0.3836,-0.386,-0.3954,-0.4092,-0.424,-0.4254,-0.4254,-0.4254,-0.4395,-0.4491,-0.4491,-0.4491,-0.4408,-0.4193,-0.4193,-0.4024,-0.3769,-0.3741,-0.366,-0.3527,-0.3385,-0.3079,-2.1436,-2.1731,-2.2138,-2.3075,-2.3501,-2.3657,-2.3505,0.0,0.0,0.0,0.0,0.0,-2.3547,-2.4418,-2.5158,-2.52,-2.486,-2.4187,-2.3115,-2.2312,-2.1531,-2.0791,-2.0644,-2.0429,-1.9961,-1.9531,-1.9102,-1.8637,-1.8217,-1.8008,-1.8008,-1.8008,-1.7617,-1.6726,-1.6697,-1.6278,-1.542,-1.541,-1.541,-1.541,-1.541,-1.541,-1.54,-1.498,-1.4551,-1.4085,-1.3665,-1.3161,-1.2627,-1.2372,-1.2051,-1.1694,-1.1352,-1.1015,-1.0684,-1.0275,-0.9932,-0.964,-0.9185,-0.8956,-0.8857,-0.8831,-0.8831,-0.8831,-0.8811,-0.8804,-0.8804,-0.8804,-0.8804,-0.8804,-0.8804,-0.8804,-0.8804,-0.8804,-0.8584,-0.8215,-0.7568,-0.6894,-0.618,-0.5337,-0.4823,-0.439,-0.3994,-0.381,-0.3678,-0.36,-0.3706,-0.3761,-0.3761,-0.389,-0.4008,-0.4139,-0.4147,-0.4244,-0.4447,-0.4457,-0.4457,-0.4457,-0.4477,-0.4491,-0.4491,-0.4491,-0.4408,-0.4193,-0.4079,-0.391,-0.3627,-0.3522,-0.3355,-0.3188,-0.3047,-0.2826,-2.0809,-2.1002,-2.13,-2.1804,-2.2827,-2.3645,-2.3623,0.0,0.0,0.0,0.0,-2.4068,-2.37,-2.4084,-2.4436,-2.4441,-2.4187,-2.3633,-2.2643,-2.1936,-2.1271,-2.0673,-2.0605,-2.0429,-1.9961,-1.9531,-1.9102,-1.8637,-1.8217,-1.8008,-1.8008,-1.8008,-1.7617,-1.6726,-1.6697,-1.6278,-1.542,-1.541,-1.541,-1.541,-1.541,-1.541,-1.5371,-1.5215,-1.4756,-1.4094,-1.3899,-1.34,-1.2676,-1.248,-1.2249,-1.1977,-1.1728,-1.1427,-1.1023,-1.036,-0.9888,-0.9536,-0.9133,-0.891,-0.8804,-0.8804,-0.8804,-0.8804,-0.8804,-0.8804,-0.8804,-0.8804,-0.8804,-0.8804,-0.8804,-0.8804,-0.8804,-0.8804,-0.8584,-0.8287,-0.7814,-0.7128,-0.6415,-0.5715,-0.5038,-0.4449,-0.4108,-0.3895,-0.3736,-0.3716,-0.3819,-0.3914,-0.3914,-0.4021,-0.4146,-0.4187,-0.4291,-0.4392,-0.4484,-0.4491,-0.4491,-0.4491,-0.4491,-0.4491,-0.4491,-0.4491,-0.4325,-0.3993,-0.3852,-0.3463,-0.285,-0.2713,-0.2462,-0.2128,-0.2071,-0.1931,-2.0147,-2.0177,-2.0245,-2.0421,0.0,0.0,0.0,0.0,0.0,0.0,-2.4049,-2.422,-2.3888,-2.3713,-2.3624,-2.3597,-2.3389,-2.2964,-2.2235,-2.1555,-2.1012,-2.0644,-2.0605,-2.039,-1.9814,-1.9473,-1.9062,-1.849,-1.8159,-1.8008,-1.8008,-1.8008,-1.7666,-1.6882,-1.6755,-1.6326,-1.5566,-1.5459,-1.541,-1.541,-1.541,-1.541,-1.541,-1.5312,-1.4853,-1.4104,-1.4007,-1.3513,-1.2725,-1.2578,-1.2382,-1.2175,-1.1977,-1.1628,-1.1124,-1.036,-0.9784,-0.9361,-0.914,-0.8929,-0.8804,-0.8804,-0.8804,-0.8804,-0.8804,-0.8804,-0.8804,-0.8804,-0.8804,-0.8804,-0.8804,-0.8804,-0.8804,-0.8804,-0.8637,-0.8406,-0.8031,-0.7387,-0.6708,-0.601,-0.5227,-0.4542,-0.4261,-0.4016,-0.3843,-0.3843,-0.395,-0.4048,-0.4048,-0.418,-0.4271,-0.4271,-0.4395,-0.4491,-0.4491,-0.4491,-0.4491,-0.4491,-0.4491,-0.4491,-0.4491,-0.4463,-0.4242,-0.3796,-0.3572,-0.3016,-0.2155,-0.1931,-0.1625,-0.1206,-0.1206,-0.1122,-1.9645,-1.9399,-1.9152,-1.9341,-2.0557,0.0,-2.2107,-2.2868,0.0,-2.3656,-2.427,-2.4561,-2.394,-2.3501,-2.317,-2.2992,-2.2572,-2.2225,-2.1958,-2.136,-2.0858,-2.0644,-2.0605,-2.0282,-1.9414,-1.9307,-1.8945,-1.8115,-1.8027,-1.8008,-1.8008,-1.8008,-1.7803,-1.7353,-1.6943,-1.6504,-1.6046,-1.5615,-1.541,-1.541,-1.541,-1.541,-1.54,-1.501,-1.458,-1.4085,-1.3695,-1.3291,-1.2856,-1.2603,-1.248,-1.2421,-1.2051,-1.1502,-1.0871,-1.0445,-0.9921,-0.9387,-0.9237,-0.9008,-0.8804,-0.8804,-0.8804,-0.8804,-0.8804,-0.8804,-0.8804,-0.8804,-0.8804,-0.8804,-0.8804,-0.8804,-0.8804,-0.8804,-0.8791,-0.8593,-0.7948,-0.7482,-0.6854,-0.5741,-0.5135,-0.4665,-0.4281,-0.408,-0.3981,-0.3981,-0.4109,-0.418,-0.418,-0.4358,-0.4474,-0.4474,-0.4484,-0.4491,-0.4491,-0.4491,-0.4491,-0.4491,-0.4491,-0.4491,-0.4491,-0.4328,-0.4079,-0.3796,-0.3239,-0.2655,-0.2015,-0.1569,-0.1206,-0.0926,-0.0926,-0.087,-1.8882,-1.8643,-1.8353,-1.8304,-1.8816,0.0,0.0,-2.2247,-2.3237,-2.3147,-2.3919,-2.429,-2.3186,-2.2784,-2.2469,-2.21,-2.1999,-2.1837,-2.133,-2.1044,-2.0819,-2.0605,-2.0322,-1.9932,-1.9346,-1.9043,-1.8633,-1.8057,-1.8008,-1.8008,-1.8008,-1.8008,-1.7822,-1.7393,-1.6921,-1.6514,-1.6095,-1.5625,-1.541,-1.541,-1.541,-1.541,-1.5371,-1.5244,-1.4941,-1.4512,-1.4082,-1.3636,-1.3227,-1.2708,-1.2446,-1.2298,-1.1653,-1.1065,-1.0531,-1.0138,-0.9673,-0.9263,-0.9106,-0.8956,-0.8804,-0.8804,-0.8804,-0.8804,-0.8804,-0.8804,-0.8804,-0.8804,-0.8804,-0.8804,-0.8804,-0.8804,-0.8804,-0.8804,-0.8804,-0.8672,-0.8169,-0.7693,-0.7102,-0.6117,-0.5435,-0.4851,-0.4466,-0.4239,-0.4136,-0.4136,-0.4287,-0.4382,-0.4382,-0.4457,-0.4491,-0.4491,-0.4491,-0.4491,-0.4491,-0.4491,-0.4491,-0.4491,-0.4491,-0.4436,-0.4328,-0.4162,-0.3855,-0.338,-0.291,-0.224,-0.1429,-0.1094,-0.0729,-0.0336,-0.0336,-0.0308,-1.8112,-1.7789,-1.7456,-1.7335,0.0,0.0,-1.9137,-2.0915,-2.2301,-2.2325,-2.307,-2.3351,-2.2219,-2.1864,-2.1645,-2.1213,-2.1342,-2.1312,-2.0858,-2.0819,-2.0682,-2.041,-2.0098,-1.9697,-1.9141,-1.8783,-1.8422,-1.8047,-1.8008,-1.8008,-1.8008,-1.8008,-1.7881,-1.7588,-1.7158,-1.6728,-1.6279,-1.584,-1.5547,-1.541,-1.541,-1.541,-1.541,-1.5273,-1.5059,-1.4756,-1.4299,-1.3844,-1.3375,-1.2858,-1.2336,-1.1852,-1.1141,-1.06,-1.0164,-0.9821,-0.9439,-0.914,-0.9035,-0.891,-0.8804,-0.8804,-0.8804,-0.8804,-0.8804,-0.8804,-0.8804,-0.8804,-0.8804,-0.8804,-0.8804,-0.8804,-0.8804,-0.8804,-0.8804,-0.8699,-0.8275,-0.7842,-0.7246,-0.6372,-0.5641,-0.5029,-0.4634,-0.4421,-0.4291,-0.4291,-0.4399,-0.4491,-0.4491,-0.4491,-0.4491,-0.4491,-0.4491,-0.4491,-0.4491,-0.4491,-0.4491,-0.4491,-0.4436,-0.4356,-0.4193,-0.3993,-0.3602,-0.3047,-0.249,-0.1821,-0.1038,-0.0701,-0.0364,0.0,0.0,0.0,-1.7392,-1.6894,-1.6394,-1.6394,0.0,0.0,-1.7017,-1.8746,-2.0467,-2.1171,-2.1584,-2.1658,-2.0997,-2.088,-2.0745,-2.0371,-2.045,-2.0605,-2.0605,-2.0605,-2.04,-1.9961,-1.9912,-1.9533,-1.8685,-1.8598,-1.8422,-1.8037,-1.8008,-1.8008,-1.8008,-1.8008,-1.8008,-1.8008,-1.7598,-1.7178,-1.6707,-1.6289,-1.587,-1.541,-1.541,-1.541,-1.54,-1.498,-1.4823,-1.4766,-1.4299,-1.3791,-1.3276,-1.2999,-1.2169,-1.1049,-1.0582,-1.0156,-0.9762,-0.9484,-0.9237,-0.9008,-0.9008,-0.8903,-0.8804,-0.8804,-0.8804,-0.8804,-0.8804,-0.8804,-0.8804,-0.8804,-0.8804,-0.8804,-0.8804,-0.8804,-0.8804,-0.8804,-0.8804,-0.8699,-0.8275,-0.7842,-0.7246,-0.6372,-0.5719,-0.5171,-0.477,-0.4574,-0.4491,-0.4491,-0.4491,-0.4491,-0.4491,-0.4491,-0.4491,-0.4491,-0.4491,-0.4491,-0.4491,-0.4491,-0.4491,-0.4491,-0.4301,-0.4193,-0.4193,-0.3796,-0.3375,-0.2905,-0.204,-0.1371,-0.0898,-0.0421,-0.014,0.0,0.0,0.0,-1.6689,-1.6443,-1.6203,-1.6203,-1.6252,-1.6294,-1.6368,-1.7944,0.0,-2.0426,-2.0406,-2.0214,-2.0012,-1.9874,-1.9727,-1.9606,-1.9784,-1.9912,-1.9912,-2.0186,-2.0217,-1.9744,-1.9547,-1.9258,-1.8656,-1.8334,-1.8144,-1.8018,-1.8008,-1.8008,-1.8008,-1.8008,-1.8008,-1.8008,-1.7598,-1.7178,-1.6707,-1.6289,-1.587,-1.541,-1.541,-1.541,-1.541,-1.5283,-1.5177,-1.5032,-1.4336,-1.3796,-1.3359,-1.2248,-1.1311,-1.0582,-1.0131,-0.9744,-0.9361,-0.9185,-0.9008,-0.8857,-0.8857,-0.8831,-0.8804,-0.8804,-0.8804,-0.8804,-0.8804,-0.8804,-0.8804,-0.8804,-0.8804,-0.8804,-0.8804,-0.8804,-0.8804,-0.8804,-0.8804,-0.8699,-0.8275,-0.7895,-0.7348,-0.6399,-0.5832,-0.5344,-0.4798,-0.4574,-0.4491,-0.4491,-0.4491,-0.4491,-0.4491,-0.4491,-0.4491,-0.4491,-0.4491,-0.4491,-0.4491,-0.4491,-0.4491,-0.4491,-0.4301,-0.4107,-0.3938,-0.3408,-0.285,-0.2265,-0.1596,-0.1009,-0.0561,-0.0308,-0.014,0.0,0.0,0.0,-1.5519,-1.5318,-1.5124,-1.5033,-1.5159,-1.5374,-1.5631,-1.6922,-1.8307,-1.8993,-1.8812,-1.8544,-1.8544,-1.8458,-1.839,-1.839,-1.8719,-1.9024,-1.916,-1.9472,-1.9544,-1.9287,-1.9041,-1.8796,-1.8393,-1.812,-1.8008,-1.8008,-1.8008,-1.8008,-1.8008,-1.8008,-1.7939,-1.7764,-1.7519,-1.709,-1.6475,-1.6232,-1.587,-1.541,-1.5362,-1.5274,-1.5245,-1.5313,-1.5196,-1.4943,-1.3914,-1.3213,-1.2699,-1.1378,-1.0582,-1.0113,-0.9718,-0.9387,-0.9113,-0.8962,-0.8857,-0.8804,-0.8804,-0.8804,-0.8804,-0.8804,-0.8804,-0.8804,-0.8804,-0.8804,-0.8804,-0.8804,-0.8804,-0.8804,-0.8804,-0.8752,-0.8745,-0.8778,-0.8804,-0.8725,-0.8427,-0.8023,-0.7477,-0.6696,-0.605,-0.5454,-0.4936,-0.4656,-0.4491,-0.4491,-0.4491,-0.4491,-0.4491,-0.4491,-0.4491,-0.4491,-0.4491,-0.4491,-0.4491,-0.4491,-0.4491,-0.4491,-0.4273,-0.3996,-0.3744,-0.3128,-0.2543,-0.193,-0.1289,-0.0729,-0.0308,-0.0196,-0.0084,0.0,0.0,0.0,-1.4055,-1.3808,-1.3561,-1.3392,-1.3639,-1.4139,-1.479,-1.5684,-1.6576,-1.7107,-1.6998,-1.6768,-1.6768,-1.6812,-1.6855,-1.6855,-1.7435,-1.797,-1.8219,-1.8459,-1.8542,-1.8526,-1.8404,-1.8251,-1.7944,-1.794,-1.7974,-1.7974,-1.7974,-1.8008,-1.8008,-1.7978,-1.7773,-1.7393,-1.7376,-1.6946,-1.6105,-1.6095,-1.585,-1.5391,-1.5264,-1.5088,-1.4941,-1.5059,-1.4894,-1.4411,-1.3114,-1.2186,-1.1484,-1.053,-0.9984,-0.9718,-0.9342,-0.9113,-0.8962,-0.8831,-0.8804,-0.8804,-0.8804,-0.8804,-0.8804,-0.8804,-0.8804,-0.8804,-0.8804,-0.8804,-0.8804,-0.8804,-0.8804,-0.8804,-0.8804,-0.8692,-0.8626,-0.8725,-0.8752,-0.8725,-0.8606,-0.8096,-0.7563,-0.7133,-0.6273,-0.5508,-0.5152,-0.4767,-0.4491,-0.4491,-0.4491,-0.4491,-0.4491,-0.4491,-0.4491,-0.4491,-0.4491,-0.4491,-0.4491,-0.4491,-0.4491,-0.4491,-0.4187,-0.3885,-0.3638,-0.3019,-0.2402,-0.179,-0.1064,-0.0533,-0.0197,-0.0056,0.0,0.0,0.0,0.0,-1.3258,-1.3075,-1.2893,-1.2851,-1.2948,-1.3124,-1.3669,-1.3922,-1.4475,-1.5809,-1.5952,-1.5872,-1.5872,-1.5709,-1.5589,-1.5589,-1.599,-1.6385,-1.6584,-1.7194,-1.7505,-1.7306,-1.7649,-1.7791,-1.742,-1.7613,-1.775,-1.775,-1.7896,-1.8008,-1.8008,-1.7695,-1.7471,-1.7393,-1.7051,-1.6611,-1.6095,-1.6095,-1.582,-1.5235,-1.5117,-1.4823,-1.4369,-1.4567,-1.4014,-1.2828,-1.1877,-1.1104,-1.048,-0.9936,-0.9569,-0.9316,-0.9106,-0.8956,-0.8831,-0.8804,-0.8804,-0.8804,-0.8804,-0.8804,-0.8804,-0.8804,-0.8804,-0.8804,-0.8804,-0.8804,-0.8804,-0.8804,-0.8804,-0.8804,-0.8804,-0.8692,-0.8573,-0.8507,-0.848,-0.8454,-0.8321,-0.7969,-0.7509,-0.6831,-0.6182,-0.5586,-0.5038,-0.4708,-0.4491,-0.4491,-0.4491,-0.4491,-0.4491,-0.4491,-0.4491,-0.4491,-0.4491,-0.4491,-0.4491,-0.4491,-0.4491,-0.4491,-0.4273,-0.4024,-0.3771,-0.2963,-0.2266,-0.1649,-0.1008,-0.054,-0.0204,-0.0058,0.0,0.0,0.0,0.0,-1.1656,-1.1445,-1.1381,-1.1489,-1.1478,-1.1663,-1.236,-1.2574,-1.2869,-1.3922,-1.4356,-1.4637,-1.4724,-1.4489,-1.4238,-1.4238,-1.463,-1.5033,-1.5352,-1.5842,-1.6216,-1.6454,-1.6732,-1.6969,-1.7056,-1.7382,-1.7613,-1.7706,-1.7896,-1.8008,-1.8008,-1.7607,-1.7285,-1.708,-1.6641,-1.6191,-1.5782,-1.5702,-1.5486,-1.5098,-1.4764,-1.4189,-1.339,-1.3433,-1.2862,-1.1835,-1.102,-1.0348,-0.9777,-0.9439,-0.9237,-0.908,-0.8956,-0.8857,-0.8804,-0.8804,-0.8804,-0.8804,-0.8804,-0.8804,-0.8804,-0.8804,-0.8804,-0.8804,-0.8804,-0.8804,-0.8804,-0.8804,-0.8804,-0.8804,-0.8804,-0.8666,-0.8441,-0.8229,-0.8235,-0.8242,-0.7996,-0.7723,-0.7316,-0.6723,-0.6127,-0.5559,-0.5066,-0.4712,-0.4491,-0.4491,-0.4491,-0.4491,-0.4491,-0.4491,-0.4491,-0.4491,-0.4491,-0.4491,-0.4491,-0.4491,-0.4491,-0.4491,-0.4301,-0.4138,-0.4002,-0.3351,-0.2609,-0.1862,-0.1234,-0.073,-0.0331,-0.0211,-0.0091,0.0,0.0,0.0,-1.0037,-0.9752,-0.9733,-0.9938,-1.0002,-1.0246,-1.1114,-1.1356,-1.1592,-1.2112,-1.2807,-1.3319,-1.3509,-1.321,-1.2963,-1.298,-1.34,-1.3865,-1.4253,-1.4522,-1.493,-1.5605,-1.5772,-1.6088,-1.6656,-1.7116,-1.7461,-1.7604,-1.7794,-1.7906,-1.794,-1.7506,-1.7067,-1.6716,-1.6221,-1.5781,-1.5362,-1.5235,-1.5068,-1.4852,-1.4219,-1.3368,-1.2382,-1.2133,-1.1697,-1.1105,-1.0389,-0.9794,-0.9316,-0.9116,-0.9003,-0.8962,-0.8884,-0.8851,-0.8804,-0.8804,-0.8804,-0.8804,-0.8804,-0.8804,-0.8804,-0.8804,-0.8804,-0.8804,-0.8804,-0.8804,-0.8804,-0.8804,-0.8804,-0.8804,-0.8804,-0.8586,-0.8315,-0.7957,-0.7937,-0.7922,-0.7622,-0.7343,-0.702,-0.6561,-0.5914,-0.5344,-0.5042,-0.4712,-0.4491,-0.4491,-0.4491,-0.4491,-0.4491,-0.4491,-0.4491,-0.4491,-0.4491,-0.4491,-0.4491,-0.4491,-0.4501,-0.4528,-0.4368,-0.4292,-0.4285,-0.388,-0.3266,-0.239,-0.1666,-0.1056,-0.0591,-0.0404,-0.0187,0.0,0.0,0.0,-0.9485,-0.9159,-0.8968,-0.8993,-0.9209,-0.9515,-0.9931,-1.0225,-1.0593,-1.1278,-1.2002,-1.2437,-1.2403,-1.2187,-1.2005,-1.2123,-1.2368,-1.2661,-1.3066,-1.3448,-1.3842,-1.4299,-1.4908,-1.548,-1.5903,-1.6586,-1.7072,-1.7235,-1.7461,-1.7632,-1.774,-1.6965,-1.6577,-1.6697,-1.5928,-1.5391,-1.5235,-1.5088,-1.4793,-1.4279,-1.3246,-1.2421,-1.1856,-1.1156,-1.0718,-1.0487,-0.9806,-0.9336,-0.9055,-0.9133,-0.9031,-0.8858,-0.9058,-0.8998,-0.8804,-0.8804,-0.8804,-0.8804,-0.8804,-0.8804,-0.8804,-0.8804,-0.8804,-0.8804,-0.8804,-0.8804,-0.8804,-0.8804,-0.8804,-0.8804,-0.8804,-0.8586,-0.8289,-0.783,-0.7482,-0.7192,-0.7036,-0.6761,-0.6404,-0.5991,-0.5317,-0.477,-0.4601,-0.4546,-0.4491,-0.4491,-0.4491,-0.4491,-0.4491,-0.4491,-0.4491,-0.4491,-0.4491,-0.4491,-0.4491,-0.4491,-0.4545,-0.4653,-0.466,-0.464,-0.4636,-0.4457,-0.405,-0.3427,-0.2295,-0.1461,-0.0928,-0.0513,-0.0195,0.0,0.0,0.0,-0.8844,-0.8399,-0.8325,-0.8325,-0.85,-0.8792,-0.9222,-0.9371,-0.9553,-0.9997,-1.0332,-1.0837,-1.1688,-1.172,-1.1703,-1.1854,-1.1973,-1.2181,-1.2716,-1.2827,-1.3046,-1.3702,-1.431,-1.4955,-1.5559,-1.6298,-1.683,-1.7003,-1.721,-1.7348,-1.7407,-1.6581,-1.6265,-1.6519,-1.5729,-1.5264,-1.5215,-1.4961,-1.435,-1.342,-1.2544,-1.1864,-1.1397,-1.0912,-1.0597,-1.038,-0.9814,-0.9497,-0.9389,-0.9461,-0.9412,-0.9312,-0.9439,-0.9412,-0.9299,-0.9299,-0.9192,-0.9024,-0.9024,-0.8918,-0.8804,-0.8804,-0.8804,-0.8804,-0.8804,-0.8804,-0.8804,-0.8804,-0.8804,-0.8804,-0.8804,-0.854,-0.8162,-0.7702,-0.7079,-0.6512,-0.6223,-0.6109,-0.5914,-0.5391,-0.4987,-0.466,-0.4519,-0.4491,-0.4491,-0.4491,-0.4563,-0.4617,-0.4617,-0.4663,-0.4718,-0.4718,-0.4718,-0.4718,-0.4718,-0.4718,-0.4748,-0.4813,-0.4819,-0.4854,-0.4936,-0.469,-0.4374,-0.4009,-0.2913,-0.1954,-0.1155,-0.0759,-0.0366,0.0,0.0,0.0,-0.8668,-0.8182,-0.8153,-0.8016,-0.8119,-0.8355,-0.8646,-0.8679,-0.8704,-0.8882,-0.897,-0.9379,-1.0593,-1.0905,-1.1092,-1.1479,-1.1593,-1.1864,-1.2563,-1.2527,-1.2719,-1.3473,-1.4051,-1.4673,-1.5389,-1.6121,-1.658,-1.67,-1.6786,-1.6855,-1.6925,-1.6087,-1.5808,-1.6192,-1.5527,-1.5117,-1.5059,-1.4627,-1.3863,-1.2773,-1.2112,-1.1591,-1.1216,-1.0933,-1.0684,-1.0489,-1.0009,-0.9753,-0.9693,-0.9766,-0.9746,-0.9722,-0.9766,-0.9746,-0.9715,-0.9715,-0.9492,-0.9211,-0.9211,-0.9024,-0.8804,-0.8804,-0.8804,-0.8804,-0.8804,-0.8804,-0.8804,-0.8804,-0.8804,-0.8804,-0.8804,-0.8513,-0.8135,-0.7628,-0.6891,-0.6127,-0.5563,-0.5477,-0.5395,-0.4928,-0.4739,-0.4605,-0.4519,-0.4522,-0.4549,-0.4549,-0.4679,-0.4748,-0.4748,-0.485,-0.4887,-0.4887,-0.4887,-0.4887,-0.4887,-0.4887,-0.4904,-0.4938,-0.4941,-0.5005,-0.5086,-0.4803,-0.4493,-0.4187,-0.3285,-0.2368,-0.1379,-0.0942,-0.0471,0.0,0.0,0.0,-0.924,-0.8894,-0.8796,-0.8059,-0.8149,-0.8386,-0.8243,-0.8245,-0.8292,-0.839,-0.8454,-0.8526,-0.87,-0.9235,-0.9873,-1.074,-1.106,-1.1536,-1.238,-1.2731,-1.312,-1.3696,-1.4307,-1.4866,-1.5372,-1.5973,-1.6265,-1.6158,-1.5982,-1.5947,-1.6167,-1.5312,-1.5112,-1.5638,-1.5245,-1.4911,-1.4745,-1.3953,-1.3307,-1.2805,-1.212,-1.1716,-1.156,-1.1028,-1.0793,-1.0766,-1.0282,-0.9933,-0.9735,-0.998,-0.9933,-0.9713,-0.9987,-0.9927,-0.9715,-0.9715,-0.9492,-0.9211,-0.9211,-0.9024,-0.8804,-0.8804,-0.8804,-0.8804,-0.8804,-0.8804,-0.8804,-0.8804,-0.8804,-0.8804,-0.8804,-0.8586,-0.8242,-0.7649,-0.7025,-0.629,-0.5171,-0.4849,-0.4743,-0.4715,-0.4605,-0.4519,-0.4491,-0.461,-0.4677,-0.4677,-0.4809,-0.4877,-0.4877,-0.4884,-0.4887,-0.4887,-0.4887,-0.4887,-0.4887,-0.4887,-0.4945,-0.5079,-0.509,-0.5089,-0.5104,-0.4918,-0.4486,-0.3823,-0.3286,-0.2517,-0.158,-0.0876,-0.0337,0.0,0.0,0.0,-1.1096,-1.0479,-1.0126,-0.9118,-0.8771,-0.8612,-0.8364,-0.8129,-0.7976,-0.8007,-0.7873,-0.7807,-0.7967,-0.8612,-0.9327,-0.9946,-1.0203,-1.0729,-1.1799,-1.1982,-1.2359,-1.3318,-1.3942,-1.4586,-1.5271,-1.587,-1.6133,-1.5875,-1.5769,-1.5632,-1.5346,-1.4906,-1.4789,-1.5089,-1.4961,-1.4775,-1.4567,-1.3872,-1.3299,-1.2934,-1.2297,-1.184,-1.1591,-1.1185,-1.0933,-1.08,-1.0542,-1.0372,-1.0285,-1.0392,-1.0372,-1.0291,-1.0392,-1.0365,-1.0278,-1.0278,-0.997,-0.9526,-0.9526,-0.9212,-0.8804,-0.8804,-0.8804,-0.8804,-0.8804,-0.8804,-0.8804,-0.8804,-0.8745,-0.8659,-0.8659,-0.8309,-0.7723,-0.6761,-0.6132,-0.5582,-0.4904,-0.4656,-0.4574,-0.4574,-0.4546,-0.4522,-0.4621,-0.4653,-0.4724,-0.4823,-0.4931,-0.5022,-0.5022,-0.5142,-0.5235,-0.5235,-0.5235,-0.5235,-0.5235,-0.5235,-0.5226,-0.5277,-0.5176,-0.5035,-0.4924,-0.4495,-0.4028,-0.3426,-0.2688,-0.2017,-0.1412,-0.0942,-0.0438,0.0,0.0,0.0,-1.3516,-1.2636,-1.1905,-1.0383,-0.9716,-0.9225,-0.8494,-0.8066,-0.7826,-0.7582,-0.7429,-0.7382,-0.7468,-0.7908,-0.8544,-0.9257,-0.9531,-1.0074,-1.1348,-1.1585,-1.2098,-1.3217,-1.385,-1.4482,-1.5201,-1.5701,-1.5867,-1.5589,-1.5407,-1.5157,-1.488,-1.4574,-1.4538,-1.4784,-1.4689,-1.4602,-1.4508,-1.3902,-1.345,-1.3169,-1.2544,-1.212,-1.1809,-1.1373,-1.1059,-1.0902,-1.0688,-1.0593,-1.0593,-1.0593,-1.0593,-1.0593,-1.0593,-1.0593,-1.0593,-1.0593,-1.0278,-0.9813,-0.9749,-0.9359,-0.8911,-0.8838,-0.8804,-0.8804,-0.8804,-0.8804,-0.8804,-0.8804,-0.8765,-0.8723,-0.8663,-0.813,-0.7394,-0.6477,-0.583,-0.532,-0.499,-0.4748,-0.4566,-0.4566,-0.4607,-0.4679,-0.4752,-0.4806,-0.4874,-0.4945,-0.5114,-0.5209,-0.5209,-0.533,-0.5395,-0.5395,-0.544,-0.5474,-0.5474,-0.5474,-0.5437,-0.5369,-0.5152,-0.4858,-0.4528,-0.4028,-0.3473,-0.2861,-0.2113,-0.1473,-0.1037,-0.0753,-0.0411,0.0,0.0,0.0,0.0,0.0,0.0,-1.1789,-1.0987,-1.0278,-0.8564,-0.8063,-0.7789,-0.7122,-0.7076,-0.7123,-0.6994,-0.7023,-0.7452,-0.8652,-0.9034,-0.9632,-1.103,-1.1645,-1.2381,-1.3544,-1.4088,-1.4594,-1.5139,-1.539,-1.5454,-1.5304,-1.4797,-1.4568,-1.4748,-1.4348,-1.4329,-1.4778,-1.4484,-1.4357,-1.4499,-1.4031,-1.37,-1.348,-1.2889,-1.2498,-1.2274,-1.1584,-1.1216,-1.109,-1.0751,-1.0593,-1.0593,-1.0593,-1.0593,-1.0593,-1.0593,-1.0593,-1.0593,-1.0593,-1.0405,-1.0043,-0.9793,-0.9499,-0.9178,-0.8925,-0.8831,-0.8831,-0.8831,-0.8831,-0.8831,-0.8831,-0.8903,-0.8953,-0.8732,-0.8092,-0.7364,-0.6887,-0.6173,-0.5548,-0.5434,-0.5043,-0.4704,-0.4697,-0.4816,-0.4891,-0.4894,-0.5009,-0.51,-0.5103,-0.5267,-0.5395,-0.5395,-0.5399,-0.5402,-0.5402,-0.5539,-0.5596,-0.5596,-0.5596,-0.5523,-0.5312,-0.4981,-0.4539,-0.4005,-0.3469,-0.2865,-0.2204,-0.1577,-0.103,-0.0511,-0.0355,-0.0213,0.0,0.0,0.0,-1.9433,0.0,0.0,0.0,0.0,0.0,-0.9648,-0.8477,-0.7538,-0.693,-0.6523,-0.6293,-0.6354,-0.6227,-0.6329,-0.7105,-0.7885,-0.8775,-0.9852,-1.0701,-1.1663,-1.2831,-1.3723,-1.4445,-1.4873,-1.5276,-1.5311,-1.4845,-1.458,-1.4362,-1.4163,-1.4249,-1.4487,-1.486,-1.4648,-1.4464,-1.4357,-1.398,-1.364,-1.3359,-1.2828,-1.2436,-1.2151,-1.1553,-1.1216,-1.109,-1.0751,-1.0593,-1.0593,-1.0593,-1.0593,-1.0593,-1.0593,-1.0593,-1.0593,-1.0593,-1.0405,-1.0077,-1.0027,-0.9806,-0.9546,-0.9466,-0.9446,-0.9446,-0.9446,-0.9446,-0.9446,-0.9446,-0.9293,-0.8965,-0.8184,-0.7565,-0.6987,-0.6413,-0.588,-0.54,-0.5214,-0.5085,-0.4948,-0.4874,-0.486,-0.4921,-0.5022,-0.5073,-0.5137,-0.5281,-0.5368,-0.5395,-0.5395,-0.5491,-0.5562,-0.5562,-0.5657,-0.5742,-0.5742,-0.5742,-0.5674,-0.5461,-0.4962,-0.4412,-0.3807,-0.2954,-0.2216,-0.1622,-0.1045,-0.0584,-0.0337,-0.0329,-0.0181,0.0,0.0,0.0,0.0,0.0,-1.9442,-1.7302,0.0,0.0,-1.0955,-0.9313,-0.7973,-0.684,-0.6222,-0.5877,-0.5764,-0.5625,-0.5673,-0.5928,-0.6584,-0.7632,-0.91,-0.9929,-1.0884,-1.2266,-1.3184,-1.3975,-1.4608,-1.4925,-1.5013,-1.4866,-1.4507,-1.4214,-1.4126,-1.4277,-1.4645,-1.5131,-1.4801,-1.4568,-1.4541,-1.3969,-1.3511,-1.3169,-1.2636,-1.222,-1.1872,-1.1435,-1.1122,-1.0965,-1.0713,-1.0593,-1.0593,-1.0593,-1.0593,-1.0593,-1.0593,-1.0593,-1.0593,-1.0593,-1.0479,-1.0281,-1.016,-1.0007,-0.9846,-0.9726,-0.9715,-0.9715,-0.9715,-0.9715,-0.9715,-0.9715,-0.9437,-0.901,-0.834,-0.7629,-0.6977,-0.6474,-0.5915,-0.5444,-0.5346,-0.5258,-0.5182,-0.5005,-0.506,-0.5128,-0.5213,-0.5226,-0.5257,-0.5382,-0.5395,-0.5419,-0.5484,-0.5535,-0.5613,-0.5671,-0.581,-0.5895,-0.5895,-0.5822,-0.5639,-0.535,-0.4642,-0.3926,-0.3274,-0.2366,-0.1611,-0.1037,-0.0629,-0.0337,-0.0192,-0.0187,-0.0112,0.0,0.0,0.0,0.0,0.0,0.0,-2.0033,-1.8167,0.0,-1.2632,-1.0681,-0.9033,-0.7029,-0.6285,-0.5794,-0.5305,-0.5229,-0.52,-0.503,-0.5272,-0.6236,-0.8445,-0.9253,-1.0152,-1.1651,-1.2533,-1.3397,-1.4314,-1.4453,-1.4626,-1.503,-1.4464,-1.4179,-1.4411,-1.4406,-1.4752,-1.5436,-1.4904,-1.4657,-1.4822,-1.3891,-1.326,-1.2926,-1.2328,-1.1903,-1.156,-1.1247,-1.0996,-1.08,-1.0649,-1.0593,-1.0593,-1.0593,-1.0593,-1.0593,-1.0593,-1.0593,-1.0593,-1.0593,-1.0593,-1.0553,-1.0254,-1.0167,-1.0127,-0.9866,-0.9809,-0.9809,-0.9809,-0.9809,-0.978,-0.978,-0.9481,-0.9104,-0.8837,-0.8014,-0.7134,-0.6741,-0.6112,-0.5583,-0.5583,-0.5491,-0.5354,-0.5182,-0.5267,-0.5395,-0.5395,-0.5395,-0.5399,-0.5419,-0.5419,-0.5477,-0.5593,-0.563,-0.5688,-0.5813,-0.5962,-0.6016,-0.6016,-0.5823,-0.556,-0.5147,-0.4267,-0.3412,-0.2643,-0.1837,-0.1114,-0.0532,-0.0342,-0.0192,0.0,0.0,0.0,0.0,0.0,0.0,-2.6591,-2.5681,-2.4519,-2.2853,-2.0827,0.0,-1.5405,-1.2977,-1.0794,-0.8607,-0.7171,-0.6135,-0.5557,-0.4782,-0.4296,-0.4385,-0.4328,-0.4913,-0.6801,-0.8153,-0.9405,-1.0568,-1.193,-1.3014,-1.3653,-1.4056,-1.4249,-1.4324,-1.4179,-1.4197,-1.4477,-1.4548,-1.4763,-1.5223,-1.472,-1.4377,-1.4259,-1.3378,-1.2767,-1.2421,-1.205,-1.1677,-1.1334,-1.1185,-1.0996,-1.08,-1.0649,-1.0593,-1.0593,-1.0593,-1.0593,-1.0593,-1.0593,-1.0593,-1.0593,-1.0593,-1.0593,-1.0586,-1.0526,-1.0506,-1.0492,-1.0439,-1.0419,-1.0419,-1.0419,-1.0419,-1.0388,-1.0232,-0.9926,-0.9508,-0.8742,-0.8009,-0.726,-0.6474,-0.5947,-0.5583,-0.5458,-0.5428,-0.5385,-0.5354,-0.5375,-0.5395,-0.5395,-0.5395,-0.5436,-0.5562,-0.5545,-0.5596,-0.5742,-0.5867,-0.5915,-0.5946,-0.6125,-0.6255,-0.6255,-0.6018,-0.5704,-0.5283,-0.4486,-0.3629,-0.2786,-0.182,-0.1087,-0.0585,-0.0234,-0.0039,0.0,0.0,0.0,0.0,0.0,0.0,-2.7868,-2.7298,-2.6493,-2.5455,-2.3738,0.0,0.0,-1.6349,-1.4062,-1.1692,-0.9976,-0.8574,-0.7361,-0.6238,-0.5279,-0.4782,-0.4496,-0.4667,-0.575,-0.7137,-0.8517,-0.985,-1.1037,-1.2076,-1.2874,-1.3267,-1.357,-1.3825,-1.4089,-1.4251,-1.4336,-1.4585,-1.4844,-1.5184,-1.4832,-1.4504,-1.4158,-1.3338,-1.2656,-1.2058,-1.1709,-1.1365,-1.1052,-1.0996,-1.087,-1.0713,-1.0624,-1.0593,-1.0593,-1.0593,-1.0593,-1.0593,-1.0593,-1.0593,-1.0593,-1.0593,-1.0593,-1.0593,-1.0593,-1.0593,-1.0593,-1.0593,-1.0593,-1.0593,-1.0593,-1.0593,-1.0593,-1.0466,-1.0149,-0.967,-0.9043,-0.8204,-0.7326,-0.6605,-0.6013,-0.555,-0.5428,-0.5395,-0.5395,-0.5395,-0.5395,-0.5395,-0.5395,-0.5457,-0.5535,-0.5579,-0.565,-0.5749,-0.5895,-0.5946,-0.6023,-0.6135,-0.6252,-0.63,-0.63,-0.5948,-0.5631,-0.5321,-0.4343,-0.3407,-0.2668,-0.1649,-0.0864,-0.0314,-0.0118,0.0,0.0,0.0,0.0,0.0,0.0,0.0,-2.8707,-2.8487,-2.8038,-2.7558,-2.6358,-2.466,0.0,0.0,0.0,-1.5448,-1.3672,-1.2038,-1.0175,-0.8637,-0.7252,-0.6046,-0.5415,-0.5141,-0.5492,-0.6495,-0.774,-0.911,-1.006,-1.0944,-1.198,-1.2533,-1.302,-1.3591,-1.4041,-1.4344,-1.4412,-1.463,-1.4912,-1.5248,-1.4899,-1.4502,-1.4139,-1.334,-1.2568,-1.1836,-1.1553,-1.127,-1.0928,-1.1015,-1.0914,-1.0754,-1.07,-1.0673,-1.0673,-1.0613,-1.0593,-1.0593,-1.0593,-1.0593,-1.0593,-1.0593,-1.0593,-1.0593,-1.0593,-1.0593,-1.0593,-1.0593,-1.0593,-1.0593,-1.0593,-1.0593,-1.0593,-1.0593,-1.0244,-0.9798,-0.9402,-0.8495,-0.7521,-0.6872,-0.6205,-0.5696,-0.547,-0.546,-0.5481,-0.5481,-0.5481,-0.547,-0.5443,-0.5542,-0.561,-0.5664,-0.5772,-0.5901,-0.6054,-0.6074,-0.6122,-0.6286,-0.63,-0.63,-0.63,-0.5909,-0.5556,-0.5359,-0.4265,-0.3329,-0.2705,-0.1531,-0.0628,0.0,0.0,0.0,0.0,0.0,0.0,0.0,0.0,0.0,-2.8643,-2.8771,-2.8693,-2.8615,-2.805,-2.7043,-2.5123,0.0,-2.1839,-1.9526,0.0,-1.5934,-1.3871,0.0,0.0,-0.8372,-0.7089,-0.6404,-0.668,-0.7094,-0.7583,-0.812,-0.9118,-1.0055,-1.09,-1.2241,-1.3298,-1.3819,-1.4124,-1.458,-1.5131,-1.4817,-1.4881,-1.5434,-1.445,-1.3912,-1.3838,-1.2874,-1.2248,-1.1977,-1.1945,-1.1758,-1.1439,-1.1712,-1.1668,-1.1316,-1.1056,-1.0942,-1.0922,-1.07,-1.0593,-1.0593,-1.0593,-1.0593,-1.0593,-1.0593,-1.0593,-1.0593,-1.0593,-1.0593,-1.0593,-1.0593,-1.0593,-1.0593,-1.0593,-1.0593,-1.0593,-1.0593,-1.0434,-1.011,-0.9466,-0.885,-0.8102,-0.6966,-0.65,-0.6173,-0.5665,-0.5661,-0.5752,-0.5752,-0.5752,-0.5711,-0.5586,-0.5579,-0.5677,-0.5902,-0.5956,-0.6061,-0.6252,-0.6272,-0.6279,-0.6296,-0.63,-0.63,-0.63,-0.6022,-0.5789,-0.5598,-0.4776,-0.3992,-0.3329,-0.1765,-0.0628,0.0,0.0,0.0,0.0,0.0,0.0,0.0,0.0,0.0,-2.8476,-2.8753,-2.8917,-2.9435,-2.9268,-2.8757,-2.774,-2.6647,-2.5375,-2.3614,0.0,0.0,0.0,0.0,0.0,0.0,-1.0657,-0.9552,-0.889,-0.8961,-0.891,-0.851,-0.8871,-0.9513,-1.0458,-1.1836,-1.2972,-1.3631,-1.4314,-1.4828,-1.5104,-1.4885,-1.4811,-1.4987,-1.4312,-1.3787,-1.3352,-1.291,-1.2436,-1.194,-1.194,-1.1847,-1.1619,-1.1743,-1.1669,-1.1382,-1.1296,-1.1149,-1.0982,-1.0894,-1.0747,-1.0593,-1.0593,-1.0593,-1.0593,-1.0593,-1.0593,-1.0593,-1.0593,-1.0593,-1.0593,-1.0593,-1.0593,-1.0593,-1.0593,-1.0643,-1.0646,-1.0646,-1.0574,-1.0369,-0.9827,-0.9147,-0.8327,-0.7404,-0.6777,-0.6276,-0.5817,-0.5759,-0.58,-0.58,-0.58,-0.581,-0.584,-0.5844,-0.5888,-0.5973,-0.6105,-0.6186,-0.6289,-0.63,-0.63,-0.63,-0.63,-0.63,-0.63,-0.606,-0.5864,-0.5789,-0.4698,-0.3524,-0.239,-0.1412,-0.0628,0.0,0.0,0.0,0.0,0.0,0.0,0.0,0.0,0.0,-2.8151,-2.856,-2.8931,-2.9761,-2.9976,-2.9948,-2.9659,-2.9087,-2.8287,-2.7077,-2.5893,0.0,0.0,0.0,-1.8395,-1.6131,0.0,-1.2959,-1.1722,-1.1319,-1.0613,-0.9071,-0.8996,-0.9373,-1.0314,-1.159,-1.2732,-1.3549,-1.445,-1.5064,-1.5163,-1.4954,-1.4765,-1.4539,-1.4156,-1.3637,-1.2963,-1.2876,-1.2536,-1.1957,-1.2026,-1.1957,-1.1792,-1.1908,-1.1838,-1.1628,-1.1583,-1.1383,-1.1102,-1.1022,-1.0854,-1.0593,-1.0593,-1.0593,-1.0593,-1.0593,-1.0593,-1.0593,-1.0593,-1.0593,-1.0593,-1.0593,-1.0646,-1.0713,-1.0713,-1.0751,-1.0809,-1.0809,-1.0687,-1.0465,-1.002,-0.9316,-0.8473,-0.7615,-0.698,-0.6407,-0.5937,-0.5898,-0.5925,-0.5925,-0.5925,-0.5962,-0.6074,-0.602,-0.6006,-0.6088,-0.6186,-0.63,-0.63,-0.63,-0.63,-0.63,-0.63,-0.63,-0.63,-0.6138,-0.5941,-0.5747,-0.4657,-0.337,-0.1921,-0.1412,-0.0825,-0.0079,-0.0079,-0.0039,0.0,0.0,0.0,0.0,0.0,0.0,-2.761,-2.8157,-2.8675,-2.9432,-3.0097,-3.0568,-3.0568,-3.0538,-3.0297,-2.9535,-2.8775,-2.7761,-2.6049,-2.4095,0.0,0.0,0.0,0.0,0.0,-1.408,-1.2372,-0.9542,-0.9417,-0.9772,-1.0364,-1.159,-1.2797,-1.38,-1.4556,-1.5153,-1.5555,-1.522,-1.4815,-1.4418,-1.3885,-1.3381,-1.2922,-1.2585,-1.2325,-1.2099,-1.2276,-1.2276,-1.2106,-1.2435,-1.2462,-1.2258,-1.2013,-1.169,-1.1355,-1.1109,-1.0854,-1.0593,-1.0593,-1.0593,-1.0593,-1.0593,-1.0593,-1.0593,-1.0593,-1.0593,-1.0593,-1.0593,-1.0787,-1.0982,-1.0982,-1.1048,-1.1101,-1.1101,-1.0798,-1.039,-0.9846,-0.9316,-0.8609,-0.7473,-0.7042,-0.6722,-0.6132,-0.6139,-0.6286,-0.6286,-0.6286,-0.6286,-0.6289,-0.6129,-0.6081,-0.6269,-0.6296,-0.63,-0.63,-0.63,-0.63,-0.63,-0.63,-0.63,-0.63,-0.63,-0.6025,-0.5359,-0.4893,-0.3995,-0.2549,-0.2078,-0.1372,-0.0314,-0.0275,-0.0196,0.0,0.0,0.0,0.0,0.0,0.0,-2.6706,-2.7163,-2.7739,-2.9056,-2.9541,-2.9883,-3.0675,-3.091,-3.0851,-3.0554,-3.0133,-2.9476,-2.8171,-2.6904,0.0,0.0,0.0,0.0,0.0,-1.6388,-1.4588,-1.3089,-1.1573,-1.0708,-1.09,-1.2111,-1.3227,-1.41,-1.488,-1.5372,-1.5387,-1.5062,-1.4685,-1.4346,-1.3737,-1.3268,-1.2969,-1.2673,-1.2442,-1.2224,-1.2297,-1.2297,-1.2231,-1.2368,-1.2378,-1.2291,-1.2198,-1.1877,-1.1382,-1.1289,-1.0995,-1.0593,-1.0593,-1.0713,-1.0842,-1.0842,-1.0842,-1.0875,-1.1062,-1.1136,-1.1136,-1.1136,-1.1196,-1.1242,-1.1242,-1.1242,-1.1224,-1.1224,-1.0958,-1.0627,-1.0304,-0.9601,-0.8788,-0.8161,-0.7417,-0.6821,-0.6481,-0.6336,-0.63,-0.63,-0.63,-0.63,-0.63,-0.6255,-0.6238,-0.6293,-0.63,-0.63,-0.63,-0.63,-0.63,-0.63,-0.63,-0.63,-0.63,-0.6141,-0.5786,-0.5124,-0.4616,-0.372,-0.2353,-0.1923,-0.1256,-0.0314,-0.0314,-0.0196,0.0,0.0,0.0,0.0,0.0,0.0,-2.5832,-2.6219,-2.6807,-2.8033,-2.8743,-2.9388,-3.0338,-3.0867,-3.1176,-3.119,-3.1014,-3.0583,-2.9718,-2.8999,0.0,0.0,0.0,0.0,0.0,-1.8786,-1.6989,-1.588,-1.372,-1.227,-1.2138,-1.3069,-1.3903,-1.4492,-1.5149,-1.5384,-1.5221,-1.5004,-1.4613,-1.4062,-1.3617,-1.327,-1.293,-1.2747,-1.256,-1.2305,-1.2305,-1.2305,-1.2305,-1.2305,-1.2305,-1.2305,-1.2305,-1.2031,-1.1583,-1.1583,-1.1303,-1.0868,-1.0868,-1.0982,-1.1136,-1.1035,-1.1056,-1.1176,-1.1329,-1.1389,-1.1389,-1.1389,-1.1496,-1.1583,-1.1583,-1.1578,-1.1548,-1.1548,-1.1236,-1.085,-1.0663,-0.9911,-0.9084,-0.8627,-0.7859,-0.713,-0.6788,-0.6563,-0.6374,-0.63,-0.63,-0.63,-0.63,-0.63,-0.63,-0.63,-0.63,-0.63,-0.63,-0.63,-0.63,-0.63,-0.63,-0.63,-0.63,-0.606,-0.5667,-0.5124,-0.4538,-0.368,-0.247,-0.2041,-0.138,-0.0438,-0.0398,-0.0279,0.0,0.0,0.0,0.0,0.0,0.0]},{"header":{"parameterUnit":"m.s-1","parameterCategory":1,"la1":30.6,"la2":29.2853,"lo1":-89.7004,"lo2":-87.6739,"dy":0.0162,"dx":0.0183,"nx":112,"ny":82,"refTime":"2024-04-25T06:00:00:Z","depth":0,"parameterNumber":3,"parameterNumberName":"V-component_of_WINDS"},"data":[0.0,0.0,0.0,0.0,0.0,0.0,0.0,0.0,0.0,0.0,0.0,0.0,0.0,0.0,0.0,0.0,0.0,0.0,0.0,0.0,0.0,0.0,0.0,0.0,0.0,0.0,0.0,0.0,0.0,0.0,0.0,0.0,0.0,0.0,0.0,0.0,0.0,0.0,0.0,0.0,0.0,0.0,0.0,0.0,0.0,0.0,0.0,0.0,0.0,0.0,0.0,0.0,0.0,0.0,0.0,0.0,0.0,0.0,0.0,0.0,0.0,0.0,0.0,0.0,0.0,0.0,0.0,0.0,0.0,0.0,0.0,0.0,0.0,0.0,0.0,0.0,0.0,0.0,0.0,0.0,0.0,0.0,0.0,0.0,0.0,0.0,0.0,0.0,0.0,0.0,1.4507,1.2009,0.6514,0.1278,-0.3025,-0.6111,-0.8875,-1.134,0.0,0.0,0.0,0.0,0.0,0.0,0.0,0.0,0.0,0.0,0.0,0.0,0.0,0.0,0.0,0.0,0.0,0.0,0.0,0.0,0.0,0.0,0.0,0.0,0.0,0.0,0.0,0.0,0.0,0.0,0.0,0.0,0.0,0.0,0.0,0.0,0.0,0.0,0.0,0.0,0.0,0.0,0.0,0.0,0.0,0.0,0.0,0.0,0.0,0.0,0.0,0.0,0.0,0.0,0.0,0.0,0.0,0.0,0.0,0.0,0.0,0.0,0.0,0.0,0.0,0.0,0.0,0.0,0.0,0.0,0.0,0.0,0.0,0.0,0.0,0.0,0.0,0.0,0.0,0.0,0.0,0.0,0.0,0.0,0.0,0.0,0.0,0.0,0.0,0.0,0.0,0.0,0.0,0.0,0.0,0.0,0.0,0.0,0.0,0.0,0.0,0.0,0.0,0.0,1.3778,0.8861,0.4937,0.1039,-0.3044,-0.621,-0.911,-1.1825,0.0,0.0,0.0,0.0,0.0,0.0,0.0,0.0,0.0,0.0,0.0,0.0,0.0,0.0,0.0,0.0,0.0,0.0,0.0,0.0,0.0,0.0,0.0,0.0,0.0,0.0,0.0,0.0,0.0,0.0,0.0,0.0,0.0,0.0,0.0,0.0,0.0,0.0,0.0,0.0,0.0,0.0,0.0,0.0,0.0,0.0,0.0,0.0,0.0,0.0,0.0,0.0,0.0,0.0,0.0,0.0,0.0,0.0,0.0,0.0,0.0,0.0,0.0,0.0,0.0,0.0,0.0,0.0,0.0,0.0,0.0,0.0,0.0,0.0,0.0,0.0,0.0,0.0,0.0,0.0,0.0,0.0,0.0,0.0,0.0,0.0,0.0,0.0,0.0,0.0,0.0,0.0,0.0,0.0,0.0,0.0,0.0,0.0,0.0,0.0,0.0,0.0,0.0,1.501,1.2207,0.8004,0.4576,0.0895,-0.3307,-0.6553,-0.9643,-1.2628,-1.2874,0.0,0.0,0.0,0.0,0.0,0.0,0.0,0.0,0.0,0.0,0.0,0.0,0.0,0.0,0.0,0.0,0.0,0.0,0.0,0.0,0.0,0.0,0.0,0.0,0.0,0.0,0.0,0.0,0.0,0.0,0.0,0.0,0.0,0.0,0.0,0.0,0.0,0.0,0.0,0.0,0.0,0.0,0.0,0.0,0.0,0.0,0.0,0.0,0.0,0.0,0.0,0.0,0.0,0.0,0.0,0.0,0.0,0.0,0.0,0.0,0.0,0.0,0.0,0.0,0.0,0.0,0.0,0.0,0.0,0.0,0.0,0.0,0.0,0.0,0.0,0.0,0.0,0.0,0.0,0.0,0.0,0.0,0.0,0.0,0.0,0.0,0.0,0.0,0.0,0.0,0.0,0.0,0.0,0.0,0.0,0.0,0.0,0.0,0.0,0.0,0.0,0.0,1.3674,1.0931,0.7862,0.4535,0.0798,-0.3508,-0.686,-1.0107,-1.3323,-1.4136,0.0,0.0,0.0,0.0,0.0,0.0,0.0,0.0,0.0,0.0,0.0,0.0,0.0,0.0,0.0,0.0,0.0,0.0,0.0,0.0,0.0,0.0,0.0,0.0,0.0,0.0,0.0,0.0,0.0,0.0,0.0,0.0,0.0,0.0,0.0,0.0,0.0,0.0,0.0,0.0,0.0,0.0,0.0,0.0,0.0,0.0,0.0,0.0,0.0,0.0,0.0,0.0,0.0,0.0,0.0,0.0,0.0,0.0,0.0,0.0,0.0,0.0,0.0,0.0,0.0,0.0,0.0,0.0,0.0,0.0,0.0,0.0,0.0,0.0,0.0,0.0,0.0,0.0,0.0,0.0,0.0,0.0,0.0,0.0,0.0,0.0,0.0,0.0,0.0,0.0,0.0,0.0,0.0,0.0,0.0,0.0,0.0,0.0,0.0,0.0,0.0,0.0,1.3593,1.0761,0.7974,0.4466,0.0658,-0.3456,-0.6919,-1.031,-1.3643,-1.4778,0.0,0.0,0.0,0.0,0.0,0.0,0.0,0.0,0.0,0.0,0.0,0.0,0.0,0.0,0.0,0.0,0.0,0.0,0.0,0.0,0.0,0.0,0.0,0.0,0.0,0.0,0.0,0.0,0.0,0.0,0.0,0.0,0.0,0.0,0.0,0.0,0.0,0.0,0.0,0.0,0.0,0.0,0.0,0.0,0.0,0.0,0.0,0.0,0.0,0.0,0.0,0.0,0.0,0.0,0.0,0.0,0.0,0.0,0.0,0.0,0.0,0.0,0.0,0.0,0.0,0.0,0.0,0.0,0.0,0.0,0.0,0.0,0.0,0.0,0.0,0.0,0.0,0.0,0.0,0.0,0.0,0.0,0.0,0.0,0.0,0.0,0.0,0.0,0.0,0.0,0.0,0.0,0.0,0.0,0.0,0.0,0.0,0.0,0.0,0.0,0.0,0.0,1.3581,1.0755,0.7997,0.4539,0.0811,-0.3161,-0.6825,-1.0337,-1.3696,0.0,0.0,0.0,0.0,0.0,0.0,0.0,0.0,0.0,0.0,0.0,0.0,0.0,0.0,0.0,0.0,0.0,0.0,0.0,0.0,0.0,0.0,0.0,0.0,0.0,0.0,0.0,0.0,0.0,0.0,0.0,0.0,0.0,0.0,0.0,0.0,0.0,0.0,0.0,0.0,0.0,0.0,0.0,0.0,0.0,0.0,0.0,0.0,0.0,0.0,0.0,0.0,0.0,0.0,0.0,0.0,0.0,0.0,0.0,0.0,0.0,0.0,0.0,0.0,0.0,0.0,0.0,0.0,0.0,0.0,0.0,0.0,0.0,0.0,0.0,0.0,0.0,0.0,0.0,0.0,0.0,0.0,0.0,0.0,0.0,0.0,0.0,0.0,0.0,0.0,0.0,0.0,0.0,0.0,0.0,0.0,0.0,0.0,0.0,0.0,0.0,0.0,1.6443,1.3677,1.086,0.8211,0.4723,0.1068,-0.2703,-0.643,-1.0079,-1.3538,0.0,0.0,0.0,0.0,0.0,0.0,0.0,0.0,0.0,0.0,0.0,0.0,0.0,0.0,0.0,0.0,0.0,0.0,0.0,0.0,0.0,0.0,0.0,0.0,0.0,0.0,0.0,0.0,0.0,0.0,0.0,0.0,0.0,0.0,0.0,0.0,0.0,0.0,0.0,0.0,0.0,0.0,0.0,0.0,0.0,0.0,0.0,0.0,0.0,0.0,0.0,0.0,0.0,0.0,0.0,0.0,0.0,0.0,0.0,0.0,0.0,0.0,0.0,0.0,0.0,0.0,0.0,0.0,0.0,0.0,0.0,0.0,0.0,0.0,0.0,0.0,0.0,0.0,0.0,0.0,0.0,0.0,0.0,0.0,0.0,0.0,0.0,0.0,0.0,0.0,0.0,0.0,0.0,0.0,0.0,0.0,0.0,0.0,0.0,0.0,0.0,0.0,1.6707,1.3848,1.1094,0.8655,0.503,0.1388,-0.2098,-0.5777,-0.9482,0.0,0.0,0.0,0.0,0.0,0.0,0.0,0.0,0.0,0.0,0.0,0.0,0.0,0.0,0.0,0.0,0.0,0.0,0.0,0.0,0.0,0.0,0.0,0.0,0.0,0.0,0.0,0.0,0.0,0.0,0.0,0.0,0.0,0.0,0.0,0.0,0.0,0.0,0.0,0.0,0.0,0.0,0.0,0.0,0.0,0.0,0.0,0.0,0.0,0.0,0.0,0.0,0.0,0.0,0.0,0.0,0.0,0.0,0.0,0.0,0.0,0.0,0.0,0.0,0.0,0.0,0.0,0.0,0.0,0.0,0.0,0.0,0.0,0.0,0.0,0.0,0.0,0.0,0.0,0.0,0.0,0.0,0.0,0.0,0.0,0.0,0.0,0.0,0.0,0.0,0.0,0.0,0.0,0.0,0.0,0.0,0.0,0.0,0.0,0.0,0.0,0.0,0.0,1.6266,1.3799,1.1144,0.8335,0.5108,0.1808,-0.1561,-0.5226,-0.8851,-1.2435,0.0,0.0,0.0,0.0,0.0,0.0,0.0,0.0,0.0,0.0,0.0,0.0,0.0,0.0,0.0,0.0,0.0,0.0,0.0,0.0,0.0,0.0,0.0,0.0,0.0,0.0,0.0,0.0,0.0,0.0,0.0,0.0,0.0,0.0,0.0,0.0,0.0,0.0,0.0,0.0,0.0,0.0,0.0,0.0,0.0,0.0,0.0,0.0,0.0,0.0,0.0,0.0,0.0,0.0,0.0,0.0,0.0,0.0,0.0,0.0,0.0,0.0,0.0,0.0,0.0,0.0,0.0,0.0,0.0,0.0,0.0,0.0,0.0,0.0,0.0,0.0,0.0,0.0,0.0,0.0,0.0,0.0,0.0,0.0,0.0,0.0,0.0,0.0,0.0,0.0,0.0,0.0,0.0,0.0,0.0,0.0,0.0,0.0,0.0,0.0,0.0,0.0,1.6119,1.3729,1.1163,0.8396,0.5225,0.2052,-0.1013,-0.4471,-0.7912,-1.1286,0.0,0.0,0.0,0.0,0.0,0.0,0.0,0.0,0.0,0.0,0.0,0.0,0.0,0.0,0.0,0.0,0.0,0.0,0.0,0.0,0.0,0.0,0.0,0.0,0.0,0.0,0.0,0.0,0.0,0.0,0.0,0.0,0.0,0.0,0.0,0.0,0.0,0.0,0.0,0.0,0.0,0.0,0.0,0.0,0.0,0.0,0.0,0.0,0.0,0.0,0.0,0.0,0.0,0.0,0.0,0.0,0.0,0.0,0.0,0.0,0.0,0.0,0.0,0.0,0.0,0.0,0.0,0.0,0.0,0.0,0.0,0.0,0.0,0.0,0.0,0.0,0.0,0.0,0.0,0.0,0.0,0.0,0.0,0.0,0.0,0.0,0.0,0.0,0.0,0.0,0.0,0.0,0.0,0.0,0.0,0.0,0.0,0.0,0.0,0.0,0.0,0.0,1.614,1.3698,1.1161,0.8635,0.5366,0.2238,-0.0528,-0.3627,-0.6792,-1.0028,0.0,0.0,0.0,0.0,0.0,0.0,0.0,0.0,0.0,0.0,0.0,0.0,0.0,0.0,0.0,0.0,0.0,0.0,0.0,0.0,0.0,0.0,0.0,0.0,0.0,0.0,0.0,0.0,0.0,0.0,0.0,0.0,0.0,0.0,0.0,0.0,0.0,0.0,0.0,0.0,0.0,0.0,0.0,0.0,0.0,0.0,0.0,0.0,0.0,0.0,0.0,0.0,0.0,0.0,0.0,0.0,0.0,0.0,0.0,0.0,0.8177,0.7438,0.0,0.0,0.0,0.0,0.0,0.0,0.0,0.0,0.0,0.0,0.0,0.0,0.0,0.0,0.0,0.0,0.0,0.0,0.0,0.0,0.0,0.0,0.0,0.0,0.0,0.0,0.0,0.0,0.0,0.0,0.0,0.0,0.0,0.0,0.0,0.0,0.0,0.0,0.0,0.0,1.5569,1.3617,1.1309,0.8388,0.5501,0.2621,-0.0244,-0.3175,-0.6247,-0.947,-1.1549,0.0,0.0,0.0,0.0,0.0,0.0,0.0,0.0,0.0,0.0,0.0,0.0,0.0,0.0,0.0,0.0,0.0,0.0,0.0,0.0,0.0,0.0,0.0,0.0,0.0,0.0,0.0,0.0,0.0,0.0,0.0,0.0,0.0,0.0,0.0,0.0,0.0,0.0,0.0,0.0,0.0,0.0,0.0,0.0,0.0,0.0,0.0,0.0,0.0,0.0,0.0,0.0,0.0,0.0,0.0,0.0,0.0,0.0,0.0,0.9283,0.8434,0.0,0.0,0.0,0.0,0.0,0.0,0.0,0.0,0.0,0.0,0.0,0.0,0.0,0.0,0.0,0.0,0.0,0.0,0.0,0.0,0.0,0.0,0.0,0.0,0.0,0.0,0.0,0.0,0.0,0.0,0.0,0.0,0.0,0.0,0.0,0.0,0.0,0.0,0.0,0.0,1.5287,1.3442,1.1222,0.8397,0.558,0.2819,0.0114,-0.254,-0.5358,-0.8354,-1.0488,0.0,0.0,0.0,0.0,0.0,0.0,0.0,0.0,0.0,0.0,0.0,0.0,0.0,0.0,0.0,0.0,0.0,0.0,0.0,0.0,0.0,0.0,0.0,0.0,0.0,0.0,0.0,0.0,0.0,0.0,0.0,0.0,0.0,0.0,0.0,0.0,0.0,0.0,0.0,0.0,0.0,0.0,0.0,0.0,0.0,0.0,0.0,0.0,0.0,0.0,0.0,0.0,0.0,1.4148,1.3573,1.3127,1.2886,1.2697,1.245,1.0774,0.985,0.9514,0.9094,0.0,0.0,0.0,0.0,0.0,0.0,0.0,0.0,0.0,0.0,0.0,0.0,0.0,0.0,0.0,0.0,0.0,0.0,0.0,0.0,0.0,0.0,1.037,0.9906,0.934,0.8752,0.8276,0.0,0.0,0.0,0.0,0.0,0.0,0.0,0.0,0.0,0.0,0.0,1.5107,1.3209,1.105,0.8537,0.5707,0.3025,0.058,-0.1846,-0.439,-0.7059,-0.9329,-1.1031,0.0,0.0,0.0,0.0,0.0,0.0,0.0,0.0,0.0,0.0,0.0,0.0,0.0,0.0,0.0,0.0,0.0,0.0,0.0,0.0,0.0,0.0,0.0,0.0,0.0,0.0,0.0,0.0,0.0,0.0,0.0,0.0,1.8665,1.7428,0.0,0.0,0.0,0.0,0.0,0.0,0.0,0.0,0.0,0.0,0.0,0.0,0.0,1.7375,1.7382,1.7265,1.6874,1.6237,1.6065,1.5763,1.5277,1.4912,1.4733,1.4643,1.3996,0.0,1.1327,1.1029,0.0,0.0,0.0,0.0,0.0,0.0,0.0,0.0,0.0,0.0,0.0,0.0,0.0,0.0,0.0,0.0,0.0,0.0,0.0,0.0,0.0,0.0,1.0675,1.03,1.015,0.9986,0.9697,0.9058,0.8797,0.9623,1.0467,1.1535,0.0,0.0,0.0,0.0,0.0,0.0,1.4771,1.2842,1.0799,0.8768,0.607,0.351,0.1267,-0.1198,-0.3619,-0.5968,-0.8085,-0.9714,-1.0709,-1.1817,0.0,0.0,0.0,0.0,0.0,0.0,0.0,0.0,0.0,0.0,0.0,0.0,0.0,0.0,0.0,0.0,0.0,0.0,0.0,0.0,0.0,0.0,0.0,0.0,0.0,0.0,0.0,0.0,0.0,2.0878,1.9886,1.8819,1.839,1.8216,0.0,0.0,0.0,0.0,0.0,0.0,0.0,0.0,0.0,1.9369,1.9229,1.9042,1.8894,1.8749,1.8157,1.7159,1.7019,1.6469,1.5564,1.5405,1.5213,1.498,1.4772,1.4245,1.3467,1.2783,1.2211,1.1781,0.0,0.0,0.0,0.0,1.2114,1.21,1.1975,1.1959,1.1939,1.1598,0.0,0.0,0.0,0.0,0.0,0.0,0.0,1.2447,1.1665,1.1279,1.1058,1.073,1.0645,1.0675,1.0742,1.0474,1.0223,1.0205,1.0812,1.172,1.2895,1.3912,0.0,0.0,0.0,1.5411,1.4681,1.2782,1.0827,0.9076,0.6522,0.4103,0.2005,-0.032,-0.2665,-0.5028,-0.69,-0.8587,-1.0052,-1.1092,-1.1545,0.0,0.0,0.0,0.0,0.0,0.0,0.0,0.0,0.0,0.0,0.0,0.0,0.0,0.0,0.0,0.0,0.0,0.0,0.0,0.0,0.0,0.0,0.0,0.0,0.0,0.0,0.0,0.0,2.2014,2.1401,2.0542,2.0012,1.9855,0.0,0.0,0.0,0.0,0.0,0.0,2.112,2.0808,2.063,2.0623,2.0595,2.0397,1.9995,1.9793,1.9162,1.8132,1.7941,1.7324,1.6358,1.6274,1.6084,1.5787,1.5787,1.5691,1.538,1.4229,1.3474,1.3034,1.3116,1.2953,1.2701,1.2919,1.2905,1.2834,1.2842,1.2964,1.3048,1.2711,1.3058,1.3615,1.3551,0.0,0.0,0.0,0.0,1.2791,1.1981,1.1729,1.16,1.1354,1.1288,1.1351,1.1651,1.1757,1.1615,1.1,1.1442,1.2191,1.3108,1.3946,0.0,1.5642,1.5512,1.5042,1.4298,1.2559,1.078,0.9225,0.6942,0.4744,0.2794,0.06,-0.1652,-0.3962,-0.5814,-0.7551,-0.9162,-1.0211,-1.0777,-1.0834,0.0,0.0,0.0,0.0,0.0,0.0,0.0,0.0,0.0,0.0,0.0,0.0,0.0,0.0,0.0,0.0,0.0,0.0,0.0,0.0,0.0,0.0,0.0,0.0,0.0,0.0,0.0,0.0,0.0,2.2787,2.208,0.0,0.0,0.0,0.0,2.3503,2.3603,2.364,2.3602,2.2762,2.2052,2.1533,2.1397,2.1016,2.0293,2.0078,1.9743,1.9297,1.9095,1.8893,1.8626,1.8368,1.8248,1.8212,1.8212,1.7776,1.6936,1.5161,1.4336,1.4096,1.3851,1.3394,1.2911,1.3107,1.2942,1.2691,1.3245,1.354,1.3775,1.4353,1.5006,1.5562,1.5488,1.5193,0.0,0.0,1.3928,1.3124,1.288,1.2597,1.2357,1.2323,1.2314,1.2353,1.2505,1.254,1.2487,1.226,1.2491,1.3011,1.3802,0.0,1.508,1.5145,1.5062,1.4563,1.3335,1.1972,1.0541,0.907,0.7266,0.5435,0.3681,0.1511,-0.0636,-0.2667,-0.4842,-0.6546,-0.7673,-0.891,-0.9638,-0.9783,-0.9388,0.0,0.0,0.0,0.0,0.0,0.0,0.0,0.0,0.0,0.0,0.0,0.0,0.0,0.0,0.0,0.0,0.0,0.0,0.0,0.0,0.0,0.0,0.0,0.0,0.0,0.0,0.0,0.0,2.3963,2.379,0.0,2.4419,2.4767,2.5156,2.5592,2.534,2.5099,2.4961,2.4271,2.3553,2.2795,2.2713,2.216,2.1037,2.0931,2.0537,1.9801,1.9721,1.9383,1.8799,1.871,1.8607,1.8458,1.8096,1.7793,1.7444,1.6489,1.5739,1.5155,1.506,1.4798,1.4463,1.4522,1.4471,1.437,1.4575,1.4704,1.4738,1.4814,1.4907,1.4998,1.5076,1.4969,1.476,1.4451,1.4123,1.3761,1.3323,1.3135,1.3016,1.2943,1.2991,1.3064,1.3088,1.3399,1.3655,1.3707,1.3577,1.3697,1.4456,1.4809,1.5105,1.555,1.4752,1.3959,1.3531,1.1908,1.043,0.9515,0.7871,0.6172,0.4513,0.2309,0.0179,-0.1735,-0.374,-0.5415,-0.6719,-0.7696,-0.8329,-0.8536,-0.8236,-0.7502,0.0,0.0,0.0,0.0,0.0,0.0,0.0,0.0,0.0,0.0,0.0,0.0,0.0,0.0,0.0,0.0,0.0,0.0,0.0,0.0,0.0,0.0,0.0,0.0,0.0,2.5861,2.5883,2.5898,2.5831,2.5967,2.6487,2.6694,2.6826,2.6961,2.6586,2.6188,2.5898,2.5254,2.4472,2.3513,2.3467,2.2811,2.1576,2.1509,2.1174,2.0521,2.0358,1.9976,1.9458,1.9287,1.9148,1.8998,1.8627,1.8374,1.8205,1.768,1.6979,1.6247,1.61,1.5772,1.5361,1.5298,1.5093,1.4894,1.5067,1.524,1.537,1.5369,1.5353,1.5345,1.5515,1.5488,1.5318,1.499,1.4785,1.459,1.423,1.4131,1.4131,1.4143,1.4213,1.4239,1.4053,1.4293,1.4541,1.4503,1.4272,1.4271,1.491,1.5028,1.5129,1.5473,1.4563,1.3717,1.334,1.1837,1.0507,0.9754,0.8395,0.6913,0.5334,0.3201,0.1132,-0.077,-0.2605,-0.4154,-0.5339,-0.6187,-0.669,-0.6824,-0.6342,-0.5458,-0.4195,0.0,0.0,0.0,0.0,0.0,0.0,0.0,0.0,0.0,0.0,0.0,0.0,0.0,0.0,0.0,0.0,0.0,0.0,0.0,0.0,0.0,0.0,0.0,2.7838,2.8101,2.8468,2.8724,2.8176,2.7859,2.8064,2.8114,2.7971,2.7582,2.7347,2.6992,2.6469,2.5743,2.4865,2.3773,2.3616,2.3036,2.1951,2.1741,2.1647,2.1624,2.1087,2.081,2.0775,2.0246,2.0024,2.0018,2.0006,1.9742,1.9249,1.8655,1.7996,1.7266,1.6847,1.6216,1.5496,1.5303,1.475,1.4155,1.4663,1.5158,1.5607,1.614,1.6491,1.6739,1.701,1.6812,1.6465,1.6337,1.5981,1.5635,1.5635,1.5623,1.5678,1.592,1.5974,1.5837,1.5309,1.5208,1.5069,1.4622,1.4577,1.477,1.5232,1.525,1.5114,1.4831,1.4496,0.0,1.2647,1.1736,1.0793,0.9736,0.8785,0.7636,0.6172,0.4191,0.2213,0.0278,-0.148,-0.276,-0.3493,-0.4346,-0.4748,-0.4597,-0.3681,-0.2466,-0.1,0.0,0.0,0.0,0.0,0.0,0.0,0.0,0.0,0.0,0.0,0.0,0.0,0.0,0.0,0.0,0.0,0.0,0.0,0.0,0.0,0.0,2.979,3.0412,2.9357,2.9319,2.9514,2.9808,2.9719,2.9643,2.9745,2.9353,2.9062,2.8972,2.8115,2.7584,2.7432,2.6845,2.5971,2.4755,2.4698,2.4053,2.2768,2.2725,2.2407,2.1877,2.1731,2.1345,2.0737,2.0565,2.0505,2.0497,2.0137,1.9791,1.9407,1.8835,1.8312,1.7727,1.6882,1.6245,1.5791,1.5796,1.5771,1.5771,1.5971,1.6146,1.6303,1.6296,1.6414,1.6561,1.6628,1.6596,1.6495,1.6473,1.6361,1.625,1.625,1.5962,1.5695,1.5757,1.5532,1.5226,1.5096,1.5163,1.5287,1.5291,1.5181,1.5178,1.5414,1.5351,1.5186,1.4913,1.421,1.3423,1.2605,1.1702,1.0914,1.0385,0.9482,0.8373,0.6995,0.5121,0.3244,0.145,-0.0068,-0.1197,-0.1839,-0.2408,-0.26,-0.2312,-0.1377,-0.027,0.0,0.0,0.0,0.0,0.0,0.0,0.0,0.0,0.0,0.0,0.0,0.0,0.0,0.0,0.0,0.0,0.0,0.0,0.0,0.0,0.0,0.0,3.1806,3.2702,3.2366,3.1844,3.1523,3.1619,3.1378,3.104,3.0769,3.0257,2.9707,2.9168,2.8577,2.8118,2.7816,2.7572,2.6869,2.5649,2.561,2.4991,2.3695,2.3451,2.3081,2.2674,2.213,2.1625,2.1104,2.0811,2.0644,2.0619,2.0161,1.985,1.9598,1.8834,1.8359,1.801,0.0,0.0,0.0,0.0,1.6303,1.6514,1.6579,1.6683,1.6766,1.6799,1.6909,1.7076,1.7201,1.7305,1.7366,1.7312,1.7312,1.7312,1.7312,1.6856,1.6454,1.6628,1.6238,1.5792,1.5627,1.5679,1.5719,1.5629,1.5527,0.0,1.5677,1.5531,1.5266,1.4906,1.4208,1.3458,1.2766,1.1907,1.1205,1.082,1.0058,0.9063,0.782,0.6107,0.0,0.0,0.0,0.0583,0.0038,-0.0224,0.0,0.0,0.0,0.1587,0.2688,0.3641,0.0,0.0,0.6005,0.7042,0.0,0.0,0.0,0.0,0.0,0.0,0.0,0.0,0.0,0.0,0.0,0.0,0.0,0.0,0.0,0.0,3.3788,3.4923,3.5904,3.4984,3.4109,3.3699,3.3108,3.2307,3.1428,3.0975,3.0147,2.8862,2.8852,2.8652,2.7967,2.7973,0.0,0.0,0.0,2.5775,2.4666,2.4048,2.3727,2.3647,2.2431,2.1795,2.1639,2.0984,2.0684,2.0658,2.0178,1.9946,1.9884,1.8848,1.8363,1.8243,1.789,1.7547,1.7226,1.676,1.6689,1.6862,1.6995,0.0,0.0,1.7585,1.7834,1.8046,1.835,1.8577,1.8679,1.8574,1.854,1.854,1.854,1.7993,1.7539,1.7895,1.7412,1.6779,1.6417,1.6347,1.6246,1.5771,1.5753,1.588,1.6058,1.5807,1.5442,1.4975,1.445,1.3835,1.3115,1.2305,1.1612,1.1159,1.0551,0.0,0.8618,0.7133,0.5672,0.4287,0.3206,0.2446,0.2017,0.2135,0.2293,0.2485,0.2774,0.3337,0.4199,0.5023,0.5944,0.6967,0.6843,0.7396,0.0,0.0,0.0,0.0,0.0,0.0,0.0,0.0,0.0,0.0,0.0,0.0,0.0,0.0,0.0,3.4837,3.557,3.6242,3.7334,3.713,3.6338,3.4963,3.4547,3.3864,3.2472,3.1831,3.0996,2.9748,2.9301,2.8986,2.8844,2.8351,2.7766,2.7056,2.656,2.6085,2.5633,2.498,2.4411,2.3923,2.3175,0.0,2.1439,2.1318,2.1253,2.1213,2.062,2.0325,2.0174,1.9426,1.8965,1.8674,1.7756,1.7542,1.7773,1.7774,1.7973,1.8249,1.8424,1.8559,1.8641,1.8803,1.9024,1.9181,1.9251,1.9328,0.0,1.9386,1.9372,1.9372,1.9372,1.8545,1.7749,1.7815,1.6937,1.6083,1.6006,1.612,1.6218,1.6163,1.6351,1.6549,1.669,1.6456,1.6091,1.5675,1.5097,1.4474,1.3791,1.2914,1.2184,1.1781,1.1139,1.0353,0.9367,0.807,0.6772,0.554,0.4553,0.3966,0.389,0.4367,0.4682,0.4842,0.5261,0.5667,0.6069,0.658,0.7204,0.793,0.7842,0.8323,0.0,0.0,0.0,0.0,0.0,0.0,0.0,0.0,0.0,0.0,0.0,3.3043,3.3841,0.0,3.5122,3.651,3.713,3.7625,3.8266,3.827,3.7677,3.6275,3.5835,3.4981,3.3316,3.2727,3.183,3.0318,3.004,2.9884,2.9713,2.9167,2.856,2.7952,2.7329,2.6789,2.6285,2.5331,2.4704,2.4387,2.3383,2.2593,2.2063,2.1992,2.1945,2.1913,2.1097,2.0719,2.0598,1.9746,1.9409,1.9346,1.8816,1.8622,1.8669,1.8836,1.9043,1.9196,1.9321,1.9398,1.9492,1.9648,1.9776,1.9934,2.0143,2.0263,2.03,2.0335,2.0352,2.0258,1.9898,1.9107,1.8328,1.8013,1.7208,1.652,1.6533,1.6628,1.6735,1.6825,1.6952,1.7101,1.7272,1.7158,1.6816,1.6145,1.5501,1.4814,1.4047,1.3193,1.25,1.2149,1.1593,1.0905,1.007,0.859,0.733,0.645,0.5763,0.5535,0.5839,0.6044,0.6307,0.6645,0.6849,0.7128,0.7502,0.7831,0.8338,0.8996,0.9177,0.9495,0.0,0.0,0.0,0.0,0.0,0.0,0.0,3.562,3.5782,3.6238,3.6375,3.6424,3.6578,3.7079,3.7541,3.7775,3.828,3.8667,3.8761,3.8832,3.8495,3.7576,3.7055,3.6028,3.4135,3.3713,3.2766,3.0969,3.094,3.0837,3.0424,2.9929,2.9387,2.8757,2.8098,2.7439,2.6766,2.5624,2.497,2.4824,2.351,2.2852,2.283,2.2717,2.2672,2.2667,2.1651,2.1087,2.0798,2.0038,1.9877,2.0074,2.0143,2.0019,1.977,1.9839,1.9945,2.0019,2.0019,2.0091,2.0195,2.0362,2.0482,2.0616,2.0958,2.1087,2.1182,2.1228,2.1244,2.1067,2.0326,1.963,1.8961,1.8326,1.7787,1.7367,1.7285,1.7375,1.7489,1.7477,1.7507,1.7561,1.7743,1.7794,1.7535,1.6736,1.592,1.5128,1.439,1.3467,1.2738,1.2427,1.1992,1.1383,1.055,0.9017,0.7865,0.7335,0.699,0.7018,0.7473,0.7471,0.7659,0.8085,0.8143,0.8357,0.8725,0.8995,0.9434,1.0055,1.0476,1.0611,3.1454,3.2607,3.4036,3.5439,3.6251,3.6736,0.0,3.7436,3.7652,3.7614,3.7648,3.7764,3.8019,3.8089,3.8203,3.8603,3.8728,3.8777,3.8805,3.8914,3.8942,3.8788,3.8383,3.7265,3.5143,3.4802,3.3929,3.2053,3.1836,3.1509,3.0865,3.0226,2.9562,2.8902,2.8233,2.7603,2.7048,2.625,2.5568,2.4964,2.3976,2.3443,2.3319,2.3238,2.3304,2.3412,2.249,2.1399,2.0319,2.0557,2.0663,2.0729,2.1023,2.1119,2.1039,2.0647,2.0648,2.0862,2.0862,2.0975,2.1151,2.1183,2.134,2.154,2.1602,2.1663,2.1706,2.1721,2.1721,2.1556,2.0803,2.0077,1.9349,1.862,1.8439,1.8245,1.76,1.8026,1.8394,1.7861,1.7845,1.7961,1.8031,1.8091,1.8053,1.7759,1.655,1.5588,1.5438,1.4035,1.2988,1.2766,1.2372,1.1665,1.0509,0.9626,0.8926,0.8452,0.8314,0.8238,0.8191,0.8785,0.9124,0.9124,0.96,0.9855,0.9911,1.0117,1.0468,1.0958,1.1358,1.1339,3.3904,3.5247,3.6663,3.7928,3.8836,3.9577,4.003,4.0202,4.0259,4.0246,4.0103,3.9945,3.9781,3.9513,3.9257,3.9065,3.8843,3.8667,3.8572,3.8667,3.8777,3.8777,3.8832,3.8242,3.6651,3.6009,3.5011,3.3498,3.294,3.2292,3.1466,3.0798,3.0094,2.9406,2.8722,2.8076,2.745,2.6763,2.6002,2.5222,2.4478,2.4051,2.3931,2.3967,2.3672,2.3118,2.2717,2.1886,2.0845,2.1007,2.1183,2.134,2.148,2.1587,2.1616,2.1245,2.1245,2.1417,2.1417,2.1494,2.1602,2.1631,2.1721,2.1842,2.1963,2.2007,2.2051,2.2077,2.2092,2.1809,2.0606,2.0056,1.9651,1.8909,1.8773,1.8896,1.9092,1.9095,1.8996,1.881,1.8527,1.8315,1.8378,1.8408,1.8398,1.832,1.6878,1.5797,1.5731,1.4294,1.314,1.2781,1.2426,1.1879,1.1059,1.0485,0.9995,0.9562,0.9356,0.9292,0.9403,0.9508,0.9817,1.0344,1.0484,1.0751,1.1153,1.1339,1.1634,1.1972,1.2263,1.2384,3.6219,3.7536,3.8733,4.0175,4.1163,4.1899,4.2358,4.2395,4.2334,4.2306,4.2018,4.1609,4.1042,4.0514,3.9978,3.9312,3.8799,3.8472,3.829,3.8303,3.8387,3.8455,3.8832,3.8782,3.7981,3.7008,3.5898,3.475,3.3968,3.3083,3.1991,3.1469,3.0789,2.988,2.9366,2.8693,2.78,2.7251,2.6456,2.5435,2.4884,2.4589,2.4553,2.4503,2.391,2.2961,2.284,2.2244,2.1402,2.1449,2.1587,2.1753,2.1814,2.1903,2.1959,2.1781,2.1751,2.1766,2.1766,2.1842,2.1917,2.1959,2.2003,2.2032,2.2183,2.2242,2.2225,2.2282,2.2296,2.1992,2.0673,2.0335,2.0145,1.9425,1.9464,1.9804,2.0259,1.9993,1.9679,1.9623,1.9054,1.8601,1.867,1.8679,1.8679,1.8679,1.7399,1.629,1.5946,1.4461,1.3287,1.292,1.2578,1.2209,1.177,1.1369,1.0984,1.0656,1.0365,1.0289,1.0462,1.0297,1.0501,1.1125,1.1317,1.1662,1.2147,1.2516,1.2827,1.3046,1.3285,1.352,3.8196,3.9171,4.0119,4.2118,4.2923,4.326,4.3345,4.3399,4.3368,4.3123,4.2754,4.2226,4.1437,4.0791,4.0128,3.9322,3.8717,3.823,3.7943,3.7801,3.7831,3.8071,3.8399,3.8706,3.8936,3.7696,3.6509,3.5618,3.4882,3.381,3.2371,3.2289,3.1618,3.0228,3.0162,2.9459,2.802,2.7774,2.696,2.56,2.5095,2.4997,2.5157,2.4641,2.4023,2.3348,2.29,2.2307,2.1709,2.1825,2.1899,2.1913,2.2109,2.2185,2.2214,2.2254,2.2147,2.1998,2.1998,2.2075,2.22,2.22,2.2225,2.2296,2.2296,2.2296,2.2296,2.2296,2.2296,2.211,2.136,2.1156,2.0983,2.0331,2.0764,2.1173,2.061,2.0587,2.0512,2.0,1.9286,1.8807,1.8878,1.8895,1.8895,1.8895,1.823,1.7375,1.6316,1.4603,1.3443,1.3303,1.3035,1.2781,1.2591,1.2189,1.1906,1.1764,1.1439,1.123,1.1165,1.1346,1.1375,1.1202,1.2205,1.2748,1.2761,1.3549,1.402,1.416,1.4493,1.468,3.9451,4.0655,4.1847,4.3331,4.3911,4.4123,4.4238,4.419,4.4016,4.3703,4.3212,4.2638,4.2015,4.1145,4.0334,3.968,3.8876,3.8214,3.7943,3.7801,3.773,3.7831,3.8205,3.8544,3.8722,3.7791,3.7003,3.6612,3.5546,3.423,3.265,3.2568,3.1907,3.0434,3.0401,2.9692,2.8207,2.8132,2.735,2.5864,2.5661,2.5607,2.5721,2.5041,2.4408,2.3836,2.319,2.2554,2.2039,2.208,2.2123,2.2163,2.224,2.2285,2.2268,2.2282,2.2251,2.2192,2.2192,2.2265,2.2338,2.2338,2.2405,2.2501,2.2501,2.2542,2.2569,2.2569,2.2569,2.2394,2.1666,2.1473,2.1404,2.1171,2.1409,2.1762,2.2139,2.1567,2.094,2.0859,1.9849,1.9025,1.9084,1.9111,1.8929,1.8385,1.7563,1.6661,1.5724,1.4564,1.3778,1.3653,1.3436,1.3219,1.3011,1.2792,1.2566,1.2345,1.2133,1.1958,1.18,1.1781,1.1896,1.2185,1.2463,1.2795,1.3204,1.4013,1.4472,1.4615,1.5255,1.5649,4.0457,4.1764,4.3062,4.4194,4.4637,4.4795,4.4862,4.4726,4.4484,4.4154,4.3623,4.3032,4.248,4.1547,4.0679,4.0186,3.9209,3.8467,3.8258,3.7902,3.773,3.7772,3.8091,3.8359,3.8583,3.78,3.7253,3.7228,3.5783,3.4314,3.3028,3.271,3.2009,3.0786,3.0503,2.9785,2.8569,2.8229,2.7422,2.61,2.6099,2.6099,2.6067,2.516,2.453,2.4144,2.3173,2.2547,2.2242,2.2242,2.2254,2.2296,2.2296,2.2296,2.231,2.2324,2.2338,2.2338,2.2338,2.2394,2.2446,2.2487,2.2565,2.2672,2.2699,2.2738,2.2777,2.2777,2.2777,2.2656,2.2197,2.2059,2.2071,2.2121,2.222,2.2481,2.3129,2.2167,2.1227,2.1375,2.0199,1.9182,1.924,1.924,1.9065,1.8535,1.7468,1.6392,1.5526,1.4629,1.4033,1.3913,1.3771,1.3601,1.3427,1.3278,1.3131,1.2928,1.2792,1.2654,1.2495,1.2362,1.2441,1.2768,1.2906,1.3161,1.3546,1.4643,1.5223,1.533,1.6167,1.6639,4.12,4.2476,4.3708,4.4706,4.5094,4.5239,4.5213,4.5,4.4745,4.4452,4.394,4.337,4.2827,4.1934,4.1168,4.0696,3.9732,3.899,3.8843,3.8234,3.7801,3.7943,3.8042,3.827,3.8546,3.7751,3.7278,3.7443,3.5638,3.4167,3.344,3.2679,3.1935,3.1207,3.0461,2.9734,2.8991,2.809,2.7191,2.6313,2.6434,2.6434,2.628,2.4994,2.4418,2.4334,2.291,2.2296,2.2296,2.2296,2.2296,2.2296,2.2296,2.2296,2.231,2.238,2.2391,2.2422,2.2419,2.246,2.2542,2.2672,2.2777,2.2838,2.2919,2.2927,2.2927,2.2927,2.2927,2.2927,2.2927,2.2927,2.2965,2.3089,2.3193,2.3295,2.3549,2.2394,2.1367,2.158,2.0355,1.9306,1.9315,1.9305,1.9305,1.9305,1.7931,1.6606,1.5771,1.482,1.4182,1.4123,1.406,1.3949,1.3831,1.3708,1.3581,1.3528,1.3404,1.3295,1.321,1.309,1.3003,1.2935,1.3497,1.3825,1.3857,1.5435,1.621,1.626,1.7199,1.7642,4.1807,4.2542,4.3141,4.4162,4.4451,4.4643,4.5225,4.4611,4.402,4.4339,4.3414,4.264,4.2886,4.2118,4.1361,4.1082,4.0228,3.9506,3.9276,3.8898,3.8639,3.8567,3.8678,3.8646,3.8266,3.7693,3.7175,3.6776,3.5363,3.4167,3.344,3.2596,3.1813,3.1069,3.0286,2.9508,2.8772,2.7477,2.6705,2.652,2.6571,2.6572,2.6539,2.5121,2.4477,2.4392,2.2922,2.2296,2.2296,2.2296,2.2296,2.2296,2.2296,2.2296,2.231,2.238,2.2432,2.2501,2.2699,2.2751,2.2751,2.2881,2.3082,2.3265,2.333,2.3376,2.3427,2.3427,2.3427,2.3427,2.3427,2.3427,2.3427,2.3461,2.3518,2.3613,2.3721,2.2584,2.1553,2.1643,2.0439,1.9398,1.9435,1.9439,1.945,1.9442,1.8034,1.688,1.6604,1.5317,1.4399,1.4324,1.4262,1.4172,1.4028,1.3995,1.3905,1.3733,1.3694,1.3613,1.3507,1.3466,1.3457,1.3497,1.3647,1.4049,1.4701,1.5607,1.6356,1.6954,1.7755,1.8156,4.231,4.2676,4.2967,4.3493,4.3636,4.3723,4.4094,4.3506,4.2951,4.3165,4.2375,4.182,4.2449,4.188,4.1364,4.1583,4.0778,4.0087,3.9927,3.9504,3.9202,3.9121,3.9175,3.8957,3.8247,3.7795,3.723,3.6555,3.4958,3.3846,3.3423,3.2272,3.1284,3.0544,2.9685,2.8722,2.7616,2.6799,2.6451,2.6521,2.6572,2.664,2.664,2.5168,2.4491,2.4423,2.2936,2.2296,2.2296,2.2296,2.2296,2.2296,2.2296,2.2296,2.2324,2.2432,2.2542,2.2632,2.297,2.3089,2.3126,2.3235,2.3395,2.3544,2.3609,2.3657,2.3692,2.3692,2.3692,2.3692,2.3692,2.3692,2.3692,2.3714,2.3764,2.3816,2.3907,2.2728,2.1442,2.0813,2.0047,1.9493,1.9546,1.9571,1.946,1.907,1.788,1.6885,1.6471,1.5307,1.4489,1.446,1.4417,1.4344,1.4245,1.42,1.4302,1.456,1.4567,1.4677,1.4979,1.4645,1.4471,1.4523,1.4527,1.4788,1.5318,1.6384,1.7149,1.7616,1.836,1.8726,4.2666,4.2708,4.2682,4.2724,4.2716,4.2661,4.2565,4.2122,4.171,4.1595,4.1104,4.0912,4.1648,4.1319,4.1138,4.1798,4.1103,4.0477,4.0517,3.9961,3.9563,3.9563,3.9563,3.923,3.8345,3.7927,3.7316,3.6316,3.4469,3.3406,3.3406,3.1864,3.0569,2.9691,2.8848,2.7684,2.6134,2.6207,2.6279,2.6383,2.6521,2.6623,2.664,2.5168,2.4491,2.4423,2.2936,2.2296,2.2296,2.2296,2.2296,2.2296,2.2296,2.2296,2.2324,2.2515,2.2632,2.2777,2.3168,2.3407,2.3538,2.3605,2.3671,2.3747,2.3824,2.3855,2.3847,2.3847,2.3847,2.3847,2.3847,2.3847,2.3876,2.3927,2.3937,2.3976,2.4084,2.285,2.1263,1.9726,1.9536,1.9625,1.9641,1.9681,1.9413,1.8566,1.7695,1.6822,1.5945,1.5052,1.4517,1.45,1.4518,1.4488,1.4428,1.4478,1.4837,1.5586,1.5668,1.6039,1.6812,1.6111,1.5734,1.5809,1.5821,1.5913,1.606,1.7476,1.8213,1.8305,1.8959,1.9243,4.2717,4.1961,4.1088,4.1739,4.178,4.1758,4.2105,4.1265,4.0529,4.0887,4.0173,3.9715,4.0456,4.0281,4.0217,4.0771,4.0309,4.0006,4.0431,4.0196,4.0011,4.0011,4.0011,3.9446,3.8089,3.7901,3.7036,3.5008,3.3943,3.3406,3.3406,3.1819,3.0152,2.8468,2.8148,2.7283,2.5809,2.5917,2.6099,2.633,2.6451,2.6589,2.664,2.5168,2.4491,2.4423,2.2936,2.2296,2.2296,2.2296,2.2296,2.2296,2.2296,2.2296,2.2324,2.246,2.2619,2.2829,2.318,2.3464,2.3689,2.375,2.3845,2.3955,2.4034,2.4084,2.4141,2.4141,2.4141,2.4141,2.4141,2.4141,2.4123,2.4151,2.4151,2.4161,2.418,2.2923,2.1336,1.9844,1.9638,1.9719,1.9829,1.9816,1.9528,1.8755,1.7861,1.6951,1.6073,1.5163,1.4584,1.4581,1.4581,1.4581,1.4576,1.5203,1.5665,1.5758,1.6374,1.6836,1.7034,1.6898,1.6846,1.6911,1.6977,1.7337,1.8014,1.8343,1.8789,1.9335,1.9481,1.9499,4.2176,4.1756,4.1253,4.1564,4.1437,4.1225,4.1136,4.0014,3.9026,3.9063,3.8564,3.8399,3.9297,3.9231,3.9261,3.9961,3.9866,3.9784,3.9956,4.0058,4.0096,4.0096,3.9774,3.9089,3.8024,3.755,3.6512,3.4592,3.376,3.3191,3.2848,3.1248,2.9662,2.8194,2.7683,2.6869,2.5701,2.5864,2.6081,2.6295,2.6468,2.6589,2.664,2.5168,2.4491,2.4423,2.2936,2.2296,2.2296,2.2296,2.2296,2.2296,2.2296,2.2296,2.2324,2.2487,2.2659,2.2838,2.3229,2.3499,2.3721,2.3855,2.3976,2.4064,2.4123,2.417,2.419,2.419,2.419,2.419,2.419,2.419,2.419,2.419,2.419,2.3979,2.3125,2.2368,2.1425,1.9931,1.9732,1.9848,1.9928,1.9955,1.9547,1.8303,1.7705,1.6938,1.5649,1.5414,1.5185,1.47,1.4658,1.4841,1.5334,1.5756,1.637,1.7197,1.7622,1.8057,1.8529,1.8162,1.7955,1.8041,1.8051,1.8293,1.8706,1.9152,1.9528,1.981,1.9775,1.9951,4.1871,4.1857,4.1714,4.1561,4.1246,4.0757,3.9974,3.8784,3.7754,3.7377,3.7131,3.7226,3.8061,3.8066,3.8172,3.9009,3.9273,3.9387,3.9442,3.9819,4.0096,4.0096,3.9453,3.87,3.7973,3.7229,3.6073,3.4285,3.3321,3.2568,3.2026,3.0697,2.9423,2.824,2.7544,2.6708,2.5701,2.5901,2.61,2.6295,2.6486,2.664,2.664,2.5168,2.4491,2.4423,2.2936,2.2296,2.2296,2.2296,2.2296,2.2296,2.2296,2.2296,2.2324,2.2501,2.2646,2.2829,2.3193,2.3464,2.37,2.3884,2.4006,2.4103,2.418,2.419,2.419,2.419,2.419,2.419,2.419,2.419,2.419,2.419,2.419,2.3768,2.214,2.1865,2.1495,2.0006,1.9829,1.9947,2.0035,2.0084,1.961,1.813,1.7833,1.725,1.5764,1.6065,1.6139,1.54,1.532,1.5597,1.6338,1.6569,1.7244,1.8552,1.8817,1.923,1.9906,1.9357,1.9054,1.9095,1.9109,1.9137,1.9179,1.9992,2.036,2.0306,2.0427,2.0825,4.2498,4.2173,4.1561,4.1296,4.088,4.0189,3.878,3.7908,3.723,3.6779,3.6612,3.6602,3.6675,3.6672,3.6873,3.7495,3.8007,3.8549,3.9146,3.973,4.0096,4.0096,3.9453,3.87,3.7973,3.7229,3.587,3.3578,3.1997,3.1079,3.1033,3.0638,2.9761,2.8256,2.7961,2.714,2.5701,2.5901,2.61,2.6295,2.6486,2.664,2.664,2.5168,2.4491,2.4423,2.2936,2.2296,2.2296,2.2296,2.2296,2.2296,2.2296,2.2296,2.231,2.2377,2.2542,2.2738,2.297,2.3247,2.3531,2.3689,2.3896,2.4103,2.418,2.419,2.419,2.419,2.419,2.419,2.419,2.419,2.419,2.419,2.419,2.3768,2.214,2.1898,2.1552,2.0088,1.9908,2.0024,2.0169,2.0186,1.9886,1.9,1.8819,1.845,1.7574,1.7454,1.743,1.735,1.7286,1.7282,1.7365,1.8098,1.8617,1.8778,1.9521,2.0007,2.0079,2.0069,2.0068,2.0072,2.0063,2.0075,2.0073,2.0949,2.1339,2.1297,2.2004,2.2399,4.1094,4.1264,4.1277,4.1018,4.0583,3.9922,3.8851,3.7718,3.6761,3.6343,3.6148,3.6122,3.6293,3.6251,3.6449,3.7205,0.0,3.8329,3.9098,3.973,4.0096,4.0096,3.9056,3.8227,3.7939,3.6806,3.5267,3.3324,3.1608,3.0733,3.0892,3.081,3.0046,2.856,2.8323,2.7552,2.6082,2.6173,2.6313,2.6469,2.6606,2.6674,2.664,2.5168,2.4491,2.4423,2.2936,2.2324,2.2366,2.2366,2.2377,2.2419,2.2419,2.2408,2.238,2.2432,2.2542,2.2672,2.2881,2.3126,2.3412,2.3638,2.3792,2.3937,2.4054,2.4103,2.4151,2.4151,2.417,2.419,2.419,2.419,2.419,2.419,2.419,2.3768,2.2202,2.194,2.157,2.0089,1.9936,2.0084,2.0186,2.0225,1.9961,1.9123,1.8989,1.8647,1.7803,1.811,1.8409,1.8444,1.7909,1.7765,1.8291,1.865,1.9079,1.9618,1.9962,2.0162,2.0165,2.0197,2.0225,2.0252,2.0734,2.0988,2.0979,2.1853,2.2267,2.2254,2.2571,2.2978,4.0089,4.0515,4.0851,4.0549,4.0092,3.9479,3.8492,3.7369,3.6388,3.6019,3.5822,3.5795,3.5993,3.5949,3.6081,0.0,0.0,3.8184,3.8737,3.957,4.0096,4.0096,3.8802,3.7905,3.7905,3.6084,3.4346,3.2899,3.1454,3.0712,3.0932,3.0932,3.0244,2.8785,2.8607,2.7851,2.6381,2.6418,2.6521,2.6589,2.6657,2.6691,2.664,2.5168,2.4491,2.4423,2.2936,2.2338,2.2391,2.2419,2.2487,2.2569,2.2569,2.2542,2.2528,2.2555,2.2592,2.2672,2.2838,2.3052,2.3313,2.3544,2.3682,2.3792,2.3904,2.4024,2.4094,2.4094,2.4151,2.419,2.419,2.419,2.419,2.419,2.419,2.3851,2.2533,2.2115,2.1641,2.0396,2.011,2.0098,2.019,2.0237,2.0073,1.9477,1.9373,1.9158,1.8559,1.8966,1.9331,1.9385,1.8797,1.8643,1.9268,1.9311,1.9583,2.019,2.0229,2.0237,2.0234,2.0234,2.0357,2.0654,2.1212,2.1639,2.1889,2.2759,2.3173,2.3198,2.3424,2.3842,4.0026,4.0207,4.014,3.9785,3.941,3.8743,3.735,3.6641,3.6216,3.5883,3.5706,3.56,3.56,3.56,3.56,3.5616,3.6907,0.0,3.7922,3.9199,4.0096,4.0096,3.8802,3.7905,3.7905,3.5105,3.2984,3.216,3.1355,3.0932,3.0995,3.0995,3.0323,2.8843,2.8734,2.7993,2.6502,2.6571,2.6589,2.6589,2.6657,2.6691,2.664,2.5168,2.4491,2.4423,2.2936,2.2338,2.2422,2.2474,2.2565,2.2699,2.2699,2.2738,2.279,2.2725,2.2738,2.2816,2.2881,2.3033,2.3229,2.336,2.3533,2.3711,2.3783,2.3933,2.4094,2.4094,2.4151,2.419,2.419,2.419,2.419,2.419,2.419,2.3998,2.3252,2.2504,2.1794,2.1121,2.0445,2.0031,2.0183,2.0197,2.0215,2.0288,2.0288,2.0288,2.0269,2.0288,2.0288,2.0288,2.0288,2.0288,2.0288,2.0288,2.0288,2.0308,2.0308,2.0308,2.0308,2.0308,2.0673,2.1466,2.1504,2.1927,2.2797,2.3663,2.4091,2.411,2.4909,2.5303,3.8906,3.8826,3.8654,3.8443,3.8026,3.7475,3.6756,3.6245,3.5905,3.5633,3.5429,3.5402,3.5847,3.5987,3.6339,3.7285,3.8043,3.8688,3.9194,3.975,3.991,3.9419,3.8065,3.6721,3.5673,3.4194,3.2967,3.216,3.1355,3.0932,3.0995,3.0995,3.0362,2.8989,2.892,2.8176,2.664,2.6657,2.6674,2.6674,2.6674,2.6691,2.664,2.5168,2.4491,2.4423,2.2936,2.2377,2.2542,2.2605,2.2777,2.2982,2.3015,2.3033,2.3008,2.2982,2.2995,2.3003,2.3082,2.3241,2.3436,2.3567,2.3682,2.3782,2.3852,2.3945,2.4054,2.4151,2.418,2.419,2.419,2.419,2.419,2.419,2.419,2.3851,2.257,2.2126,2.163,2.0414,2.0074,2.0044,2.0178,2.0197,2.0215,2.0288,2.0308,2.0308,2.0308,2.0308,2.0308,2.0308,2.0308,2.0308,2.0308,2.0308,2.0308,2.0308,2.0827,2.1115,2.1115,2.1696,2.212,2.237,2.297,2.3413,2.3687,2.4524,2.4928,2.4928,2.5236,2.5374,3.7559,3.7453,3.7288,3.7118,3.679,3.6464,3.6224,3.5893,3.5616,3.5514,3.5485,3.5597,3.603,3.6314,3.6812,3.7744,3.8363,3.89,3.9404,3.9843,3.9723,3.87,3.754,3.6084,3.4252,3.363,3.2896,3.1834,3.1305,3.1032,3.1055,3.1092,3.0437,2.9044,2.8993,2.8265,2.6708,2.6691,2.6691,2.6691,2.6691,2.6691,2.664,2.5168,2.4491,2.4423,2.2936,2.2405,0.0,2.2699,2.2932,2.3217,2.3289,2.3319,2.3324,2.3301,2.3301,2.3283,2.3342,2.3453,2.3596,2.3634,2.3725,2.3816,2.3937,2.4006,2.4064,2.417,2.419,2.419,2.419,2.419,2.419,2.419,2.419,2.3869,2.2625,2.2173,2.166,2.047,2.0121,2.0038,2.0141,2.0184,2.0226,2.0285,2.0308,2.0308,2.0308,2.0308,2.0308,2.0308,2.0308,2.0423,2.0731,2.075,2.075,2.075,2.1523,2.1985,2.1985,2.2509,2.2951,2.3278,2.3821,2.424,2.4548,2.5058,2.5308,2.5308,2.537,2.5406,0.0,3.6117,3.6113,3.5912,3.5737,3.5649,3.5734,3.5554,0.0,3.5469,3.579,3.6081,3.6131,3.6647,3.7084,3.7277,3.8053,3.869,3.8816,3.948,3.9394,3.799,3.7161,3.5842,3.3694,3.344,3.2814,3.1376,3.1224,3.119,3.119,3.119,3.0514,2.9044,2.8993,2.8265,2.6708,2.6691,2.6691,2.6691,2.6691,2.6691,2.664,2.5168,2.4491,2.4423,2.2936,2.2405,2.2605,2.2751,2.3028,2.3395,2.3482,2.3594,2.3692,2.3639,2.361,2.3617,2.362,2.3678,2.3711,2.3652,2.3714,2.3865,2.4054,2.4103,2.4103,2.418,2.419,2.419,2.419,2.419,2.419,2.419,2.4153,2.3906,2.3168,2.244,2.1726,2.1044,2.0413,2.0026,2.0098,2.0158,2.0225,2.0285,2.0308,2.0308,2.0308,2.0308,2.0327,2.0385,2.0385,2.0712,2.1523,2.1543,2.1523,2.16,2.2408,2.2893,2.2893,2.2951,2.3355,2.4168,2.4187,2.4548,2.5308,2.5308,2.5308,2.5308,2.5364,2.5393,3.5015,0.0,3.556,3.5402,3.5174,3.5052,0.0,3.5102,0.0,0.0,0.0,0.0,3.6394,3.698,3.7588,3.8177,3.8774,3.9156,3.9182,3.8631,3.7961,3.7144,3.6366,3.5453,3.4336,3.3728,3.3017,3.2107,3.1532,3.119,3.119,3.119,3.0514,2.9044,2.8993,2.8265,2.6708,2.6691,2.6691,2.6691,2.6691,2.6691,2.664,2.5168,2.4491,2.4423,2.2936,2.2405,2.2605,2.2751,2.3008,2.3336,2.3517,2.3641,2.3703,2.3732,2.3746,2.3764,2.3813,2.3865,2.3935,2.3974,2.4004,2.4054,2.4151,2.4151,2.4103,2.418,2.419,2.419,2.419,2.419,2.419,2.419,2.3731,2.3079,2.2327,2.1604,2.0893,2.0277,2.0032,1.9974,2.0145,2.019,2.0225,2.0285,2.0308,2.0308,2.0308,2.0308,2.0538,2.1154,2.1216,2.1562,2.2427,2.1889,2.1773,2.2447,2.3317,2.3783,2.3783,2.4389,2.4808,2.5,2.5019,2.5115,2.5308,2.5308,2.5308,2.5308,2.5364,2.5432,3.4811,3.4794,3.4857,3.4666,3.4718,3.4808,3.47,0.0,0.0,0.0,0.0,0.0,3.668,3.7521,3.8292,3.8645,3.8958,3.9113,3.9009,3.7944,3.7111,3.6823,3.6096,3.5295,3.4573,3.3829,3.3085,3.2361,3.1633,3.119,3.119,3.119,3.0514,2.9044,2.8993,2.8265,2.6708,2.6691,2.6691,2.6691,2.6691,2.6691,2.6657,2.5507,2.4829,2.444,2.3291,2.2742,2.2605,2.2712,2.2982,2.3313,2.3441,2.3589,2.3707,2.3774,2.3837,2.3896,2.3927,2.3976,2.4006,2.4084,2.4094,2.4103,2.418,2.417,2.4161,2.418,2.419,2.419,2.419,2.419,2.419,2.419,2.3584,2.2795,2.206,2.1316,2.0616,1.9982,1.9909,1.9991,2.0178,2.0203,2.0218,2.0285,2.0308,2.0308,2.0308,2.0615,2.1019,2.1446,2.187,2.2447,2.3317,2.2951,2.2893,2.3374,2.4182,2.4639,2.4639,2.5077,2.5313,2.5351,2.5351,2.5341,2.534,2.534,2.5364,2.5397,2.5436,2.548,3.5018,3.4667,3.4325,3.3975,3.4323,3.4639,3.4297,0.0,0.0,0.0,0.0,0.0,3.6924,3.8025,3.8942,3.8832,3.8789,3.8702,3.8421,3.7347,3.6582,3.6603,3.6028,3.5295,3.4573,3.3829,3.3085,3.2361,3.1633,3.119,3.119,3.119,3.0514,2.9044,2.8993,2.8265,2.6708,2.6691,2.6691,2.6691,2.6691,2.6691,2.6674,2.5947,2.5203,2.4457,2.3729,2.3085,2.2582,2.2646,2.2906,2.3229,2.3313,2.3463,2.3657,2.3732,2.3855,2.3966,2.3996,2.4016,2.4036,2.4094,2.4132,2.4132,2.418,2.419,2.419,2.419,2.419,2.419,2.419,2.419,2.419,2.419,2.3584,2.2795,2.2062,2.1331,2.0625,1.9957,1.9918,2.0055,2.0187,2.0201,2.0215,2.0288,2.0404,2.0481,2.0481,2.1196,2.1754,2.1889,2.2566,2.3355,2.4202,2.4279,2.4279,2.4279,2.4928,2.5308,2.5308,2.5308,2.5322,2.5398,2.5398,2.5406,2.5406,2.541,2.5441,2.5499,2.5499,2.5538,3.5152,3.4947,3.4667,3.405,3.3877,3.3864,3.3803,0.0,0.0,0.0,0.0,0.0,3.6873,3.7962,3.8832,3.8805,3.8281,3.7785,3.7444,3.6859,3.628,3.583,3.5667,3.5295,3.4573,3.3829,3.3085,3.2361,3.1633,3.119,3.119,3.119,3.0514,2.9044,2.8993,2.8265,2.6708,2.6691,2.6691,2.6691,2.6691,2.6691,2.6674,2.5947,2.5203,2.4457,2.3729,2.3028,2.2432,2.2552,2.2725,2.2889,2.3082,2.3223,2.3377,2.356,2.3685,2.3785,2.4006,2.4113,2.417,2.418,2.418,2.418,2.4208,2.419,2.419,2.419,2.419,2.419,2.419,2.419,2.419,2.419,2.3584,2.2803,2.2058,2.1377,2.0699,2.0003,1.9993,2.0112,2.0195,2.019,2.0215,2.0288,2.0885,2.1331,2.1331,2.2062,2.2874,2.3624,2.3821,2.4221,2.5058,2.5115,2.5115,2.5115,2.5231,2.5308,2.5308,2.5308,2.5322,2.5398,2.5397,2.5404,2.5406,2.5461,2.5483,2.5505,2.5502,2.5547,3.5503,3.5389,3.5188,3.4809,3.4569,3.4323,3.3816,0.0,0.0,0.0,0.0,3.7328,3.7562,3.8543,3.9106,3.855,3.7785,3.7096,3.6679,3.615,3.5753,3.5628,3.56,3.5295,3.4573,3.3829,3.3085,3.2361,3.1633,3.119,3.119,3.119,3.0514,2.9044,2.8993,2.8265,2.6708,2.6691,2.6691,2.6691,2.6691,2.6691,2.6691,2.6353,2.5558,2.4474,2.4135,2.3386,2.2405,2.2515,2.2619,2.2764,2.2893,2.3045,2.3241,2.3544,2.3725,2.3827,2.4026,2.4151,2.419,2.419,2.419,2.419,2.419,2.419,2.419,2.419,2.419,2.419,2.419,2.419,2.419,2.419,2.3584,2.2923,2.2614,2.2019,2.1485,2.1237,2.0986,2.0819,2.0889,2.089,2.0919,2.0942,2.1658,2.2197,2.2197,2.2951,2.3663,2.4052,2.449,2.4909,2.5269,2.5308,2.5308,2.5308,2.5308,2.5308,2.5308,2.5308,2.5337,2.5391,2.5393,2.5449,2.5505,2.554,2.5565,2.5615,2.56,2.5611,3.5883,3.5844,3.5783,3.5638,0.0,0.0,0.0,0.0,0.0,0.0,3.6594,3.7926,3.8136,3.8887,3.9124,3.8133,3.725,3.6572,3.6196,3.5696,3.5406,3.5577,3.56,3.5228,3.432,3.3728,3.3017,3.2107,3.1532,3.119,3.119,3.119,3.0598,2.9314,2.9094,2.835,2.6962,2.6776,2.6691,2.6691,2.6691,2.6691,2.6691,2.6522,2.5727,2.4491,2.4321,2.3524,2.2377,2.246,2.2569,2.2659,2.2764,2.2944,2.3193,2.3544,2.3768,2.3917,2.4044,2.4123,2.419,2.419,2.419,2.419,2.419,2.419,2.419,2.419,2.419,2.419,2.419,2.419,2.419,2.419,2.3731,2.3254,2.3159,2.2736,2.2376,2.233,2.1985,2.1718,2.1794,2.1801,2.1793,2.1793,2.2547,2.3105,2.3105,2.3855,2.4375,2.4375,2.4928,2.5308,2.5308,2.5308,2.5308,2.5308,2.5308,2.5308,2.5308,2.5313,2.5351,2.5401,2.5414,2.5486,2.5593,2.5611,2.5652,2.5694,2.5694,2.5698,3.6182,3.6293,3.6402,3.628,3.5605,0.0,3.4617,3.4963,0.0,3.5237,3.6495,3.773,3.8127,3.8444,3.8371,3.7428,3.6654,3.618,3.6274,3.5813,3.5498,3.5577,3.56,3.5042,3.3626,3.344,3.2814,3.1376,3.1224,3.119,3.119,3.119,3.0835,3.0057,2.9347,2.8586,2.7722,2.7046,2.6691,2.6691,2.6691,2.6691,2.6674,2.5998,2.5253,2.4457,2.378,2.3021,2.2324,2.2446,2.2515,2.2525,2.2725,2.3008,2.3313,2.3528,2.3732,2.3907,2.3986,2.4094,2.419,2.419,2.419,2.419,2.419,2.419,2.419,2.419,2.419,2.419,2.419,2.419,2.419,2.419,2.4153,2.3934,2.3332,2.3198,2.3045,2.2502,2.2467,2.255,2.2685,2.2703,2.272,2.272,2.3451,2.4014,2.4014,2.4716,2.5212,2.5212,2.5269,2.5308,2.5308,2.5308,2.5308,2.5308,2.5308,2.5308,2.5308,2.5356,2.5397,2.5401,2.5459,2.5526,2.5604,2.5655,2.5694,2.5706,2.5706,2.5708,3.6564,3.6687,3.6811,3.6814,3.6533,0.0,0.0,3.5776,3.6213,3.5643,3.6656,3.7672,3.7744,3.792,3.7767,3.6963,3.6523,3.6164,3.5853,3.5637,3.552,3.56,3.5199,3.4523,3.3508,3.2983,3.2273,3.1275,3.119,3.119,3.119,3.119,3.0869,3.0125,2.9382,2.8602,2.7807,2.7063,2.6691,2.6691,2.6691,2.6691,2.6691,2.6404,2.5879,2.5135,2.4391,2.3678,2.2967,2.2634,2.2511,2.2592,2.2932,2.3199,2.3447,2.3598,2.3792,2.3976,2.4036,2.4113,2.419,2.419,2.419,2.419,2.419,2.419,2.419,2.419,2.419,2.419,2.419,2.419,2.419,2.419,2.419,2.4154,2.3979,2.4033,2.4072,2.3978,2.3661,2.3449,2.3525,2.3587,2.3605,2.3605,2.4312,2.4851,2.4851,2.5115,2.5308,2.5308,2.5308,2.5308,2.5308,2.5308,2.5308,2.5308,2.5308,2.5317,2.5356,2.5384,2.5412,2.546,2.5538,2.5605,2.5663,2.5699,2.5693,2.5701,2.5701,2.5701,3.693,3.7087,3.7223,3.728,0.0,0.0,3.6277,3.6593,3.6842,3.6164,3.692,3.7642,3.7347,3.7398,3.7209,3.6466,3.6232,3.6001,3.5588,3.552,3.5464,3.5261,3.481,3.4117,3.3152,3.2615,3.1989,3.1258,3.119,3.119,3.119,3.119,3.097,3.0463,2.9719,2.8975,2.8197,2.7435,2.6928,2.6691,2.6691,2.6691,2.6691,2.6454,2.6082,2.5558,2.4829,2.41,2.3401,2.3019,2.2838,2.2829,2.3163,2.3394,2.3587,2.371,2.3886,2.4044,2.4084,2.4151,2.419,2.419,2.419,2.419,2.419,2.419,2.419,2.419,2.419,2.419,2.419,2.419,2.419,2.419,2.419,2.4228,2.4376,2.4498,2.466,2.4861,2.4556,2.4309,2.4408,2.4447,2.449,2.449,2.4947,2.5308,2.5308,2.5308,2.5308,2.5308,2.5308,2.5308,2.5308,2.5308,2.5308,2.5308,2.5317,2.5351,2.5398,2.5391,2.543,2.5502,2.5563,2.5638,2.5702,2.5694,2.57,2.5703,2.5703,2.5703,3.7297,3.7503,3.7703,3.7703,0.0,0.0,3.7448,3.7292,3.7113,3.6761,3.729,3.7608,3.7018,3.6905,3.6667,3.5914,3.5689,3.56,3.56,3.56,3.5334,3.4573,3.4489,3.3918,3.2446,3.2293,3.1989,3.1241,3.119,3.119,3.119,3.119,3.119,3.119,3.048,2.9753,2.901,2.8213,2.7418,2.6691,2.6691,2.6691,2.6674,2.5947,2.5609,2.5575,2.4829,2.413,2.3524,2.3633,2.3501,2.3229,2.3424,2.3569,2.3714,2.3847,2.3986,2.4094,2.4094,2.4133,2.419,2.419,2.419,2.419,2.419,2.419,2.419,2.419,2.419,2.419,2.419,2.419,2.419,2.419,2.419,2.4228,2.4376,2.4498,2.466,2.4861,2.5019,2.5138,2.5276,2.5293,2.5308,2.5308,2.5308,2.5308,2.5308,2.5308,2.5308,2.5308,2.5308,2.5308,2.5308,2.5308,2.5308,2.5308,2.5361,2.5398,2.5398,2.5401,2.5421,2.5499,2.5563,2.5627,2.5707,2.57,2.5703,2.5703,2.5703,2.5703,3.7595,3.7703,3.7828,3.7828,3.7828,3.7811,3.7757,3.7727,0.0,3.7136,3.6813,3.6561,3.6383,3.6414,3.6427,3.6204,3.6062,3.6014,3.6014,3.5861,3.5462,3.472,3.4113,3.3355,3.2395,3.1836,3.1427,3.1207,3.119,3.119,3.119,3.119,3.119,3.119,3.048,2.9753,2.901,2.8213,2.7418,2.6691,2.6691,2.6691,2.6691,2.6471,2.642,2.6435,2.5146,2.4509,2.435,2.3592,2.332,2.3424,2.358,2.3742,2.3917,2.4006,2.4094,2.417,2.417,2.418,2.419,2.419,2.419,2.419,2.419,2.419,2.419,2.419,2.419,2.419,2.419,2.419,2.419,2.419,2.419,2.4228,2.4376,2.4481,2.461,2.4854,2.5013,2.5141,2.5271,2.5293,2.5308,2.5308,2.5308,2.5308,2.5308,2.5308,2.5308,2.5308,2.5308,2.5308,2.5308,2.5308,2.5308,2.5308,2.5361,2.5393,2.54,2.5456,2.5505,2.5564,2.5634,2.5683,2.5697,2.5701,2.5703,2.5703,2.5703,2.5703,3.8051,3.8153,3.8272,3.8287,3.8238,3.8172,3.8089,3.7897,3.7639,3.7276,3.6623,3.6102,3.6102,3.5838,3.561,3.561,3.5769,3.5873,3.5845,3.5677,3.5258,3.444,3.3569,3.272,3.1938,3.1464,3.119,3.119,3.119,3.119,3.119,3.119,3.1072,3.0768,3.0345,2.96,2.8535,2.8043,2.7418,2.6691,2.6742,2.6792,2.6808,2.6792,2.6859,2.6888,2.5493,2.4784,2.4524,2.3656,2.3424,2.3609,2.3753,2.3907,2.4054,2.4132,2.417,2.419,2.419,2.419,2.419,2.419,2.419,2.419,2.419,2.419,2.419,2.419,2.419,2.419,2.419,2.4209,2.419,2.4199,2.419,2.4218,2.4303,2.4419,2.4551,2.4775,2.4961,2.5118,2.5245,2.5278,2.5308,2.5308,2.5308,2.5308,2.5308,2.5308,2.5308,2.5308,2.5308,2.5308,2.5308,2.5308,2.5308,2.5308,2.5365,2.541,2.5429,2.5473,2.5538,2.5591,2.5671,2.5693,2.5701,2.5702,2.5703,2.5703,2.5703,2.5898,3.8615,3.8725,3.8833,3.8892,3.8785,3.8585,3.8403,3.7983,3.756,3.7321,3.6661,3.6165,3.6165,3.5346,3.4653,3.4653,3.5065,3.5364,3.528,3.5178,3.478,3.3856,3.3031,3.2176,3.1317,3.123,3.121,3.121,3.121,3.119,3.119,3.114,3.0784,3.0125,3.0021,2.9277,2.7824,2.7807,2.7452,2.6725,2.6842,2.6942,2.7024,2.6958,2.6938,2.689,2.5738,2.4848,2.4212,2.3789,2.3664,2.3753,2.3945,2.4054,2.4132,2.418,2.419,2.419,2.419,2.419,2.419,2.419,2.419,2.419,2.419,2.419,2.419,2.419,2.419,2.419,2.419,2.4209,2.4192,2.4218,2.4209,2.4218,2.4219,2.4374,2.4545,2.4673,2.4926,2.5106,2.5181,2.5257,2.5308,2.5308,2.5308,2.5308,2.5308,2.5308,2.5308,2.5308,2.5308,2.5308,2.5308,2.5308,2.5308,2.5308,2.536,2.5427,2.5484,2.5506,2.5532,2.5601,2.5661,2.5737,2.582,2.582,2.5859,2.5937,2.5937,2.6367,3.8917,3.8937,3.8957,3.8971,3.898,3.8942,3.8733,3.8643,3.846,3.7931,3.7128,3.6503,3.6503,3.5807,3.522,3.522,3.519,3.5137,3.5065,3.477,3.4264,3.3422,3.2932,3.2344,3.1589,3.137,3.1293,3.1293,3.1232,3.119,3.119,3.0649,3.026,3.0125,2.9533,2.8772,2.7807,2.7807,2.747,2.6859,2.6925,2.7088,2.731,2.7182,2.6636,2.5729,2.5041,2.4366,2.3747,2.3768,2.3834,2.3955,2.4036,2.4113,2.418,2.419,2.419,2.419,2.419,2.419,2.419,2.419,2.419,2.419,2.419,2.419,2.419,2.419,2.419,2.419,2.419,2.4209,2.421,2.4275,2.4284,2.4294,2.4339,2.4436,2.4561,2.4738,2.4908,2.5069,2.5185,2.5248,2.5308,2.5308,2.5308,2.5308,2.5308,2.5308,2.5308,2.5308,2.5308,2.5308,2.5308,2.5308,2.5308,2.5308,2.5365,2.5406,2.5425,2.5512,2.5583,2.5591,2.5664,2.6049,2.6718,2.6719,2.707,2.7734,2.7734,2.7832,3.9508,3.9427,3.9527,3.9902,4.0027,4.0014,3.9805,3.943,3.9027,3.8643,3.7398,3.6343,3.6329,3.5307,3.4481,3.4481,3.4677,3.4781,3.4684,3.4463,3.4094,3.3458,3.2838,3.2254,3.1743,3.1521,3.137,3.1295,3.1232,3.119,3.119,3.0497,2.9939,2.9583,2.8822,2.8044,2.7266,2.7334,2.7233,2.6959,2.7121,2.7404,2.776,2.7239,2.6518,2.56,2.5046,2.4379,2.375,2.3886,2.3986,2.4046,2.4113,2.417,2.419,2.419,2.419,2.419,2.419,2.419,2.419,2.419,2.419,2.419,2.419,2.419,2.419,2.419,2.419,2.419,2.419,2.4219,2.4257,2.433,2.4348,2.4367,2.4428,2.4495,2.4599,2.4768,2.4922,2.5075,2.5179,2.5268,2.5308,2.5308,2.5308,2.5308,2.5308,2.5308,2.5308,2.5308,2.5308,2.5308,2.5308,2.5308,2.5308,2.5308,2.5361,2.5585,2.6002,2.6114,2.6198,2.6223,2.6299,2.6748,2.7615,2.7616,2.7851,2.8301,2.8301,2.8516,4.0071,4.004,4.0346,4.1,4.1266,4.1287,4.094,4.0265,3.9608,3.9309,3.7729,3.6347,3.6131,3.4867,3.3769,3.3595,3.4018,3.4317,3.4199,3.4108,3.3931,3.3561,3.2791,3.2179,3.1911,3.1688,3.15,3.1353,3.1291,3.1249,3.123,3.0398,2.9636,2.9027,2.8095,2.7334,2.6742,2.6859,2.6975,2.7072,2.7388,2.7792,2.8224,2.733,2.6583,2.5925,2.5314,2.4628,2.3955,2.422,2.4241,2.4132,2.4327,2.4318,2.419,2.419,2.419,2.419,2.419,2.419,2.419,2.419,2.419,2.419,2.419,2.419,2.419,2.419,2.419,2.419,2.419,2.4247,2.4321,2.4399,2.4426,2.4472,2.4547,2.4591,2.4685,2.4811,2.4993,2.5141,2.5204,2.5268,2.5308,2.5308,2.5308,2.5308,2.5308,2.5308,2.5308,2.5308,2.5308,2.5308,2.5308,2.5308,2.5365,2.5519,2.5587,2.5996,2.6867,2.6968,2.7089,2.7317,2.7234,2.7636,2.8509,2.8513,2.8593,2.875,2.875,2.9141,4.0084,4.0681,4.1303,4.1418,4.197,4.2262,4.1364,4.101,4.0594,3.9658,3.8505,3.7441,3.667,3.5774,3.4866,3.3997,3.3867,3.3863,3.3708,3.36,3.3418,3.3183,3.2807,3.2454,3.2249,3.1947,3.169,3.1579,3.15,3.1404,3.1276,2.9986,2.9151,2.8993,2.7588,2.686,2.6859,2.6942,2.7105,2.7357,2.785,2.8228,2.8448,2.7786,2.7035,2.6202,2.5546,2.4805,2.4139,2.4922,2.4814,2.4253,2.497,2.4805,2.419,2.419,2.419,2.419,2.419,2.419,2.419,2.419,2.419,2.419,2.419,2.419,2.419,2.419,2.419,2.419,2.419,2.4247,2.433,2.4461,2.4569,2.4676,2.4742,2.4798,2.4872,2.4955,2.5147,2.5276,2.5288,2.5298,2.5308,2.5308,2.5308,2.5308,2.5308,2.5308,2.5308,2.5308,2.5308,2.5308,2.5308,2.5308,2.5615,2.639,2.6428,2.6828,2.7701,2.775,2.8148,2.8958,2.8364,2.8478,2.9341,2.941,2.9804,3.0547,3.0547,3.0625,4.0311,4.1283,4.2334,4.2334,4.2976,4.3455,4.2927,4.2054,4.1172,4.0664,3.9773,3.8747,3.7641,3.6751,3.6017,3.5556,3.5021,3.4639,3.4467,3.3967,3.3549,3.3286,3.3008,3.2721,3.2438,3.2073,3.1819,3.1727,3.1615,3.154,3.1485,3.0067,2.9193,2.9049,2.7589,2.6842,2.6893,2.699,2.7276,2.7745,2.8174,2.8466,2.8657,2.8427,2.7878,2.7041,2.6336,2.5829,2.5536,2.5905,2.586,2.5585,2.5933,2.586,2.5548,2.5548,2.5254,2.4879,2.4879,2.4585,2.419,2.419,2.419,2.419,2.419,2.419,2.419,2.419,2.419,2.419,2.419,2.4284,2.4393,2.4522,2.4689,2.4844,2.4959,2.4966,2.4993,2.5091,2.5215,2.5297,2.5303,2.5308,2.5308,2.5308,2.5712,2.6019,2.6019,2.6447,2.6755,2.6755,2.6755,2.6755,2.6755,2.6755,2.6928,2.7294,2.7332,2.7703,2.8541,2.8602,2.9048,2.9948,2.925,2.9329,3.0232,3.0264,3.0486,3.0898,3.0898,3.0898,4.0349,4.1605,4.2944,4.2989,4.3805,4.4536,4.4221,4.3139,4.2078,4.1562,4.0883,4.0029,3.8855,3.7875,3.7149,3.6827,3.6217,3.5718,3.5478,3.489,3.4362,3.4094,3.3818,3.3446,3.2908,3.2512,3.2192,3.191,3.182,3.1784,3.1747,3.0334,2.942,2.9211,2.7726,2.6925,2.6958,2.7151,2.7504,2.8027,2.8362,2.86,2.8749,2.8858,2.8576,2.7961,2.7222,2.6796,2.6631,2.6833,2.6778,2.662,2.6833,2.6778,2.6602,2.6602,2.608,2.5393,2.5393,2.4879,2.419,2.419,2.419,2.419,2.419,2.419,2.419,2.419,2.419,2.419,2.419,2.4294,2.4402,2.4566,2.4742,2.4922,2.5094,2.5093,2.5111,2.5206,2.5262,2.5307,2.5303,2.5481,2.5635,2.5635,2.6365,2.6928,2.6928,2.7505,2.7895,2.7895,2.7895,2.7895,2.7895,2.7895,2.7992,2.8184,2.8203,2.8569,2.9407,2.9494,2.9839,3.0515,2.9996,3.0083,3.0809,3.0825,3.0856,3.0898,3.0898,3.0898,4.0021,4.1399,4.2757,4.2961,4.4236,4.5245,4.4477,4.4218,4.3673,4.1942,4.1551,4.1217,4.0282,3.922,3.8177,3.715,3.6893,3.6727,3.6472,3.633,3.617,3.5914,3.5634,3.5022,3.3926,3.3582,3.3072,3.2231,3.2232,3.2249,3.2161,3.0711,2.974,2.9489,2.786,2.704,2.7086,2.7459,2.7821,2.8099,2.838,2.8549,2.8612,2.8822,2.8868,2.8795,2.8058,2.7291,2.6657,2.742,2.7291,2.6686,2.7438,2.7273,2.6602,2.6602,2.608,2.5393,2.5393,2.4879,2.419,2.419,2.419,2.419,2.419,2.419,2.419,2.419,2.419,2.419,2.419,2.4247,2.4367,2.4539,2.4704,2.4881,2.5138,2.5241,2.5282,2.5287,2.5307,2.5303,2.5308,2.5981,2.6524,2.6524,2.7274,2.7838,2.7838,2.7876,2.7895,2.7895,2.7895,2.7895,2.7895,2.7895,2.8222,2.8992,2.905,2.9426,3.0296,3.0406,3.0472,3.0582,3.0625,3.0698,3.0799,3.0866,3.0897,3.0898,3.0898,3.0898,3.9344,4.0886,4.2381,4.2669,4.4097,4.5361,4.513,4.4676,4.4109,4.3468,4.248,4.1618,4.1229,4.0301,3.9419,3.8985,3.8414,3.7885,3.7565,3.7015,3.6541,3.6223,3.5967,3.5541,3.4912,3.4622,3.4111,3.3283,3.3247,3.3052,3.2539,3.1516,3.0576,2.9774,2.8587,2.7714,2.7182,2.7522,2.7803,2.7975,2.8282,2.8497,2.86,2.8761,2.8858,2.8887,2.867,2.84,2.8161,2.8455,2.84,2.818,2.8455,2.8381,2.8143,2.8143,2.7299,2.6172,2.6172,2.5309,2.419,2.419,2.419,2.419,2.419,2.419,2.419,2.419,2.419,2.4201,2.4201,2.4302,2.4495,2.4798,2.4941,2.505,2.5231,2.5278,2.5293,2.5293,2.5298,2.5481,2.6038,2.639,2.6794,2.7351,2.8145,2.8665,2.8665,2.9159,2.95,2.95,2.95,2.95,2.95,2.95,2.964,2.9929,2.9927,3.0089,3.0444,3.053,3.0595,3.0668,3.0722,3.0774,3.0807,3.0825,3.0856,3.0918,3.1465,3.1738,3.8435,3.9923,4.1347,4.1836,4.3378,4.4842,4.5006,4.4886,4.4671,4.4416,4.3233,4.2132,4.1819,4.0922,4.0196,4.0098,3.9511,3.8953,3.8621,3.8041,3.7511,3.7194,3.6921,3.6531,3.592,3.5683,3.5224,3.4406,3.4103,3.3745,3.3226,3.2165,3.0912,2.949,2.8596,2.7827,2.7214,2.7507,2.773,2.7844,2.8174,2.838,2.851,2.8687,2.881,2.887,2.897,2.9005,2.9005,2.9005,2.9005,2.9005,2.9005,2.9005,2.9005,2.9005,2.8143,2.6961,2.6693,2.5713,2.4566,2.4281,2.419,2.419,2.419,2.419,2.419,2.419,2.4412,2.4634,2.4634,2.5021,2.5472,2.574,2.5895,2.6004,2.6129,2.5936,2.5731,2.5731,2.5962,2.6365,2.6948,2.7255,2.764,2.8222,2.9006,2.9544,2.9544,3.0038,3.0404,3.0404,3.0654,3.0846,3.0846,3.0846,3.0833,3.0845,3.0585,3.0455,3.0525,3.0595,3.0781,3.1138,3.1198,3.1372,3.1663,3.1378,3.1403,3.1758,3.2324,3.2598,0.0,0.0,0.0,4.0446,4.2106,4.365,4.4058,4.4867,4.5332,4.465,4.3748,4.2849,4.2079,4.1143,4.0452,4.0272,4.0128,3.9929,3.9606,3.947,3.9266,3.8922,3.8707,3.8143,3.7003,3.6815,3.6407,3.5515,3.4754,3.4321,3.4223,3.2608,3.0729,2.8616,2.7823,2.736,2.7197,2.7463,2.763,2.7716,2.8039,2.8237,2.8313,2.8582,2.8749,2.8798,2.8947,2.9005,2.9005,2.9005,2.9005,2.9005,2.9005,2.9005,2.9005,2.9005,2.8491,2.7688,2.6906,2.6098,2.5301,2.452,2.4263,2.4263,2.4263,2.4263,2.4263,2.4263,2.4881,2.5547,2.5541,2.6364,2.7245,2.7369,2.7559,2.7732,2.7794,2.7212,2.6678,2.664,2.7313,2.7915,2.7934,2.8588,2.9107,2.9127,2.9871,3.0404,3.0404,3.0423,3.0442,3.0442,3.1212,3.1737,3.1737,3.1737,3.173,3.1746,3.1009,3.0603,3.0677,3.0742,3.1177,3.2014,3.211,3.2562,3.3434,3.2557,3.2577,3.3398,3.3437,3.3457,3.5698,0.0,0.0,0.0,0.0,0.0,4.2853,4.3359,4.3869,4.4384,4.332,4.2426,4.2832,4.1666,4.0821,4.1347,4.1285,4.1065,4.084,4.1191,4.1355,4.1008,4.0718,4.0094,3.8998,3.8779,3.8135,3.6743,3.586,3.5105,3.4511,3.2673,3.0979,2.9561,2.8749,2.8009,2.736,2.7511,2.7659,2.7774,2.8067,2.8264,2.8367,2.8594,2.8749,2.8798,2.8947,2.9005,2.9005,2.9005,2.9005,2.9005,2.9005,2.9005,2.9005,2.9005,2.8491,2.778,2.7548,2.6943,2.6227,2.6007,2.5952,2.5952,2.5952,2.5952,2.5952,2.5952,2.6152,2.641,2.6663,2.7048,2.7384,2.7504,2.7663,2.7781,2.7796,2.8118,2.8242,2.764,2.7741,2.8088,2.8665,2.8953,2.9319,2.9948,3.025,3.0404,3.0404,3.0942,3.1346,3.1346,3.2083,3.2564,3.2564,3.2564,3.2596,3.2632,3.2475,3.2416,3.2473,3.2542,3.2718,3.3007,3.303,3.3471,3.4334,3.3475,3.3163,3.3418,3.4043,3.4687,0.0,0.0,3.6469,3.7532,0.0,0.0,4.1427,4.2227,4.3017,4.3805,4.2911,4.2151,4.2699,4.1673,4.1016,4.1848,4.2165,4.2206,4.1914,4.2167,4.2274,4.1914,4.1655,4.1169,4.0409,3.9918,3.9238,3.8227,3.671,3.5292,3.3998,3.2447,3.1229,3.043,2.9285,2.8439,2.7859,2.7714,2.7701,2.7844,2.8132,2.8358,2.8484,2.8662,2.8785,2.8846,2.894,2.9005,2.9005,2.9005,2.9005,2.9005,2.9005,2.9005,2.9005,2.9005,2.8693,2.8246,2.7915,2.7493,2.7053,2.6722,2.6602,2.6602,2.6602,2.6602,2.6602,2.6602,2.6929,2.7425,2.8044,2.8347,2.8514,2.8613,2.8753,2.8846,2.8845,2.9258,2.939,2.8569,2.8698,2.9083,2.9563,2.964,2.9813,3.0327,3.0404,3.0538,3.0904,3.1391,3.1833,3.216,3.2949,3.343,3.343,3.3442,3.3474,3.3541,3.3291,3.3167,3.3238,3.3314,3.3535,3.3929,3.3939,3.4373,3.5234,3.4374,3.4121,3.4492,3.5019,3.5508,0.0,0.0,0.0,3.523,3.6838,0.0,3.976,4.1116,4.2268,4.2865,4.2368,4.1886,4.2069,4.1468,4.1236,4.2103,4.2939,4.3343,4.2947,4.284,4.2696,4.2372,4.2141,4.1853,4.1425,4.0672,4.0049,3.967,3.7314,3.5095,3.3241,3.2262,3.1545,3.1129,2.9648,2.8766,2.8549,2.8014,2.78,2.7957,2.8268,2.8471,2.8612,2.8737,2.8834,2.8887,2.8964,2.9005,2.9005,2.9005,2.9005,2.9005,2.9005,2.9005,2.9005,2.9005,2.9005,2.8895,2.8172,2.7934,2.7824,2.7108,2.6859,2.6859,2.6859,2.6859,2.6869,2.6869,2.7534,2.8442,2.9363,2.978,3.0003,3.0094,3.0208,3.031,3.031,3.0367,3.0173,2.939,2.9871,3.0404,3.0404,3.0404,3.0423,3.0538,3.0538,3.0865,3.1718,3.1929,3.2256,3.2968,3.3814,3.434,3.434,3.4334,3.4377,3.4442,3.3834,3.3518,3.3587,3.3641,3.4044,3.482,3.4842,3.5234,3.5996,3.5215,3.5234,3.5996,3.5996,3.5996,3.1203,3.1855,3.2612,3.3564,3.4834,0.0,3.7654,3.8785,3.9934,4.138,4.1197,4.1048,4.1859,4.1974,4.2204,4.3078,4.3947,4.4416,4.4187,4.4533,4.4725,4.4444,4.4139,4.3587,4.2653,4.2316,4.153,4.0034,3.7424,3.5362,3.4105,3.316,3.2207,3.1212,3.0349,2.956,2.8835,2.8285,2.8095,2.8228,2.8388,2.8543,2.8682,2.8761,2.8834,2.8887,2.8964,2.9005,2.9005,2.9005,2.9005,2.9005,2.9005,2.9005,2.9005,2.9005,2.9005,2.8987,2.8822,2.8767,2.873,2.8583,2.8528,2.8528,2.8528,2.8528,2.8539,2.8596,2.8827,2.9153,2.9514,2.9761,2.9953,3.0133,3.0241,3.031,3.0373,3.0398,3.0346,3.0173,3.0288,3.0404,3.0404,3.0404,3.0635,3.1346,3.1448,3.1737,3.2564,3.3276,3.3763,3.3936,3.4737,3.525,3.525,3.5252,3.5264,3.535,3.5263,3.5263,3.5398,3.5461,3.5569,3.5737,3.5741,3.582,3.5996,3.582,3.582,3.5996,3.5996,3.5996,3.0147,3.0585,3.1157,3.1787,3.2823,0.0,0.0,3.672,3.7863,3.9314,3.9643,3.991,4.0707,4.1427,4.223,4.3232,4.4166,4.4875,4.5202,4.538,4.5399,4.5129,4.4893,4.4484,4.3812,4.3225,4.1921,3.9589,3.8062,3.6412,3.4503,3.3847,3.305,3.1924,3.1184,3.0409,2.9601,2.9015,2.8594,2.8406,2.8531,2.8669,2.8791,2.8834,2.8881,2.894,2.8994,2.9005,2.9005,2.9005,2.9005,2.9005,2.9005,2.9005,2.9005,2.9005,2.9005,2.9005,2.9005,2.9005,2.9005,2.9005,2.9005,2.9005,2.9005,2.9005,2.9005,2.9051,2.9163,2.9326,2.9464,2.9708,2.9937,3.0104,3.0228,3.0316,3.0398,3.0404,3.0404,3.0404,3.0404,3.0404,3.0404,3.075,3.1192,3.1641,3.2045,3.2602,3.343,3.3936,3.4379,3.4795,3.5231,3.55,3.55,3.5541,3.5553,3.5601,3.5694,3.5795,3.5897,3.5958,3.6005,3.5995,3.5996,3.5996,3.5996,3.5996,3.5996,3.5996,3.5996,3.623,2.9404,2.9563,2.9936,3.0273,3.1067,3.2137,0.0,0.0,0.0,3.7066,3.7819,3.8473,3.9169,4.0416,4.1659,4.2679,4.3709,4.4686,4.5549,4.5496,4.534,4.5284,4.5143,4.4936,4.4712,4.3707,4.2095,3.9753,3.8974,3.7612,3.5338,3.4571,3.3789,3.2887,3.1951,3.1188,3.0581,2.9786,2.9165,2.8753,2.8868,2.898,2.9131,2.9265,2.9386,2.9445,2.9299,2.9225,2.9225,2.906,2.9005,2.9005,2.9005,2.9005,2.9005,2.9005,2.9005,2.9005,2.9005,2.9005,2.9005,2.9005,2.9005,2.9005,2.9005,2.9005,2.9005,2.9005,2.913,2.9283,2.9372,2.9626,2.9888,3.0064,3.0329,3.0548,3.0629,3.0769,3.0885,3.0885,3.0885,3.0827,3.0673,3.1231,3.1814,3.2122,3.2737,3.3468,3.4334,3.4449,3.4718,3.5423,3.55,3.55,3.55,3.5547,3.5584,3.5595,3.5703,3.5802,3.5875,3.5963,3.5991,3.5996,3.5996,3.5996,3.5996,3.5996,3.5996,3.5996,3.5996,3.6465,2.9467,2.9341,2.939,2.9439,2.9818,3.0499,3.1726,0.0,3.3629,3.4955,0.0,3.6646,3.7726,0.0,0.0,4.1149,4.236,4.3496,4.4363,4.4477,4.4713,4.5472,4.5322,4.5124,4.4967,4.377,4.2827,4.2374,4.0022,3.8357,3.7807,3.5551,3.4123,3.3769,3.2456,3.1711,3.1637,3.033,2.966,2.9644,2.9658,2.9753,2.9898,3.0609,3.1002,3.1091,3.0375,3.0063,3.0008,2.9299,2.9005,2.9005,2.9005,2.9005,2.9005,2.9005,2.9005,2.9005,2.9005,2.9005,2.9005,2.9005,2.9005,2.9005,2.9005,2.9005,2.9005,2.9005,2.9062,2.9156,2.9351,2.9522,2.9716,3.0023,3.0746,3.1391,3.1526,3.2102,3.2622,3.2622,3.2622,3.2391,3.1679,3.1641,3.2199,3.3686,3.3994,3.4372,3.5231,3.5346,3.5385,3.5481,3.55,3.55,3.55,3.5509,3.5547,3.5598,3.5678,3.5735,3.5802,3.5933,3.5991,3.5996,3.5996,3.5996,3.5996,3.5996,3.5996,3.5996,3.5996,3.6465,2.9682,2.9387,2.917,2.8675,2.8762,2.9136,2.9813,3.0587,3.1475,3.2576,0.0,0.0,0.0,0.0,0.0,0.0,4.1021,4.2214,4.2977,4.356,4.4288,4.5361,4.5371,4.5241,4.5072,4.4366,4.362,4.2906,4.1569,4.0058,3.8343,3.6727,3.5321,3.4162,3.3113,3.2382,3.2036,3.1458,3.0976,3.0605,3.0605,3.0662,3.077,3.1099,3.1314,3.1378,3.1035,3.0632,3.0173,2.9831,2.9427,2.9005,2.9005,2.9005,2.9005,2.9005,2.9005,2.9005,2.9005,2.9005,2.9005,2.9005,2.9005,2.9005,2.9005,2.934,2.9754,2.9754,3.0173,3.0657,3.0815,3.1003,3.1213,3.1445,3.1885,3.2286,3.2372,3.266,3.2891,3.2891,3.2891,3.2949,3.3122,3.3141,3.3391,3.409,3.4622,3.5084,3.5442,3.55,3.55,3.55,3.55,3.55,3.55,3.5502,3.5515,3.5547,3.5688,3.5784,3.5858,3.5949,3.5991,3.5996,3.5996,3.5996,3.5996,3.5996,3.5996,3.6016,3.6523,3.7226,2.9991,2.9574,2.9184,2.8365,2.8137,2.8111,2.833,2.8834,2.9484,3.0338,3.1202,0.0,0.0,0.0,3.6594,3.7774,0.0,4.0332,4.1217,4.2058,4.3168,4.4834,4.5227,4.531,4.5125,4.4815,4.4219,4.3301,4.272,4.1387,3.9117,3.7962,3.6544,3.4778,3.3965,3.3229,3.2595,3.2377,3.2029,3.1561,3.1535,3.1561,3.1644,3.185,3.1981,3.2058,3.1825,3.1274,3.0503,3.0283,2.9721,2.9005,2.9005,2.9005,2.9005,2.9005,2.9005,2.9005,2.9005,2.9005,2.9005,2.9005,2.9152,2.9335,2.9335,2.9945,3.0629,3.0629,3.1147,3.1737,3.1901,3.2093,3.2326,3.2499,3.284,3.3156,3.3244,3.3449,3.3603,3.3603,3.3603,3.3814,3.4449,3.4359,3.4282,3.4526,3.5084,3.55,3.55,3.55,3.55,3.55,3.55,3.55,3.55,3.5489,3.5502,3.5534,3.5674,3.5818,3.5906,3.5949,3.5987,3.5996,3.5996,3.5996,3.5996,3.5996,3.5996,3.6016,3.6894,3.7773,3.0463,2.9931,2.9435,2.8734,2.8066,2.7523,2.7523,2.7556,2.7762,2.846,2.9091,2.99,3.1251,3.2562,0.0,0.0,0.0,0.0,0.0,3.9623,4.0945,4.3717,4.4782,4.5246,4.5114,4.4815,4.4444,4.4102,4.3035,4.1915,4.0787,3.9137,3.7491,3.5799,3.5024,3.4299,3.3555,3.2785,3.2424,3.2467,3.2401,3.2401,3.2486,3.3259,3.3666,3.3678,3.2894,3.2118,3.1305,3.0522,2.9721,2.9005,2.9005,2.9005,2.9005,2.9005,2.9005,2.9005,2.9005,2.9005,2.9005,2.9005,2.9537,3.0173,3.0173,3.0772,3.1458,3.1458,3.1584,3.1741,3.1955,3.2093,3.227,3.2532,3.3307,3.399,3.4121,3.4814,3.5423,3.5423,3.5423,3.5423,3.5442,3.4757,3.4487,3.5327,3.5481,3.55,3.55,3.55,3.55,3.55,3.55,3.55,3.55,3.55,3.5528,3.5595,3.5662,3.5754,3.5886,3.5897,3.5931,3.5995,3.5995,3.5995,3.5996,3.5996,3.5996,3.6016,3.6894,3.7773,3.0119,2.9708,2.9359,2.8866,2.7972,2.7203,2.7198,2.7167,2.7235,2.7451,2.7855,2.8465,2.9622,3.0544,0.0,0.0,0.0,0.0,0.0,3.8726,4.0769,4.2646,4.4153,4.5033,4.4967,4.4616,4.4298,4.4048,4.3523,4.2522,4.1017,3.9887,3.8506,3.6773,3.5439,3.4677,3.4457,3.3671,3.3277,3.3358,3.3331,3.3331,3.3376,3.3638,3.378,3.377,3.3513,3.2632,3.1378,3.1121,3.021,2.9005,2.9005,2.9335,2.9787,2.9787,2.9787,2.9879,3.0393,3.0595,3.0595,3.0595,3.076,3.0993,3.0993,3.1636,3.2367,3.2367,3.287,3.345,3.3571,3.3759,3.398,3.4156,3.4525,3.4886,3.4971,3.5255,3.55,3.55,3.55,3.55,3.55,3.525,3.5154,3.5462,3.55,3.55,3.55,3.55,3.55,3.55,3.55,3.55,3.55,3.5508,3.5528,3.561,3.5659,3.5764,3.5899,3.5945,3.5974,3.5995,3.5995,3.5995,3.5996,3.6582,3.6855,3.6894,3.8359,3.8867,2.9717,2.9376,2.9,2.8588,2.7818,2.7107,2.69,2.6891,2.6863,2.6816,2.7019,2.7477,2.8325,2.9253,0.0,0.0,0.0,0.0,0.0,3.7577,3.9425,4.0703,4.3022,4.4431,4.4143,4.4121,4.3927,4.3468,4.3533,4.2849,4.1121,4.0535,3.9347,3.7363,3.6299,3.5491,3.493,3.4435,3.4046,3.3807,3.3807,3.3807,3.3807,3.3807,3.3807,3.3807,3.3807,3.3054,3.1825,3.1825,3.1054,2.9861,2.9861,3.0173,3.0595,3.032,3.0375,3.0705,3.1231,3.1397,3.1397,3.1397,3.1586,3.1825,3.1825,3.247,3.3185,3.3185,3.3704,3.4281,3.434,3.4564,3.4811,3.4927,3.5088,3.5243,3.533,3.5412,3.5467,3.55,3.55,3.55,3.55,3.55,3.55,3.55,3.55,3.55,3.55,3.55,3.55,3.55,3.55,3.55,3.55,3.5502,3.5527,3.561,3.5669,3.5768,3.5892,3.5938,3.6126,3.6462,3.6463,3.66,3.6934,3.748,3.7754,3.7793,3.9238,3.9609]}]]